GFSGL_700_temp_000.txt.gz
Temp
-6 -7 -7 -8 -9 -10 -10 -10 -11 -11 -11 -12 -12 -12 -12 -12 -12 -12 -12 -12 -12 -12 -12 -12 -12 -12 -12 -13 -12 -12 -12 -11 -10 -7 -6 -5 -5 -5 -5 -4 -3 -3 -3
-7 -8 -9 -9 -10 -10 -11 -11 -12 -12 -12 -12 -12 -13 -13 -13 -13 -13 -12 -12 -12 -12 -12 -12 -12 -12 -12 -12 -12 -12 -12 -12 -11 -9 -8 -7 -6 -6 -5 -5 -4 -4 -3
-8 -9 -9 -9 -10 -11 -12 -12 -12 -12 -12 -13 -13 -13 -13 -13 -13 -13 -13 -13 -13 -12 -12 -13 -12 -12 -12 -12 -13 -12 -12 -12 -12 -11 -10 -9 -8 -7 -6 -5 -5 -4 -3
-9 -9 -9 -10 -11 -12 -12 -12 -12 -13 -13 -13 -13 -13 -13 -13 -13 -13 -13 -13 -13 -12 -12 -12 -13 -13 -13 -12 -14 -13 -12 -12 -13 -12 -11 -11 -9 -8 -7 -7 -5 -6 -4
-9 -9 -10 -11 -12 -12 -13 -13 -13 -13 -13 -13 -13 -13 -13 -13 -13 -13 -13 -13 -13 -12 -12 -12 -12 -12 -12 -12 -13 -13 -13 -13 -13 -14 -13 -11 -11 -10 -8 -7 -8 -7 -7
-10 -10 -12 -12 -12 -13 -13 -13 -13 -13 -13 -13 -13 -13 -13 -13 -13 -13 -13 -13 -13 -12 -12 -12 -12 -12 -13 -13 -13 -13 -13 -13 -12 -13 -14 -13 -12 -10 -9 -8 -8 -8 -6
-10 -12 -13 -13 -13 -13 -14 -14 -14 -14 -13 -13 -13 -13 -13 -13 -13 -13 -13 -13 -13 -13 -13 -13 -13 -13 -13 -13 -13 -13 -13 -13 -13 -12 -13 -14 -13 -13 -10 -9 -9 -8 -8
-12 -12 -13 -13 -13 -14 -14 -14 -14 -14 -13 -13 -13 -14 -14 -13 -14 -13 -13 -14 -14 -14 -13 -13 -13 -13 -13 -14 -14 -14 -14 -14 -13 -13 -12 -13 -14 -14 -13 -10 -9 -9 -9
-13 -13 -13 -13 -14 -14 -14 -14 -14 -14 -14 -14 -14 -14 -14 -13 -14 -14 -14 -14 -14 -14 -14 -14 -14 -14 -14 -14 -15 -14 -14 -14 -14 -13 -12 -13 -13 -13 -13 -12 -10 -10 -9
-13 -14 -13 -14 -14 -14 -14 -14 -14 -14 -14 -14 -14 -14 -14 -14 -14 -14 -14 -14 -14 -14 -14 -14 -14 -14 -15 -15 -15 -15 -15 -15 -15 -14 -14 -13 -13 -12 -12 -11 -11 -10 -10
-14 -14 -14 -14 -14 -14 -14 -14 -14 -14 -14 -14 -14 -14 -15 -15 -15 -15 -15 -15 -15 -15 -14 -15 -15 -15 -15 -15 -15 -15 -15 -14 -15 -14 -14 -13 -13 -13 -13 -12 -12 -11 -10
-14 -14 -14 -14 -14 -15 -14 -15 -15 -15 -14 -14 -14 -14 -15 -15 -15 -15 -14 -14 -15 -15 -14 -14 -14 -14 -14 -14 -15 -15 -15 -15 -15 -15 -14 -14 -13 -13 -12 -13 -12 -11 -10
-14 -14 -15 -15 -15 -15 -15 -15 -15 -14 -14 -14 -15 -15 -15 -15 -15 -15 -15 -14 -14 -14 -14 -14 -14 -13 -13 -13 -14 -14 -14 -14 -14 -15 -15 -14 -13 -13 -12 -13 -12 -12 -11
-15 -15 -15 -15 -15 -15 -15 -15 -15 -15 -15 -15 -15 -15 -15 -15 -15 -15 -14 -14 -14 -14 -14 -13 -13 -12 -12 -13 -12 -13 -14 -14 -14 -14 -14 -15 -15 -13 -12 -12 -12 -12 -11
-15 -15 -15 -15 -15 -15 -15 -15 -15 -15 -15 -16 -16 -15 -15 -14 -14 -14 -14 -14 -14 -14 -13 -13 -13 -13 -13 -13 -13 -14 -14 -14 -14 -14 -15 -14 -14 -13 -13 -12 -12 -12 -12
-15 -15 -15 -15 -15 -15 -15 -15 -16 -16 -16 -16 -16 -16 -15 -15 -14 -14 -13 -13 -13 -13 -13 -13 -13 -13 -13 -13 -14 -14 -14 -14 -14 -15 -14 -14 -14 -13 -13 -13 -13 -12 -11
-15 -15 -15 -15 -15 -15 -15 -15 -15 -15 -16 -16 -16 -15 -15 -14 -14 -13 -13 -12 -12 -13 -13 -13 -13 -13 -13 -13 -14 -14 -14 -14 -14 -14 -15 -15 -14 -14 -13 -13 -12 -12 -11
-15 -15 -15 -15 -15 -15 -15 -15 -15 -15 -15 -16 -15 -15 -14 -14 -14 -13 -13 -14 -13 -13 -14 -14 -13 -13 -13 -13 -13 -14 -14 -14 -15 -14 -14 -14 -14 -14 -14 -13 -13 -12 -12
-15 -15 -15 -16 -16 -15 -15 -16 -16 -16 -16 -16 -15 -15 -14 -14 -14 -13 -14 -13 -13 -13 -13 -13 -13 -13 -13 -13 -14 -14 -14 -14 -14 -14 -13 -13 -13 -13 -13 -13 -13 -12 -13
-16 -15 -16 -16 -16 -16 -16 -16 -16 -16 -16 -16 -15 -15 -14 -14 -14 -14 -14 -14 -13 -13 -13 -13 -13 -13 -13 -13 -13 -13 -13 -13 -14 -13 -14 -14 -13 -13 -13 -14 -14 -14 -14
-16 -16 -16 -16 -16 -16 -16 -16 -16 -16 -16 -16 -16 -15 -14 -14 -14 -14 -14 -13 -13 -13 -13 -13 -13 -13 -13 -13 -13 -13 -14 -14 -14 -14 -14 -14 -14 -14 -14 -14 -14 -14 -14
-16 -16 -16 -16 -16 -16 -16 -16 -16 -17 -17 -17 -16 -16 -15 -15 -14 -14 -14 -13 -13 -13 -13 -13 -13 -13 -13 -13 -13 -13 -13 -13 -13 -13 -13 -13 -13 -13 -13 -13 -13 -13 -13
-16 -16 -17 -17 -17 -17 -17 -16 -17 -17 -17 -17 -17 -16 -16 -15 -15 -14 -14 -14 -14 -14 -13 -13 -13 -13 -13 -13 -13 -13 -13 -13 -13 -14 -14 -13 -13 -13 -13 -13 -13 -13 -13
-17 -17 -17 -17 -17 -17 -17 -17 -17 -17 -17 -17 -17 -17 -17 -16 -16 -15 -15 -14 -14 -14 -14 -14 -13 -13 -13 -13 -14 -14 -14 -14 -14 -14 -14 -14 -14 -14 -13 -13 -13 -13 -13
-17 -17 -17 -17 -17 -17 -17 -17 -17 -17 -17 -17 -17 -17 -17 -17 -16 -16 -16 -15 -15 -15 -14 -14 -14 -14 -14 -14 -14 -14 -14 -14 -14 -14 -14 -14 -14 -14 -14 -14 -14 -14 -14
-17 -17 -17 -17 -17 -17 -17 -17 -17 -17 -17 -17 -17 -17 -17 -17 -17 -16 -16 -16 -15 -15 -15 -14 -14 -14 -14 -14 -14 -14 -14 -14 -14 -14 -14 -14 -14 -14 -14 -14 -14 -14 -14

GFSGL_700_temp_003.txt.gz
Temp
-5 -5 -6 -6 -7 -8 -8 -8 -9 -9 -10 -11 -12 -12 -12 -12 -12 -12 -12 -13 -13 -13 -13 -13 -12 -12 -12 -12 -12 -12 -11 -11 -11 -10 -11 -9 -9 -9 -5 -5 -3 -4 -3
-5 -6 -6 -7 -8 -8 -8 -9 -10 -10 -12 -12 -12 -12 -12 -12 -13 -13 -13 -13 -13 -13 -13 -13 -13 -13 -13 -12 -12 -12 -12 -12 -12 -12 -12 -12 -12 -11 -10 -6 -5 -5 -5
-6 -7 -7 -8 -8 -8 -9 -10 -11 -12 -12 -13 -13 -13 -13 -13 -13 -13 -13 -13 -13 -13 -13 -13 -13 -13 -13 -13 -13 -13 -12 -12 -13 -12 -12 -12 -12 -12 -11 -9 -6 -5 -4
-7 -7 -8 -8 -9 -9 -10 -11 -12 -13 -13 -13 -13 -13 -13 -14 -14 -13 -13 -13 -13 -14 -14 -14 -13 -13 -13 -13 -14 -13 -13 -13 -13 -13 -12 -12 -12 -12 -13 -11 -7 -6 -6
-8 -8 -9 -9 -10 -11 -12 -12 -13 -13 -13 -13 -13 -13 -14 -14 -13 -14 -14 -14 -14 -14 -13 -13 -13 -13 -13 -13 -13 -13 -13 -13 -13 -13 -12 -12 -12 -12 -12 -11 -11 -8 -8
-10 -9 -10 -11 -11 -12 -12 -13 -13 -13 -14 -14 -14 -14 -13 -14 -14 -14 -14 -14 -13 -13 -13 -13 -13 -13 -13 -13 -13 -13 -13 -13 -13 -13 -12 -13 -12 -12 -12 -12 -11 -11 -9
-10 -10 -11 -12 -12 -13 -13 -13 -13 -14 -14 -14 -14 -14 -14 -14 -14 -14 -14 -14 -13 -13 -13 -13 -13 -13 -13 -13 -13 -13 -13 -13 -13 -14 -14 -13 -13 -12 -12 -12 -12 -11 -10
-10 -11 -12 -13 -13 -13 -14 -14 -14 -14 -14 -14 -14 -14 -14 -14 -14 -14 -14 -14 -14 -14 -14 -14 -14 -13 -14 -14 -14 -14 -14 -14 -14 -14 -14 -13 -13 -13 -13 -12 -12 -12 -11
-11 -12 -13 -13 -13 -14 -14 -14 -14 -14 -14 -14 -14 -14 -14 -14 -14 -14 -15 -15 -14 -14 -14 -14 -14 -14 -14 -15 -15 -15 -15 -15 -15 -14 -14 -14 -14 -14 -14 -13 -13 -12 -12
-13 -13 -13 -13 -14 -14 -14 -14 -14 -14 -14 -14 -14 -14 -14 -14 -15 -16 -16 -16 -15 -15 -15 -14 -14 -15 -15 -15 -15 -15 -15 -16 -15 -15 -14 -14 -14 -14 -15 -13 -13 -12 -12
-13 -13 -14 -14 -14 -14 -14 -14 -14 -14 -14 -14 -14 -14 -14 -15 -15 -15 -15 -15 -15 -15 -15 -15 -15 -15 -15 -15 -15 -15 -15 -16 -16 -16 -15 -15 -15 -14 -15 -14 -13 -13 -12
-13 -14 -14 -14 -15 -15 -15 -14 -14 -14 -14 -14 -14 -14 -15 -15 -16 -15 -15 -15 -15 -15 -15 -15 -15 -15 -15 -15 -14 -14 -15 -16 -16 -16 -16 -16 -15 -15 -14 -14 -14 -13 -12
-14 -14 -14 -15 -15 -15 -15 -14 -15 -15 -15 -14 -14 -14 -14 -15 -15 -15 -15 -15 -15 -15 -15 -14 -14 -14 -14 -13 -13 -14 -14 -15 -16 -16 -16 -16 -16 -15 -14 -14 -14 -13 -13
-14 -14 -15 -15 -15 -15 -15 -15 -15 -15 -15 -14 -14 -14 -14 -14 -14 -14 -14 -14 -14 -14 -14 -14 -14 -14 -13 -13 -13 -13 -13 -15 -15 -16 -16 -16 -16 -15 -14 -14 -13 -13 -13
-14 -15 -15 -15 -15 -15 -15 -15 -15 -15 -15 -15 -15 -15 -15 -14 -14 -14 -14 -14 -14 -14 -14 -14 -14 -13 -13 -14 -13 -13 -14 -15 -15 -16 -16 -16 -15 -15 -15 -13 -13 -13 -13
-15 -15 -15 -15 -15 -15 -15 -15 -15 -15 -15 -15 -15 -15 -15 -15 -14 -14 -14 -14 -14 -14 -14 -14 -14 -14 -14 -14 -14 -14 -15 -15 -15 -15 -16 -16 -16 -16 -15 -14 -14 -13 -13
-15 -15 -15 -15 -15 -15 -15 -15 -15 -15 -16 -16 -15 -15 -15 -14 -14 -14 -14 -14 -14 -14 -14 -14 -14 -14 -14 -14 -15 -15 -15 -15 -15 -16 -16 -16 -16 -16 -15 -15 -14 -13 -13
-15 -15 -15 -15 -15 -15 -15 -15 -15 -15 -15 -16 -16 -15 -14 -14 -14 -14 -14 -14 -14 -14 -14 -15 -14 -14 -14 -15 -15 -15 -15 -15 -15 -16 -16 -16 -16 -16 -15 -15 -14 -14 -14
-15 -15 -16 -16 -16 -16 -16 -16 -16 -16 -16 -16 -16 -15 -15 -14 -14 -14 -14 -13 -13 -13 -14 -14 -14 -15 -15 -15 -15 -15 -15 -15 -15 -16 -15 -15 -15 -15 -15 -15 -15 -14 -14
-15 -16 -16 -16 -16 -16 -16 -16 -16 -16 -16 -16 -16 -15 -15 -14 -14 -14 -14 -13 -13 -13 -14 -14 -14 -14 -14 -15 -15 -15 -15 -15 -15 -15 -15 -15 -15 -15 -14 -15 -15 -15 -15
-16 -16 -16 -16 -16 -16 -16 -16 -16 -16 -17 -17 -16 -16 -15 -15 -14 -14 -14 -14 -14 -14 -14 -14 -14 -14 -14 -14 -15 -14 -14 -14 -15 -15 -15 -15 -15 -15 -15 -14 -14 -13 -14
-16 -17 -17 -17 -17 -17 -17 -17 -17 -17 -17 -17 -17 -16 -16 -15 -15 -14 -14 -14 -14 -14 -14 -14 -14 -14 -14 -14 -14 -14 -15 -14 -14 -14 -14 -14 -15 -15 -15 -15 -15 -15 -14
-17 -17 -17 -17 -17 -17 -17 -17 -17 -17 -17 -17 -17 -17 -16 -16 -15 -15 -15 -14 -14 -14 -14 -14 -14 -14 -14 -14 -14 -14 -14 -14 -15 -15 -15 -15 -15 -14 -15 -15 -15 -15 -14
-17 -17 -17 -17 -17 -17 -17 -17 -17 -17 -17 -17 -17 -17 -17 -17 -16 -15 -15 -15 -15 -14 -14 -14 -14 -14 -14 -14 -14 -14 -14 -14 -14 -14 -14 -14 -14 -14 -14 -14 -14 -14 -14
-17 -17 -17 -17 -17 -17 -17 -17 -17 -17 -17 -17 -17 -17 -17 -17 -17 -16 -16 -15 -15 -15 -15 -15 -15 -14 -14 -14 -14 -14 -15 -15 -15 -15 -14 -15 -15 -14 -14 -14 -14 -14 -14
-17 -17 -18 -17 -17 -17 -18 -17 -17 -17 -17 -17 -17 -17 -17 -17 -17 -16 -16 -16 -15 -15 -15 -15 -15 -15 -15 -15 -15 -14 -14 -14 -15 -15 -15 -15 -15 -15 -15 -15 -15 -15 -15

GFSGL_700_temp_006.txt.gz
Temp
-2 -3 -3 -4 -5 -6 -7 -7 -7 -8 -8 -9 -10 -10 -11 -12 -12 -11 -11 -12 -12 -12 -12 -12 -12 -12 -12 -12 -12 -11 -11 -12 -12 -8 -10 -10 -9 -8 -8 -9 -8 -6 -4
-3 -3 -4 -5 -7 -7 -7 -8 -8 -9 -10 -10 -11 -12 -12 -12 -12 -12 -13 -13 -13 -13 -13 -13 -13 -13 -13 -13 -13 -12 -12 -11 -12 -11 -10 -11 -11 -11 -10 -10 -9 -8 -6
-4 -5 -5 -7 -7 -8 -8 -9 -10 -10 -10 -11 -12 -12 -13 -13 -13 -13 -13 -14 -14 -14 -14 -14 -13 -13 -13 -13 -13 -13 -13 -13 -13 -12 -10 -10 -11 -11 -11 -10 -11 -10 -9
-5 -6 -6 -8 -8 -9 -10 -10 -10 -11 -12 -12 -13 -13 -13 -13 -13 -14 -14 -14 -14 -14 -14 -14 -14 -13 -13 -13 -13 -13 -13 -13 -12 -12 -12 -11 -11 -11 -12 -11 -10 -12 -11
-7 -8 -9 -9 -10 -10 -10 -11 -12 -13 -13 -13 -13 -13 -13 -14 -14 -14 -14 -14 -14 -14 -14 -14 -14 -14 -14 -14 -14 -13 -13 -13 -13 -12 -12 -11 -12 -12 -11 -11 -11 -11 -11
-8 -8 -10 -10 -10 -11 -12 -12 -13 -13 -14 -14 -14 -14 -14 -14 -14 -14 -15 -15 -15 -14 -14 -14 -14 -14 -14 -14 -14 -14 -13 -13 -13 -13 -12 -12 -12 -12 -12 -12 -12 -12 -12
-8 -10 -10 -10 -10 -12 -12 -13 -13 -14 -14 -14 -14 -14 -14 -14 -14 -15 -15 -15 -14 -14 -14 -15 -15 -14 -14 -14 -14 -14 -14 -14 -14 -14 -13 -13 -12 -13 -13 -13 -13 -13 -12
-9 -9 -9 -11 -12 -12 -13 -14 -14 -14 -14 -14 -14 -14 -14 -14 -14 -15 -15 -15 -15 -15 -15 -15 -15 -14 -15 -15 -14 -14 -14 -14 -14 -14 -14 -14 -13 -13 -13 -14 -14 -13 -12
-9 -10 -11 -12 -13 -13 -14 -14 -14 -14 -14 -14 -14 -14 -14 -14 -15 -15 -15 -16 -16 -16 -16 -15 -15 -15 -15 -15 -15 -15 -15 -15 -15 -14 -14 -14 -14 -14 -14 -14 -14 -14 -13
-11 -12 -13 -13 -14 -14 -14 -14 -14 -14 -14 -14 -14 -14 -14 -15 -15 -16 -16 -16 -16 -15 -15 -15 -15 -15 -15 -15 -15 -15 -15 -15 -15 -15 -15 -15 -14 -14 -14 -14 -14 -14 -13
-12 -13 -13 -14 -14 -14 -14 -14 -14 -14 -14 -14 -14 -14 -15 -15 -15 -16 -16 -15 -15 -15 -15 -15 -15 -15 -15 -15 -15 -16 -15 -15 -15 -15 -15 -15 -15 -15 -14 -14 -14 -14 -14
-13 -13 -14 -14 -14 -14 -14 -15 -15 -15 -14 -14 -14 -14 -14 -16 -16 -15 -15 -15 -15 -15 -15 -14 -15 -15 -15 -14 -14 -14 -14 -15 -15 -15 -16 -16 -16 -15 -15 -15 -14 -14 -14
-13 -14 -14 -14 -14 -15 -15 -15 -15 -15 -14 -14 -14 -14 -15 -15 -15 -15 -15 -15 -15 -15 -14 -14 -14 -14 -14 -14 -14 -14 -14 -14 -14 -15 -16 -16 -16 -16 -15 -16 -15 -14 -15
-14 -14 -14 -14 -15 -15 -15 -15 -15 -15 -15 -14 -15 -15 -15 -15 -15 -15 -14 -14 -15 -15 -15 -15 -14 -14 -14 -14 -14 -14 -14 -14 -14 -15 -15 -16 -16 -16 -16 -16 -15 -15 -15
-14 -14 -14 -15 -15 -15 -15 -15 -15 -15 -15 -15 -15 -15 -15 -15 -15 -15 -15 -15 -15 -15 -15 -15 -14 -14 -14 -15 -15 -14 -13 -13 -14 -15 -16 -16 -16 -16 -16 -16 -15 -15 -15
-14 -15 -15 -15 -15 -15 -15 -15 -15 -15 -16 -15 -15 -16 -15 -15 -15 -15 -15 -15 -15 -15 -15 -15 -15 -15 -15 -15 -15 -15 -14 -14 -15 -15 -16 -16 -16 -15 -15 -16 -16 -15 -15
-15 -15 -15 -15 -16 -16 -16 -16 -15 -15 -16 -16 -16 -16 -15 -15 -15 -15 -15 -15 -15 -14 -14 -15 -15 -15 -15 -15 -15 -16 -15 -15 -15 -16 -16 -16 -15 -16 -16 -16 -16 -16 -16
-15 -15 -15 -16 -16 -16 -16 -16 -16 -16 -15 -16 -16 -16 -15 -15 -14 -14 -14 -15 -14 -14 -14 -14 -15 -15 -15 -15 -15 -16 -16 -16 -16 -16 -16 -16 -16 -16 -16 -16 -16 -16 -16
-15 -15 -15 -16 -16 -16 -16 -16 -16 -16 -16 -16 -16 -16 -16 -15 -14 -14 -14 -14 -14 -14 -14 -14 -14 -15 -15 -15 -15 -15 -15 -16 -16 -16 -16 -16 -16 -16 -16 -16 -16 -16 -16
-16 -16 -16 -16 -16 -17 -17 -17 -16 -16 -17 -17 -17 -16 -16 -15 -15 -14 -14 -14 -14 -14 -14 -14 -14 -14 -15 -15 -15 -15 -15 -15 -15 -15 -16 -16 -16 -16 -16 -16 -16 -16 -15
-16 -16 -17 -17 -17 -17 -17 -17 -17 -17 -17 -17 -17 -17 -16 -15 -15 -15 -14 -14 -14 -14 -14 -14 -14 -14 -14 -14 -15 -15 -15 -15 -15 -15 -15 -15 -15 -15 -15 -15 -15 -15 -15
-16 -17 -17 -17 -17 -17 -17 -17 -17 -17 -17 -17 -18 -17 -17 -16 -16 -15 -15 -14 -14 -14 -14 -14 -14 -14 -14 -14 -14 -14 -14 -15 -15 -15 -15 -15 -16 -16 -16 -16 -15 -15 -15
-17 -17 -17 -17 -17 -17 -17 -17 -17 -17 -17 -18 -18 -18 -17 -17 -16 -16 -15 -15 -15 -14 -14 -14 -14 -14 -14 -14 -15 -15 -14 -14 -14 -14 -15 -15 -15 -15 -15 -16 -16 -15 -15
-17 -17 -17 -17 -17 -17 -18 -18 -18 -17 -18 -18 -18 -18 -18 -17 -17 -16 -16 -15 -15 -15 -15 -15 -15 -15 -15 -15 -15 -15 -15 -15 -15 -15 -15 -15 -15 -15 -15 -16 -15 -15 -15
-17 -18 -18 -17 -17 -18 -18 -18 -18 -18 -18 -18 -18 -18 -18 -18 -17 -17 -16 -16 -15 -15 -15 -15 -15 -15 -15 -15 -15 -15 -15 -15 -15 -15 -15 -15 -15 -15 -15 -15 -15 -15 -15
-17 -18 -17 -17 -17 -18 -18 -18 -18 -18 -18 -18 -18 -18 -18 -18 -17 -17 -16 -16 -16 -16 -15 -16 -16 -15 -15 -15 -15 -15 -15 -15 -15 -15 -15 -15 -15 -15 -15 -15 -15 -15 -15

GFSGL_700_temp_009.txt.gz
Temp
-2 -2 -2 -2 -3 -5 -6 -7 -7 -7 -7 -8 -9 -10 -10 -10 -12 -12 -13 -12 -12 -12 -12 -12 -12 -12 -12 -13 -13 -13 -12 -12 -12 -10 -10 -9 -9 -8 -8 -9 -7 -7 -6
-2 -2 -2 -3 -5 -6 -7 -8 -8 -8 -9 -10 -10 -11 -11 -12 -13 -13 -13 -13 -13 -13 -13 -13 -13 -13 -13 -13 -13 -13 -13 -13 -13 -11 -12 -11 -10 -10 -9 -9 -10 -8 -8
-3 -3 -3 -5 -6 -7 -8 -9 -9 -9 -10 -11 -11 -12 -13 -13 -13 -13 -13 -14 -14 -13 -13 -13 -13 -13 -13 -13 -13 -13 -13 -13 -13 -12 -12 -12 -12 -11 -11 -11 -10 -11 -9
-4 -4 -6 -7 -7 -8 -8 -9 -10 -11 -12 -12 -12 -13 -13 -13 -13 -14 -14 -14 -14 -13 -14 -14 -14 -14 -14 -14 -14 -14 -14 -14 -13 -13 -12 -12 -12 -12 -12 -11 -11 -11 -11
-7 -7 -7 -7 -8 -9 -10 -11 -11 -12 -13 -13 -13 -13 -14 -14 -14 -14 -14 -14 -14 -14 -14 -15 -15 -15 -15 -15 -15 -14 -14 -14 -14 -13 -12 -12 -12 -12 -12 -13 -12 -11 -11
-8 -8 -8 -9 -9 -10 -10 -11 -12 -13 -13 -13 -14 -14 -14 -14 -14 -14 -15 -14 -14 -14 -14 -14 -14 -14 -14 -15 -15 -15 -14 -14 -14 -13 -12 -12 -12 -12 -12 -12 -13 -13 -11
-8 -8 -8 -9 -10 -10 -10 -12 -13 -13 -14 -14 -14 -14 -14 -14 -14 -15 -15 -15 -14 -14 -14 -14 -15 -15 -15 -15 -15 -15 -15 -15 -15 -14 -12 -12 -12 -12 -12 -12 -12 -14 -12
-9 -9 -9 -10 -10 -12 -13 -13 -14 -14 -14 -14 -14 -14 -14 -14 -15 -15 -15 -15 -14 -15 -15 -15 -15 -15 -15 -15 -15 -15 -15 -15 -15 -14 -14 -13 -13 -13 -13 -12 -12 -13 -12
-9 -10 -10 -11 -13 -13 -14 -14 -14 -14 -14 -14 -14 -14 -14 -14 -15 -15 -15 -15 -15 -15 -15 -15 -15 -15 -15 -15 -15 -15 -15 -14 -14 -14 -14 -14 -14 -14 -14 -13 -12 -12 -12
-11 -12 -12 -13 -13 -14 -14 -14 -14 -15 -15 -14 -14 -15 -14 -15 -15 -15 -15 -16 -16 -16 -15 -15 -15 -15 -15 -15 -15 -15 -15 -15 -15 -15 -15 -15 -14 -14 -14 -14 -13 -13 -13
-12 -13 -13 -14 -14 -14 -14 -15 -15 -15 -15 -15 -15 -14 -15 -15 -15 -15 -16 -16 -16 -15 -15 -15 -15 -15 -15 -15 -15 -15 -15 -15 -15 -15 -15 -15 -15 -15 -14 -14 -14 -14 -13
-13 -14 -14 -14 -14 -14 -15 -15 -15 -15 -15 -15 -14 -15 -15 -15 -16 -16 -15 -15 -15 -15 -15 -15 -15 -15 -15 -15 -15 -15 -15 -15 -15 -15 -15 -15 -15 -15 -15 -15 -15 -14 -14
-14 -14 -14 -14 -14 -15 -15 -15 -15 -15 -15 -15 -15 -15 -15 -15 -16 -15 -15 -15 -15 -15 -15 -15 -15 -14 -14 -14 -14 -14 -14 -14 -14 -15 -15 -15 -15 -16 -16 -16 -16 -15 -15
-14 -14 -14 -15 -15 -15 -15 -15 -16 -16 -15 -15 -15 -15 -15 -15 -15 -15 -15 -14 -15 -15 -15 -15 -15 -14 -14 -14 -14 -14 -15 -15 -15 -15 -15 -16 -15 -16 -16 -16 -16 -16 -16
-14 -14 -15 -15 -15 -15 -16 -16 -16 -16 -16 -16 -16 -15 -15 -15 -15 -15 -15 -15 -15 -15 -15 -15 -15 -15 -15 -15 -15 -15 -15 -14 -13 -14 -15 -15 -16 -16 -16 -16 -16 -15 -16
-15 -15 -15 -15 -15 -16 -16 -16 -16 -16 -16 -16 -16 -16 -16 -16 -15 -15 -15 -15 -15 -15 -15 -15 -15 -15 -16 -16 -15 -15 -14 -14 -13 -14 -15 -16 -16 -16 -16 -16 -15 -15 -15
-15 -15 -15 -16 -16 -16 -16 -16 -16 -16 -17 -16 -16 -16 -16 -16 -15 -15 -15 -14 -15 -15 -15 -15 -15 -16 -16 -15 -15 -15 -15 -14 -14 -15 -15 -15 -16 -16 -15 -16 -16 -16 -16
-15 -15 -16 -16 -16 -16 -16 -17 -17 -17 -16 -16 -17 -17 -16 -16 -15 -15 -14 -15 -15 -14 -14 -14 -14 -15 -15 -15 -15 -15 -16 -16 -16 -16 -16 -16 -16 -16 -16 -16 -16 -16 -16
-15 -16 -16 -16 -16 -17 -17 -17 -17 -17 -17 -17 -17 -17 -17 -16 -16 -15 -15 -14 -14 -14 -14 -14 -14 -15 -15 -15 -15 -15 -16 -16 -16 -16 -16 -16 -16 -16 -16 -16 -16 -16 -16
-16 -16 -16 -17 -17 -17 -17 -17 -17 -17 -17 -17 -17 -17 -17 -16 -16 -15 -15 -14 -14 -14 -14 -15 -14 -14 -15 -14 -15 -15 -15 -15 -16 -16 -16 -16 -16 -16 -16 -16 -16 -16 -16
-16 -17 -17 -17 -17 -17 -17 -17 -17 -17 -17 -17 -18 -18 -17 -17 -16 -16 -15 -15 -14 -14 -14 -14 -15 -14 -14 -15 -15 -14 -14 -15 -15 -15 -16 -16 -16 -16 -16 -16 -16 -16 -16
-17 -17 -17 -17 -17 -18 -18 -18 -18 -18 -18 -18 -18 -18 -18 -17 -17 -16 -16 -15 -15 -14 -14 -14 -15 -15 -14 -14 -14 -15 -15 -15 -15 -15 -15 -16 -16 -16 -16 -16 -16 -16 -16
-17 -17 -17 -17 -18 -18 -18 -18 -18 -18 -18 -18 -18 -18 -18 -18 -17 -17 -16 -16 -15 -15 -15 -14 -14 -15 -15 -15 -15 -14 -15 -15 -15 -15 -15 -15 -15 -16 -16 -16 -16 -16 -16
-17 -17 -17 -17 -18 -18 -18 -18 -18 -18 -18 -18 -19 -18 -18 -18 -17 -17 -16 -16 -16 -15 -15 -15 -15 -15 -15 -15 -15 -15 -15 -15 -15 -15 -15 -15 -15 -15 -16 -16 -16 -16 -16
-17 -17 -17 -17 -18 -18 -18 -18 -18 -18 -18 -18 -18 -18 -18 -18 -18 -17 -17 -16 -16 -16 -16 -15 -15 -15 -15 -15 -15 -15 -15 -15 -15 -15 -15 -15 -15 -16 -16 -16 -16 -16 -16
-17 -17 -17 -17 -18 -18 -18 -18 -18 -18 -18 -18 -18 -18 -18 -18 -18 -17 -17 -17 -16 -16 -16 -16 -16 -16 -16 -16 -16 -16 -16 -15 -15 -16 -16 -16 -16 -16 -16 -16 -16 -16 -16

GFSGL_700_temp_015.txt.gz
Temp
-2 -3 -3 -3 -3 -3 -4 -5 -7 -8 -8 -9 -9 -9 -8 -9 -9 -9 -9 -9 -9 -10 -10 -11 -10 -11 -11 -12 -12 -12 -12 -12 -12 -11 -12 -11 -11 -10 -10 -10 -9 -9 -9
-3 -3 -3 -3 -3 -4 -5 -6 -9 -9 -9 -9 -10 -10 -10 -10 -10 -10 -10 -10 -11 -11 -11 -12 -12 -13 -13 -13 -13 -13 -13 -13 -13 -13 -13 -13 -12 -12 -11 -11 -10 -10 -9
-4 -4 -4 -4 -5 -6 -7 -8 -9 -9 -10 -10 -10 -11 -11 -11 -11 -11 -11 -12 -12 -12 -13 -13 -13 -13 -13 -13 -14 -14 -14 -14 -14 -13 -13 -13 -13 -13 -13 -12 -12 -11 -10
-4 -5 -5 -5 -6 -7 -9 -9 -9 -9 -10 -11 -12 -12 -12 -12 -12 -12 -12 -13 -13 -13 -14 -14 -14 -14 -14 -14 -14 -14 -14 -14 -14 -14 -14 -14 -14 -13 -13 -13 -12 -12 -11
-5 -6 -6 -7 -10 -10 -10 -10 -11 -11 -12 -12 -12 -12 -13 -13 -13 -13 -14 -14 -14 -14 -14 -14 -14 -14 -14 -14 -14 -14 -14 -14 -14 -14 -14 -14 -13 -13 -14 -13 -13 -12 -12
-6 -7 -8 -9 -10 -10 -11 -11 -11 -11 -12 -13 -13 -13 -13 -13 -13 -14 -14 -14 -14 -14 -14 -14 -14 -14 -14 -14 -14 -14 -15 -15 -15 -15 -15 -14 -14 -14 -14 -14 -14 -13 -12
-8 -9 -10 -11 -11 -11 -12 -12 -12 -13 -13 -13 -13 -14 -14 -14 -14 -14 -14 -14 -14 -14 -14 -14 -14 -14 -14 -14 -15 -15 -15 -15 -16 -16 -15 -15 -15 -15 -14 -14 -14 -14 -13
-10 -11 -11 -12 -12 -12 -13 -13 -13 -14 -14 -14 -14 -14 -14 -14 -15 -15 -15 -14 -14 -14 -14 -14 -15 -15 -14 -14 -14 -14 -14 -15 -15 -15 -16 -16 -15 -15 -15 -15 -15 -14 -13
-11 -11 -12 -12 -13 -13 -14 -14 -14 -14 -14 -14 -14 -15 -15 -15 -15 -15 -15 -14 -14 -14 -15 -15 -15 -15 -15 -15 -15 -15 -14 -14 -15 -15 -15 -16 -15 -15 -15 -15 -15 -14 -14
-12 -12 -13 -13 -14 -15 -14 -14 -14 -14 -14 -15 -15 -15 -15 -16 -16 -15 -15 -14 -14 -14 -15 -15 -15 -15 -15 -15 -15 -15 -15 -15 -15 -15 -15 -15 -16 -15 -15 -15 -15 -14 -14
-12 -13 -14 -15 -15 -14 -14 -14 -14 -15 -15 -15 -15 -15 -16 -16 -16 -15 -15 -15 -15 -15 -15 -15 -15 -15 -15 -15 -16 -15 -15 -15 -15 -15 -15 -15 -16 -16 -16 -15 -15 -15 -15
-14 -14 -15 -15 -15 -15 -15 -15 -15 -15 -15 -16 -16 -16 -16 -16 -16 -15 -15 -16 -16 -15 -15 -15 -15 -15 -16 -16 -15 -15 -15 -15 -15 -15 -15 -15 -15 -15 -16 -16 -16 -16 -16
-14 -15 -16 -15 -15 -15 -15 -15 -15 -16 -16 -16 -16 -16 -16 -16 -16 -16 -16 -16 -16 -15 -15 -15 -15 -16 -16 -17 -17 -16 -16 -15 -15 -15 -15 -15 -16 -16 -16 -15 -16 -16 -16
-15 -16 -15 -15 -15 -15 -15 -16 -16 -16 -17 -17 -16 -16 -16 -16 -16 -16 -16 -16 -15 -15 -15 -15 -16 -16 -16 -17 -17 -17 -16 -15 -15 -15 -14 -14 -15 -16 -16 -16 -16 -16 -16
-16 -16 -16 -16 -16 -16 -16 -16 -17 -17 -17 -17 -17 -17 -17 -16 -16 -16 -16 -15 -15 -15 -15 -15 -16 -16 -16 -16 -16 -16 -16 -15 -15 -14 -14 -14 -15 -16 -16 -16 -16 -16 -16
-16 -16 -16 -16 -16 -16 -16 -17 -18 -18 -18 -18 -18 -17 -17 -17 -17 -17 -16 -16 -15 -15 -15 -15 -15 -15 -15 -16 -16 -16 -15 -15 -15 -14 -15 -16 -16 -16 -16 -16 -17 -17 -17
-16 -16 -16 -16 -16 -16 -17 -17 -17 -17 -18 -18 -18 -18 -18 -17 -17 -17 -16 -16 -15 -15 -15 -15 -15 -15 -15 -15 -15 -15 -15 -15 -15 -15 -16 -16 -16 -16 -16 -16 -16 -16 -16
-16 -16 -16 -16 -17 -17 -17 -17 -18 -18 -18 -18 -18 -18 -18 -18 -18 -17 -17 -16 -16 -15 -15 -15 -15 -15 -15 -15 -15 -15 -15 -15 -16 -16 -16 -16 -16 -16 -16 -16 -16 -16 -16
-16 -16 -16 -17 -17 -17 -18 -18 -18 -18 -18 -18 -18 -18 -18 -18 -18 -17 -17 -16 -16 -15 -15 -15 -15 -15 -15 -15 -15 -14 -15 -15 -15 -16 -16 -16 -16 -16 -16 -16 -16 -16 -16
-16 -16 -17 -17 -17 -17 -18 -18 -18 -18 -18 -18 -18 -19 -18 -18 -18 -18 -17 -16 -16 -15 -15 -15 -15 -15 -15 -15 -15 -15 -15 -15 -15 -15 -16 -16 -16 -16 -16 -16 -16 -16 -16
-16 -16 -17 -17 -17 -18 -18 -18 -18 -18 -18 -18 -19 -19 -19 -18 -18 -18 -17 -17 -16 -16 -16 -15 -15 -15 -15 -15 -15 -15 -15 -15 -15 -15 -15 -16 -16 -16 -16 -16 -16 -16 -16
-16 -16 -17 -17 -17 -18 -18 -18 -18 -18 -18 -19 -19 -19 -19 -18 -18 -18 -18 -17 -17 -16 -16 -16 -16 -16 -16 -15 -15 -15 -15 -15 -15 -15 -15 -15 -15 -15 -16 -16 -16 -16 -16
-16 -17 -17 -17 -17 -17 -18 -18 -18 -18 -18 -19 -19 -19 -19 -19 -18 -18 -18 -17 -17 -17 -16 -16 -16 -16 -16 -15 -15 -15 -15 -15 -15 -15 -15 -15 -15 -15 -15 -15 -16 -16 -16
-16 -17 -17 -17 -17 -17 -18 -18 -18 -18 -18 -18 -19 -19 -19 -19 -19 -18 -18 -18 -17 -17 -17 -16 -17 -16 -16 -16 -16 -16 -16 -16 -15 -15 -15 -15 -15 -15 -15 -15 -15 -16 -16
-16 -17 -17 -17 -17 -17 -18 -18 -18 -18 -18 -18 -18 -19 -19 -19 -19 -18 -18 -18 -18 -17 -17 -17 -18 -17 -17 -16 -16 -16 -16 -16 -16 -16 -16 -16 -16 -16 -16 -16 -16 -16 -16
-16 -17 -17 -17 -17 -17 -17 -18 -18 -18 -18 -18 -18 -19 -19 -19 -19 -19 -19 -18 -18 -18 -18 -18 -18 -17 -17 -17 -17 -17 -16 -16 -16 -16 -16 -16 -16 -16 -16 -16 -16 -16 -16

GFSGL_700_temp_021.txt.gz
Temp
-5 -5 -5 -4 -4 -4 -5 -5 -5 -6 -7 -8 -10 -10 -10 -10 -10 -10 -11 -11 -11 -11 -11 -12 -12 -13 -13 -13 -13 -12 -12 -12 -12 -11 -11 -11 -10 -10 -10 -9 -9 -8 -8
-5 -5 -4 -5 -5 -6 -5 -6 -7 -8 -9 -11 -11 -11 -11 -11 -11 -12 -12 -12 -12 -12 -12 -13 -13 -13 -13 -13 -13 -13 -13 -13 -14 -13 -12 -12 -12 -11 -11 -11 -11 -10 -10
-5 -5 -5 -6 -6 -7 -8 -8 -9 -10 -11 -12 -12 -12 -12 -12 -12 -12 -12 -13 -13 -14 -14 -13 -13 -13 -13 -13 -13 -13 -13 -13 -14 -14 -13 -13 -13 -12 -12 -12 -12 -12 -12
-5 -5 -6 -6 -8 -9 -10 -10 -11 -11 -12 -12 -13 -13 -13 -13 -13 -14 -14 -14 -14 -14 -14 -14 -14 -14 -14 -14 -14 -14 -14 -14 -14 -14 -13 -13 -13 -13 -13 -13 -13 -13 -12
-6 -6 -7 -8 -9 -10 -11 -11 -12 -12 -12 -13 -13 -14 -14 -14 -14 -14 -14 -14 -14 -14 -14 -15 -15 -15 -15 -15 -15 -14 -14 -14 -14 -14 -14 -13 -13 -14 -13 -13 -13 -13 -13
-7 -8 -9 -10 -11 -12 -12 -12 -13 -13 -14 -14 -14 -14 -14 -15 -15 -15 -15 -15 -15 -15 -15 -15 -15 -15 -15 -15 -15 -15 -14 -14 -14 -15 -15 -14 -14 -14 -14 -14 -14 -14 -13
-9 -10 -10 -11 -12 -12 -12 -13 -13 -14 -15 -15 -15 -15 -15 -15 -15 -15 -15 -15 -15 -15 -15 -15 -15 -15 -15 -15 -15 -15 -15 -15 -15 -15 -15 -14 -14 -14 -14 -14 -14 -14 -14
-10 -11 -12 -12 -13 -13 -13 -14 -14 -15 -15 -15 -15 -15 -15 -15 -16 -16 -16 -16 -16 -15 -16 -16 -15 -15 -15 -16 -15 -15 -15 -15 -15 -15 -15 -15 -15 -15 -15 -15 -15 -14 -14
-11 -12 -13 -13 -14 -14 -15 -15 -15 -15 -15 -15 -15 -15 -16 -16 -16 -16 -16 -16 -16 -16 -16 -16 -16 -16 -16 -16 -16 -15 -15 -15 -16 -15 -15 -15 -15 -15 -16 -16 -15 -15 -15
-12 -13 -14 -14 -14 -15 -15 -15 -15 -16 -16 -16 -16 -16 -16 -16 -17 -17 -17 -16 -16 -16 -16 -16 -16 -16 -16 -16 -16 -16 -16 -16 -16 -16 -15 -15 -15 -15 -15 -16 -16 -16 -16
-13 -14 -14 -15 -15 -15 -15 -16 -16 -16 -16 -16 -16 -16 -17 -17 -17 -17 -17 -17 -17 -16 -16 -16 -16 -16 -16 -16 -16 -16 -16 -17 -17 -16 -16 -15 -15 -15 -16 -16 -16 -16 -16
-14 -15 -15 -15 -15 -15 -16 -16 -16 -16 -16 -16 -16 -17 -17 -17 -18 -17 -17 -17 -17 -17 -17 -17 -16 -16 -16 -16 -16 -16 -17 -17 -16 -16 -16 -15 -15 -15 -15 -16 -16 -16 -16
-15 -15 -15 -15 -16 -16 -16 -16 -16 -16 -16 -17 -17 -17 -17 -18 -18 -18 -18 -18 -18 -18 -17 -17 -16 -16 -16 -16 -16 -16 -16 -16 -16 -16 -15 -15 -15 -15 -15 -15 -16 -16 -16
-15 -15 -15 -16 -16 -16 -16 -16 -17 -17 -17 -17 -17 -18 -18 -18 -18 -18 -18 -18 -18 -17 -17 -17 -16 -16 -16 -16 -16 -16 -16 -16 -16 -15 -15 -15 -15 -15 -15 -16 -16 -17 -17
-15 -15 -15 -16 -16 -16 -16 -17 -17 -17 -17 -18 -18 -18 -18 -18 -18 -18 -18 -18 -18 -17 -17 -17 -16 -16 -16 -16 -16 -16 -16 -16 -16 -16 -16 -15 -15 -15 -15 -16 -16 -16 -17
-15 -15 -16 -16 -16 -16 -16 -17 -18 -18 -18 -18 -18 -18 -18 -18 -19 -19 -19 -18 -18 -17 -17 -17 -16 -16 -16 -16 -16 -15 -16 -16 -16 -16 -16 -16 -16 -15 -15 -16 -16 -16 -16
-15 -15 -16 -16 -16 -16 -16 -17 -17 -18 -18 -18 -18 -18 -19 -19 -19 -19 -19 -18 -18 -17 -17 -17 -17 -16 -16 -16 -15 -15 -15 -16 -16 -16 -16 -17 -16 -16 -16 -16 -16 -16 -16
-15 -15 -15 -16 -16 -16 -17 -17 -17 -17 -18 -18 -18 -18 -19 -19 -19 -19 -18 -18 -18 -17 -17 -17 -17 -16 -16 -16 -15 -15 -15 -16 -16 -16 -17 -17 -17 -17 -16 -16 -16 -16 -16
-15 -15 -16 -16 -16 -16 -17 -17 -17 -18 -18 -18 -18 -19 -19 -19 -19 -19 -18 -18 -18 -17 -17 -17 -17 -16 -16 -16 -16 -15 -15 -15 -15 -16 -16 -16 -16 -16 -16 -16 -16 -17 -17
-15 -15 -16 -16 -16 -16 -17 -17 -17 -17 -18 -18 -18 -18 -19 -19 -19 -19 -18 -18 -18 -17 -17 -17 -17 -16 -16 -16 -16 -16 -16 -16 -16 -16 -15 -15 -16 -16 -16 -16 -16 -16 -16
-15 -16 -16 -16 -16 -17 -17 -17 -17 -17 -18 -18 -18 -18 -19 -19 -19 -18 -18 -18 -18 -17 -17 -17 -17 -17 -17 -17 -16 -16 -16 -16 -16 -16 -16 -15 -15 -16 -16 -16 -16 -16 -16
-16 -16 -16 -16 -17 -17 -17 -17 -17 -17 -18 -18 -18 -18 -19 -19 -19 -19 -18 -18 -18 -18 -17 -17 -17 -17 -17 -17 -17 -16 -16 -16 -16 -16 -16 -16 -16 -16 -16 -16 -16 -16 -16
-16 -16 -16 -16 -17 -17 -17 -17 -17 -18 -18 -18 -18 -18 -19 -19 -19 -19 -19 -18 -18 -18 -18 -17 -17 -18 -17 -17 -17 -17 -17 -17 -17 -16 -16 -16 -16 -16 -16 -16 -16 -16 -16
-16 -16 -16 -16 -17 -17 -17 -17 -17 -18 -18 -18 -18 -18 -19 -19 -19 -19 -19 -19 -19 -18 -18 -18 -18 -18 -18 -17 -17 -17 -17 -17 -17 -17 -16 -16 -16 -16 -16 -16 -16 -16 -16
-16 -16 -16 -16 -17 -17 -17 -18 -18 -18 -18 -18 -18 -19 -19 -19 -19 -19 -19 -19 -19 -19 -19 -19 -19 -19 -18 -18 -18 -17 -17 -17 -17 -17 -17 -17 -16 -16 -16 -16 -16 -16 -16
-16 -16 -16 -16 -17 -17 -17 -18 -18 -18 -18 -18 -18 -19 -19 -19 -19 -19 -19 -20 -20 -19 -19 -19 -19 -19 -19 -18 -18 -18 -18 -18 -18 -17 -17 -17 -17 -17 -17 -16 -16 -16 -16

GFSGL_700_temp_024.txt.gz
Temp
-4 -4 -4 -4 -5 -5 -5 -6 -6 -7 -8 -9 -10 -11 -11 -11 -11 -11 -11 -12 -12 -12 -12 -12 -12 -12 -12 -13 -13 -14 -13 -13 -12 -11 -11 -10 -9 -9 -9 -9 -9 -8 -8
-5 -5 -5 -5 -5 -6 -6 -8 -9 -10 -10 -10 -11 -12 -12 -12 -12 -12 -12 -12 -12 -13 -13 -13 -13 -14 -13 -13 -13 -13 -13 -14 -15 -14 -12 -12 -11 -11 -11 -10 -10 -9 -9
-5 -5 -5 -5 -6 -7 -8 -9 -10 -10 -11 -11 -12 -13 -13 -13 -13 -13 -13 -14 -15 -15 -14 -14 -14 -14 -14 -13 -13 -13 -13 -13 -14 -14 -13 -13 -13 -12 -12 -11 -11 -11 -11
-5 -6 -6 -6 -7 -9 -10 -10 -11 -12 -13 -13 -13 -14 -14 -14 -14 -14 -14 -14 -14 -14 -14 -14 -14 -14 -14 -14 -14 -14 -14 -14 -14 -14 -14 -13 -14 -13 -13 -13 -12 -12 -12
-6 -6 -7 -8 -9 -10 -12 -12 -12 -12 -13 -13 -14 -14 -15 -15 -15 -15 -15 -15 -15 -15 -15 -15 -15 -15 -15 -15 -15 -15 -15 -15 -15 -14 -14 -14 -14 -14 -14 -13 -13 -13 -13
-7 -8 -9 -10 -11 -12 -12 -13 -13 -13 -14 -14 -15 -15 -15 -15 -15 -15 -15 -15 -15 -15 -15 -15 -15 -15 -15 -15 -15 -15 -15 -15 -15 -15 -15 -14 -14 -14 -14 -14 -14 -14 -13
-9 -9 -10 -11 -12 -13 -13 -14 -14 -14 -15 -15 -15 -15 -15 -16 -15 -16 -16 -16 -16 -16 -16 -16 -16 -16 -16 -15 -15 -15 -15 -15 -16 -16 -15 -15 -15 -15 -15 -15 -15 -15 -14
-9 -11 -11 -12 -13 -14 -14 -14 -15 -15 -15 -15 -15 -16 -16 -16 -16 -16 -16 -16 -16 -16 -16 -16 -16 -16 -16 -16 -16 -15 -16 -15 -16 -16 -16 -15 -15 -15 -16 -15 -15 -15 -15
-11 -11 -12 -13 -14 -14 -14 -15 -15 -15 -15 -16 -16 -16 -16 -16 -16 -17 -17 -16 -16 -16 -16 -16 -16 -16 -16 -16 -16 -16 -16 -15 -16 -16 -16 -16 -16 -15 -15 -16 -16 -16 -15
-11 -12 -13 -14 -15 -15 -15 -15 -15 -16 -16 -16 -16 -16 -16 -17 -17 -17 -17 -17 -17 -17 -17 -17 -17 -17 -17 -17 -16 -16 -16 -16 -16 -17 -17 -17 -16 -16 -16 -16 -16 -16 -16
-12 -13 -14 -15 -15 -15 -15 -15 -15 -16 -16 -16 -16 -16 -17 -17 -17 -17 -17 -18 -17 -17 -17 -17 -17 -17 -17 -17 -16 -16 -16 -16 -17 -17 -17 -17 -16 -16 -15 -15 -16 -16 -16
-13 -14 -15 -15 -15 -15 -16 -16 -16 -16 -16 -16 -17 -17 -17 -17 -18 -18 -18 -18 -18 -18 -18 -18 -17 -17 -17 -16 -16 -16 -16 -17 -17 -17 -16 -16 -16 -16 -15 -15 -16 -16 -16
-13 -14 -15 -15 -15 -16 -16 -16 -16 -16 -16 -17 -17 -17 -18 -18 -18 -18 -18 -18 -19 -18 -18 -18 -17 -17 -17 -16 -16 -16 -16 -17 -16 -16 -16 -16 -15 -15 -15 -15 -16 -16 -16
-14 -14 -15 -15 -16 -16 -16 -16 -16 -17 -17 -17 -17 -18 -18 -18 -18 -18 -19 -18 -19 -18 -18 -18 -17 -17 -17 -16 -16 -16 -16 -17 -16 -16 -16 -16 -16 -15 -15 -15 -16 -16 -17
-14 -15 -15 -15 -16 -16 -16 -16 -17 -17 -17 -17 -18 -18 -18 -18 -18 -19 -19 -19 -18 -18 -18 -17 -17 -17 -17 -17 -16 -16 -16 -16 -16 -16 -16 -16 -16 -16 -16 -15 -16 -16 -17
-14 -15 -15 -16 -16 -16 -16 -16 -16 -17 -17 -17 -18 -18 -18 -18 -19 -19 -19 -19 -18 -18 -18 -17 -17 -17 -17 -17 -17 -16 -16 -16 -16 -16 -17 -16 -16 -16 -16 -16 -16 -16 -16
-15 -15 -15 -15 -16 -16 -16 -16 -17 -17 -17 -17 -18 -18 -18 -18 -19 -19 -19 -18 -18 -18 -18 -17 -17 -17 -17 -16 -16 -16 -16 -16 -16 -16 -16 -16 -16 -16 -16 -16 -16 -16 -16
-16 -15 -15 -16 -16 -16 -16 -17 -17 -17 -17 -18 -18 -18 -18 -18 -19 -19 -19 -18 -18 -18 -18 -17 -17 -17 -17 -16 -16 -16 -16 -15 -16 -16 -16 -16 -16 -16 -16 -16 -16 -16 -16
-16 -15 -16 -16 -16 -16 -16 -17 -17 -17 -17 -17 -18 -18 -18 -18 -18 -18 -18 -18 -18 -18 -17 -17 -17 -17 -17 -16 -16 -16 -15 -15 -15 -15 -15 -15 -15 -16 -16 -16 -16 -16 -16
-16 -16 -16 -16 -16 -16 -16 -17 -17 -17 -17 -17 -18 -18 -18 -18 -18 -18 -19 -18 -18 -18 -17 -17 -17 -17 -17 -17 -16 -16 -16 -16 -16 -15 -15 -15 -15 -15 -16 -16 -16 -16 -16
-16 -16 -16 -16 -16 -16 -17 -17 -17 -17 -17 -18 -18 -18 -18 -18 -18 -18 -18 -18 -18 -18 -17 -17 -17 -17 -17 -17 -16 -16 -16 -16 -16 -16 -16 -16 -16 -15 -16 -16 -16 -16 -16
-15 -16 -16 -16 -16 -16 -17 -17 -17 -17 -18 -18 -18 -18 -18 -18 -18 -18 -19 -19 -18 -18 -18 -18 -17 -18 -18 -17 -17 -17 -16 -16 -16 -16 -16 -16 -16 -16 -16 -16 -16 -16 -16
-16 -16 -16 -16 -16 -16 -17 -17 -17 -17 -18 -18 -18 -18 -18 -18 -19 -19 -19 -19 -18 -18 -18 -18 -18 -18 -18 -17 -17 -17 -17 -17 -17 -16 -16 -16 -16 -16 -16 -16 -16 -16 -16
-15 -16 -16 -16 -16 -16 -17 -17 -17 -18 -18 -18 -18 -18 -18 -19 -19 -19 -19 -19 -19 -19 -19 -19 -19 -19 -18 -18 -18 -17 -17 -17 -17 -17 -17 -16 -16 -16 -16 -16 -16 -16 -16
-16 -16 -16 -16 -16 -16 -17 -17 -18 -18 -18 -18 -18 -18 -18 -19 -19 -19 -19 -19 -19 -19 -19 -19 -19 -19 -19 -18 -18 -18 -18 -17 -17 -17 -17 -17 -17 -17 -16 -16 -16 -16 -16
-16 -16 -16 -16 -16 -17 -17 -17 -18 -18 -18 -18 -18 -18 -19 -19 -19 -19 -19 -19 -20 -20 -19 -19 -19 -19 -19 -19 -19 -18 -18 -18 -18 -18 -17 -17 -17 -17 -17 -17 -17 -17 -16

GFSGL_700_temp_027.txt.gz
Temp
-4 -5 -5 -5 -5 -5 -5 -5 -6 -7 -8 -9 -10 -10 -11 -11 -11 -11 -12 -12 -11 -12 -12 -12 -12 -13 -13 -14 -14 -14 -14 -14 -13 -11 -12 -12 -12 -12 -12 -11 -10 -10 -9
-5 -6 -6 -6 -6 -6 -6 -7 -8 -9 -10 -10 -11 -11 -12 -12 -12 -12 -12 -13 -13 -14 -15 -15 -15 -16 -14 -14 -14 -14 -15 -16 -15 -15 -15 -14 -12 -12 -12 -12 -11 -11 -11
-6 -6 -5 -6 -6 -7 -7 -8 -9 -10 -11 -12 -12 -12 -13 -13 -13 -13 -14 -15 -15 -15 -15 -15 -15 -14 -14 -14 -14 -14 -15 -16 -16 -15 -15 -15 -15 -14 -13 -13 -13 -13 -12
-6 -6 -6 -6 -7 -8 -9 -10 -11 -12 -12 -12 -13 -13 -14 -14 -14 -16 -16 -15 -15 -15 -15 -15 -15 -15 -15 -15 -15 -15 -15 -15 -15 -15 -14 -14 -16 -16 -16 -16 -15 -15 -14
-6 -7 -7 -7 -8 -9 -10 -12 -12 -13 -13 -13 -14 -14 -15 -15 -16 -15 -15 -15 -15 -15 -15 -15 -15 -15 -15 -15 -15 -15 -15 -15 -15 -15 -15 -15 -16 -15 -14 -15 -15 -15 -14
-7 -8 -8 -9 -10 -10 -11 -13 -14 -14 -14 -15 -14 -15 -16 -17 -16 -15 -15 -16 -16 -16 -16 -16 -16 -16 -16 -15 -15 -15 -15 -16 -15 -15 -15 -14 -15 -15 -14 -15 -15 -15 -14
-8 -9 -9 -10 -11 -11 -13 -14 -15 -15 -15 -15 -15 -16 -17 -16 -16 -15 -16 -16 -16 -16 -16 -17 -17 -17 -17 -16 -16 -16 -16 -15 -16 -15 -15 -15 -15 -15 -15 -15 -15 -15 -15
-10 -11 -10 -11 -11 -12 -15 -15 -16 -15 -15 -15 -15 -16 -16 -17 -16 -16 -16 -16 -16 -17 -17 -17 -17 -17 -17 -17 -16 -16 -16 -16 -16 -16 -16 -15 -16 -16 -16 -15 -15 -15 -15
-12 -13 -11 -12 -13 -13 -15 -15 -15 -15 -15 -15 -16 -16 -16 -16 -17 -17 -17 -17 -17 -17 -17 -17 -17 -17 -17 -17 -17 -17 -17 -16 -16 -16 -16 -16 -16 -17 -17 -17 -16 -16 -15
-13 -14 -14 -14 -14 -15 -15 -15 -15 -15 -16 -15 -16 -16 -16 -17 -17 -17 -17 -17 -17 -17 -17 -18 -18 -18 -18 -18 -18 -17 -17 -17 -17 -17 -17 -17 -17 -16 -17 -16 -16 -16 -15
-13 -13 -14 -14 -15 -15 -15 -15 -16 -17 -15 -16 -16 -16 -17 -17 -17 -17 -18 -18 -18 -18 -18 -18 -18 -19 -18 -18 -18 -17 -17 -17 -17 -17 -17 -17 -17 -17 -16 -16 -16 -16 -15
-13 -14 -15 -14 -14 -15 -15 -16 -17 -16 -16 -16 -16 -17 -17 -17 -18 -18 -18 -18 -19 -18 -18 -18 -18 -18 -18 -18 -17 -17 -17 -17 -17 -17 -17 -17 -17 -17 -17 -16 -16 -16 -17
-13 -14 -15 -14 -15 -15 -15 -16 -16 -16 -16 -16 -17 -17 -17 -18 -18 -18 -18 -19 -19 -19 -19 -19 -18 -18 -18 -18 -17 -17 -17 -17 -17 -17 -17 -16 -16 -16 -16 -16 -16 -16 -16
-14 -14 -14 -15 -15 -15 -15 -16 -16 -16 -16 -16 -17 -17 -17 -18 -18 -18 -18 -18 -19 -19 -18 -18 -18 -18 -18 -18 -18 -17 -17 -17 -17 -17 -17 -17 -16 -16 -16 -16 -16 -16 -17
-14 -14 -15 -15 -16 -15 -15 -16 -16 -16 -16 -17 -17 -17 -17 -18 -18 -18 -18 -18 -18 -18 -18 -18 -18 -18 -18 -18 -18 -17 -17 -17 -17 -17 -17 -17 -17 -16 -16 -16 -16 -16 -16
-15 -15 -15 -16 -16 -15 -16 -16 -16 -16 -16 -17 -17 -17 -17 -18 -18 -18 -18 -18 -18 -18 -18 -18 -18 -18 -18 -17 -17 -17 -17 -17 -17 -17 -17 -17 -17 -16 -16 -16 -16 -16 -16
-15 -15 -15 -16 -16 -16 -16 -16 -16 -16 -16 -17 -17 -17 -18 -18 -18 -18 -18 -18 -18 -18 -18 -18 -18 -18 -17 -17 -17 -17 -17 -17 -16 -17 -17 -17 -16 -16 -16 -16 -16 -16 -16
-15 -15 -16 -16 -16 -16 -16 -16 -16 -17 -17 -17 -17 -17 -17 -18 -18 -18 -18 -18 -18 -18 -18 -18 -18 -17 -17 -17 -17 -17 -17 -16 -16 -16 -16 -16 -16 -16 -16 -16 -16 -16 -16
-15 -16 -16 -16 -16 -16 -16 -16 -16 -17 -17 -17 -17 -17 -17 -18 -18 -18 -18 -18 -18 -18 -18 -18 -17 -17 -17 -17 -17 -17 -16 -16 -16 -16 -16 -16 -15 -16 -16 -16 -16 -16 -16
-16 -16 -16 -16 -16 -16 -16 -16 -17 -17 -17 -17 -17 -18 -17 -18 -18 -18 -18 -18 -18 -18 -18 -18 -17 -17 -17 -18 -17 -16 -16 -16 -16 -16 -16 -16 -15 -15 -15 -15 -16 -16 -16
-15 -15 -16 -16 -16 -16 -16 -16 -17 -17 -17 -17 -17 -18 -18 -18 -18 -18 -18 -18 -18 -18 -18 -18 -17 -17 -17 -18 -17 -17 -16 -16 -16 -16 -16 -16 -16 -16 -16 -16 -16 -16 -16
-15 -15 -16 -16 -16 -16 -16 -16 -17 -17 -17 -17 -18 -18 -18 -18 -18 -18 -18 -19 -19 -18 -18 -18 -18 -18 -18 -18 -18 -17 -17 -17 -16 -16 -16 -16 -16 -16 -16 -16 -16 -16 -16
-15 -15 -16 -16 -16 -16 -16 -16 -17 -17 -17 -18 -18 -18 -18 -18 -18 -18 -19 -19 -19 -19 -19 -19 -19 -19 -19 -19 -18 -17 -17 -17 -17 -17 -16 -16 -16 -16 -16 -16 -16 -16 -16
-16 -16 -16 -16 -16 -16 -16 -17 -17 -17 -18 -18 -18 -18 -18 -18 -18 -19 -19 -19 -19 -19 -19 -19 -19 -19 -19 -19 -19 -18 -18 -17 -17 -17 -17 -17 -16 -16 -16 -16 -16 -16 -16
-16 -16 -16 -16 -16 -16 -16 -17 -17 -17 -17 -18 -18 -18 -18 -18 -19 -19 -19 -19 -19 -19 -19 -19 -20 -19 -19 -19 -19 -19 -18 -18 -18 -18 -17 -17 -17 -17 -17 -16 -16 -16 -16
-16 -16 -16 -16 -16 -16 -16 -17 -17 -17 -18 -18 -18 -18 -19 -19 -19 -19 -19 -19 -19 -19 -19 -20 -20 -19 -19 -19 -19 -19 -19 -18 -18 -18 -18 -17 -17 -17 -17 -17 -17 -17 -17

GFSGL_700_temp_030.txt.gz
Temp
-4 -5 -5 -5 -6 -6 -5 -6 -6 -7 -8 -8 -9 -10 -11 -12 -12 -13 -13 -13 -13 -13 -14 -14 -14 -15 -14 -14 -14 -14 -14 -14 -14 -13 -13 -12 -11 -11 -11 -11 -11 -11 -11
-6 -5 -6 -6 -6 -6 -6 -7 -8 -7 -8 -10 -11 -11 -12 -12 -13 -13 -13 -14 -14 -15 -15 -15 -15 -15 -15 -15 -15 -15 -15 -15 -15 -14 -15 -15 -14 -13 -13 -13 -13 -12 -13
-6 -6 -6 -6 -6 -7 -7 -8 -8 -9 -9 -11 -12 -12 -12 -13 -13 -14 -14 -15 -14 -15 -16 -15 -15 -15 -15 -15 -15 -15 -15 -15 -15 -15 -14 -15 -15 -14 -14 -14 -14 -13 -13
-7 -7 -7 -7 -7 -8 -8 -9 -9 -10 -11 -12 -13 -14 -14 -14 -14 -15 -15 -15 -15 -16 -15 -16 -16 -16 -16 -16 -15 -16 -16 -16 -16 -15 -15 -15 -15 -15 -15 -15 -14 -14 -14
-8 -8 -8 -8 -8 -8 -9 -10 -11 -11 -12 -14 -14 -14 -15 -15 -16 -16 -16 -15 -16 -16 -16 -16 -16 -16 -17 -17 -17 -16 -16 -16 -16 -16 -15 -15 -15 -15 -16 -15 -15 -15 -15
-9 -10 -10 -11 -11 -10 -11 -12 -12 -14 -14 -14 -15 -15 -15 -16 -16 -16 -15 -16 -16 -16 -16 -16 -16 -17 -17 -18 -18 -17 -16 -16 -16 -16 -16 -15 -15 -15 -16 -16 -16 -16 -15
-10 -11 -11 -12 -12 -13 -12 -14 -14 -14 -15 -15 -15 -15 -15 -16 -16 -16 -16 -16 -17 -17 -17 -17 -17 -17 -17 -17 -17 -17 -17 -16 -16 -16 -16 -16 -16 -16 -16 -15 -15 -15 -15
-11 -11 -12 -12 -12 -13 -13 -15 -15 -15 -15 -15 -15 -15 -16 -16 -17 -16 -17 -17 -17 -17 -17 -17 -18 -17 -18 -18 -18 -17 -17 -17 -17 -17 -17 -16 -16 -16 -16 -16 -16 -16 -15
-11 -12 -12 -12 -12 -13 -14 -15 -15 -15 -15 -15 -15 -16 -16 -16 -17 -17 -17 -17 -17 -17 -18 -18 -18 -18 -18 -18 -18 -17 -17 -17 -18 -18 -17 -17 -16 -16 -17 -17 -16 -17 -16
-11 -11 -11 -12 -13 -13 -14 -14 -15 -15 -15 -15 -16 -16 -16 -17 -17 -17 -17 -18 -18 -18 -18 -18 -18 -19 -19 -19 -19 -18 -18 -18 -18 -17 -17 -17 -17 -17 -17 -17 -17 -17 -16
-12 -11 -13 -12 -13 -14 -14 -15 -15 -15 -15 -15 -16 -16 -17 -17 -17 -17 -18 -18 -18 -18 -19 -19 -19 -19 -19 -19 -19 -19 -18 -18 -17 -17 -17 -17 -17 -17 -17 -17 -17 -17 -16
-13 -13 -13 -13 -14 -14 -15 -15 -16 -16 -16 -16 -16 -16 -16 -17 -17 -18 -18 -18 -19 -19 -19 -19 -19 -19 -19 -19 -19 -18 -18 -18 -17 -17 -17 -17 -17 -17 -17 -17 -17 -16 -16
-13 -13 -14 -14 -14 -14 -15 -16 -16 -16 -16 -16 -16 -16 -16 -17 -17 -18 -18 -18 -19 -19 -19 -19 -19 -19 -19 -19 -19 -18 -18 -18 -18 -18 -18 -17 -17 -17 -17 -16 -16 -16 -16
-14 -14 -14 -15 -15 -15 -15 -16 -16 -16 -16 -16 -16 -17 -17 -17 -17 -18 -18 -18 -18 -19 -19 -19 -19 -19 -19 -18 -18 -18 -18 -18 -18 -18 -17 -17 -17 -17 -16 -17 -16 -16 -16
-14 -14 -15 -15 -15 -15 -16 -16 -16 -16 -16 -16 -17 -17 -17 -17 -17 -18 -18 -18 -18 -18 -18 -18 -18 -18 -18 -18 -18 -18 -18 -18 -18 -17 -17 -17 -17 -17 -17 -16 -16 -16 -16
-14 -15 -15 -15 -15 -16 -16 -16 -16 -16 -16 -17 -17 -17 -17 -17 -18 -18 -18 -18 -18 -18 -18 -18 -18 -18 -18 -18 -18 -18 -17 -17 -17 -17 -17 -17 -17 -17 -17 -16 -16 -16 -16
-14 -14 -15 -15 -15 -15 -15 -16 -16 -16 -16 -17 -17 -17 -17 -17 -17 -18 -18 -18 -18 -18 -18 -18 -18 -18 -18 -18 -18 -17 -17 -17 -17 -17 -17 -17 -17 -17 -16 -16 -16 -16 -16
-15 -15 -15 -15 -15 -15 -16 -16 -16 -16 -16 -17 -17 -17 -17 -17 -18 -18 -18 -18 -18 -18 -18 -18 -18 -18 -18 -18 -17 -17 -18 -17 -17 -17 -17 -17 -17 -16 -16 -16 -16 -16 -16
-15 -15 -15 -15 -15 -15 -16 -16 -16 -16 -16 -17 -17 -17 -17 -18 -18 -18 -18 -18 -18 -18 -18 -18 -18 -18 -18 -18 -18 -18 -17 -17 -17 -17 -16 -16 -16 -16 -16 -16 -16 -16 -16
-15 -15 -15 -15 -15 -16 -16 -16 -16 -16 -17 -17 -17 -18 -18 -18 -18 -18 -18 -18 -18 -18 -18 -18 -18 -18 -18 -18 -19 -18 -17 -17 -17 -17 -17 -16 -16 -16 -16 -16 -16 -16 -16
-15 -15 -15 -15 -15 -16 -16 -16 -16 -16 -17 -17 -18 -18 -18 -18 -18 -18 -18 -18 -18 -18 -18 -18 -18 -18 -18 -18 -18 -18 -18 -17 -17 -17 -17 -17 -16 -16 -16 -16 -16 -16 -16
-15 -15 -15 -15 -15 -16 -16 -16 -16 -16 -17 -17 -18 -18 -18 -18 -18 -18 -18 -19 -19 -19 -19 -19 -19 -19 -19 -19 -19 -19 -18 -17 -17 -17 -17 -17 -17 -16 -16 -16 -16 -16 -16
-15 -16 -15 -16 -16 -16 -16 -16 -16 -16 -17 -17 -18 -18 -18 -18 -18 -18 -18 -19 -19 -19 -19 -19 -19 -19 -19 -19 -19 -19 -19 -18 -18 -17 -17 -17 -17 -17 -17 -16 -16 -16 -16
-16 -16 -16 -16 -16 -16 -16 -16 -16 -17 -17 -17 -17 -18 -18 -18 -18 -19 -19 -19 -19 -19 -19 -19 -19 -20 -20 -20 -20 -19 -19 -18 -18 -18 -18 -17 -17 -17 -17 -17 -17 -16 -16
-16 -16 -16 -16 -16 -16 -16 -16 -16 -17 -17 -17 -17 -18 -18 -18 -19 -19 -19 -19 -19 -19 -19 -19 -19 -19 -20 -20 -20 -19 -19 -19 -19 -18 -18 -18 -18 -17 -17 -17 -17 -17 -17
-16 -16 -16 -16 -16 -16 -16 -17 -17 -17 -17 -17 -17 -18 -18 -18 -19 -19 -19 -19 -19 -19 -19 -19 -19 -20 -20 -20 -20 -19 -19 -19 -19 -19 -18 -18 -18 -18 -18 -17 -17 -17 -17

GFSGL_700_temp_033.txt.gz
Temp
-4 -5 -6 -6 -6 -6 -6 -7 -7 -8 -8 -8 -9 -9 -10 -11 -12 -12 -13 -13 -13 -14 -14 -14 -15 -15 -16 -15 -15 -15 -15 -15 -15 -14 -14 -13 -13 -13 -13 -13 -12 -11 -10
-5 -6 -6 -6 -7 -7 -7 -7 -8 -8 -9 -10 -10 -12 -13 -13 -13 -14 -14 -14 -14 -15 -15 -16 -16 -16 -16 -16 -16 -16 -16 -15 -15 -14 -14 -14 -14 -13 -14 -14 -14 -13 -12
-5 -6 -6 -7 -8 -8 -8 -8 -9 -10 -11 -11 -13 -13 -14 -14 -14 -14 -15 -15 -15 -15 -16 -16 -16 -16 -16 -16 -16 -16 -16 -16 -16 -15 -15 -15 -15 -15 -14 -14 -14 -14 -14
-6 -6 -8 -8 -8 -8 -9 -10 -11 -12 -12 -12 -13 -14 -14 -15 -15 -15 -15 -15 -15 -16 -16 -16 -16 -16 -16 -16 -16 -16 -16 -16 -16 -16 -16 -15 -15 -15 -15 -15 -14 -14 -13
-7 -8 -9 -10 -10 -10 -10 -12 -12 -13 -12 -13 -14 -15 -16 -15 -15 -16 -16 -16 -16 -16 -16 -16 -16 -16 -17 -17 -17 -17 -17 -17 -16 -16 -16 -16 -16 -16 -15 -15 -15 -14 -14
-9 -10 -10 -11 -12 -11 -12 -12 -13 -13 -12 -13 -14 -16 -15 -15 -16 -16 -16 -16 -16 -16 -16 -17 -17 -17 -17 -17 -18 -18 -18 -17 -17 -17 -17 -16 -16 -16 -16 -16 -15 -15 -14
-10 -10 -10 -11 -11 -12 -12 -12 -12 -13 -14 -14 -15 -15 -16 -16 -16 -16 -16 -16 -17 -17 -17 -17 -17 -17 -18 -18 -18 -18 -18 -18 -18 -17 -17 -17 -17 -17 -16 -16 -16 -16 -16
-11 -11 -11 -12 -12 -13 -12 -13 -13 -14 -14 -15 -15 -15 -16 -16 -16 -17 -17 -17 -17 -17 -18 -18 -18 -18 -18 -18 -18 -18 -18 -18 -18 -18 -18 -17 -17 -17 -17 -17 -17 -16 -16
-11 -12 -12 -12 -13 -12 -13 -13 -14 -14 -15 -15 -15 -16 -16 -16 -16 -16 -17 -17 -17 -17 -18 -18 -18 -18 -18 -19 -19 -19 -18 -18 -19 -18 -18 -18 -18 -17 -17 -17 -17 -17 -16
-12 -13 -13 -13 -14 -13 -14 -14 -14 -14 -15 -15 -15 -16 -16 -17 -17 -17 -17 -17 -17 -18 -18 -19 -19 -19 -19 -19 -19 -19 -19 -19 -19 -18 -18 -18 -18 -17 -17 -17 -17 -17 -17
-13 -13 -14 -14 -14 -14 -14 -14 -15 -15 -15 -15 -16 -16 -16 -17 -17 -17 -17 -17 -18 -18 -18 -18 -19 -19 -19 -19 -20 -19 -19 -18 -18 -18 -18 -17 -17 -17 -17 -18 -18 -17 -17
-14 -14 -14 -14 -14 -14 -15 -15 -15 -15 -15 -16 -16 -16 -17 -17 -17 -17 -17 -18 -18 -18 -18 -19 -19 -19 -19 -19 -19 -19 -19 -19 -19 -18 -18 -18 -18 -17 -17 -17 -17 -17 -17
-14 -14 -14 -14 -15 -15 -15 -15 -15 -15 -16 -16 -16 -16 -17 -17 -17 -17 -18 -18 -18 -18 -19 -19 -19 -19 -19 -19 -19 -19 -19 -19 -19 -19 -18 -18 -18 -17 -17 -17 -17 -16 -16
-14 -14 -14 -14 -14 -15 -15 -15 -16 -16 -16 -16 -16 -17 -17 -17 -17 -17 -17 -17 -18 -18 -19 -18 -19 -19 -19 -19 -19 -19 -19 -19 -18 -18 -18 -18 -17 -17 -17 -17 -17 -16 -16
-14 -14 -14 -14 -14 -14 -15 -15 -15 -16 -16 -16 -16 -17 -17 -17 -17 -17 -17 -17 -18 -18 -18 -18 -18 -19 -19 -19 -19 -19 -18 -18 -18 -18 -18 -18 -17 -17 -17 -17 -17 -17 -16
-14 -14 -14 -14 -15 -15 -15 -15 -16 -16 -16 -16 -17 -17 -17 -17 -17 -17 -17 -18 -18 -18 -18 -18 -18 -18 -18 -18 -18 -18 -18 -18 -18 -18 -18 -17 -17 -17 -17 -17 -17 -17 -17
-14 -14 -14 -14 -15 -15 -15 -15 -15 -16 -16 -16 -17 -17 -17 -17 -17 -17 -18 -18 -18 -18 -18 -18 -18 -18 -18 -18 -18 -18 -18 -18 -18 -18 -18 -18 -17 -17 -17 -17 -17 -17 -17
-14 -14 -15 -15 -15 -15 -15 -15 -15 -16 -16 -16 -17 -17 -17 -17 -17 -18 -18 -18 -18 -18 -18 -18 -18 -18 -18 -18 -18 -18 -18 -18 -18 -18 -17 -17 -17 -17 -17 -17 -17 -17 -17
-14 -15 -15 -15 -15 -15 -15 -15 -16 -16 -16 -16 -17 -17 -18 -18 -18 -18 -18 -18 -18 -18 -18 -18 -18 -18 -18 -18 -18 -19 -18 -18 -17 -17 -17 -17 -17 -17 -16 -16 -16 -16 -16
-15 -15 -15 -15 -15 -15 -15 -15 -16 -16 -16 -16 -17 -17 -18 -18 -18 -18 -18 -18 -18 -18 -19 -19 -19 -18 -19 -19 -18 -19 -18 -18 -18 -17 -17 -17 -17 -17 -17 -16 -16 -16 -16
-15 -15 -15 -15 -15 -15 -15 -16 -16 -16 -16 -16 -17 -17 -17 -18 -18 -18 -18 -18 -19 -19 -19 -19 -19 -19 -19 -19 -19 -19 -19 -18 -18 -18 -17 -17 -17 -17 -17 -17 -16 -16 -16
-15 -15 -15 -16 -16 -16 -16 -16 -16 -16 -16 -16 -17 -17 -18 -18 -18 -18 -18 -19 -19 -19 -19 -19 -19 -19 -19 -19 -19 -19 -19 -19 -19 -18 -18 -18 -17 -17 -17 -17 -17 -16 -16
-16 -16 -16 -16 -16 -16 -16 -16 -16 -16 -16 -16 -17 -17 -17 -18 -18 -18 -19 -19 -19 -19 -19 -19 -19 -19 -20 -20 -20 -20 -20 -19 -19 -18 -18 -18 -18 -18 -17 -17 -17 -17 -17
-16 -16 -16 -16 -16 -16 -16 -16 -16 -16 -16 -17 -17 -17 -17 -18 -18 -18 -19 -19 -19 -19 -19 -19 -19 -20 -20 -20 -20 -20 -20 -19 -19 -19 -18 -18 -18 -18 -17 -17 -17 -17 -17
-16 -16 -16 -16 -16 -16 -16 -16 -16 -17 -17 -17 -17 -17 -17 -18 -18 -18 -18 -19 -19 -19 -19 -19 -19 -20 -20 -20 -20 -20 -20 -20 -19 -19 -19 -18 -18 -18 -18 -18 -17 -17 -17
-16 -16 -16 -16 -16 -16 -16 -16 -16 -17 -17 -17 -17 -17 -18 -18 -18 -18 -18 -19 -19 -19 -19 -19 -19 -20 -20 -20 -20 -20 -20 -20 -20 -19 -19 -19 -19 -18 -18 -18 -18 -18 -18

GFSGL_700_temp_036.txt.gz
Temp
-5 -5 -5 -6 -7 -7 -7 -8 -8 -8 -9 -10 -10 -10 -11 -11 -12 -13 -14 -14 -14 -15 -15 -15 -15 -15 -16 -16 -16 -16 -16 -16 -15 -15 -15 -14 -14 -14 -14 -14 -14 -13 -12
-4 -5 -6 -7 -7 -7 -8 -8 -9 -10 -11 -12 -12 -12 -12 -12 -12 -13 -14 -14 -15 -15 -16 -16 -16 -16 -16 -17 -16 -16 -16 -16 -16 -15 -15 -15 -15 -15 -14 -14 -15 -15 -14
-5 -6 -6 -8 -9 -9 -8 -10 -10 -11 -11 -12 -12 -12 -12 -13 -14 -14 -15 -15 -16 -16 -16 -16 -16 -16 -16 -16 -16 -16 -16 -16 -16 -16 -16 -16 -15 -15 -15 -15 -15 -14 -15
-6 -7 -8 -9 -10 -10 -10 -11 -11 -12 -12 -12 -13 -13 -13 -14 -15 -15 -15 -16 -16 -16 -16 -16 -16 -16 -16 -17 -17 -16 -16 -16 -16 -16 -16 -16 -16 -16 -16 -15 -15 -15 -15
-8 -9 -9 -10 -10 -11 -11 -12 -12 -12 -13 -12 -14 -14 -14 -15 -15 -15 -15 -16 -16 -16 -16 -16 -17 -17 -17 -17 -17 -17 -17 -17 -17 -17 -17 -17 -17 -17 -17 -16 -15 -15 -15
-10 -10 -11 -11 -11 -12 -12 -13 -13 -13 -13 -14 -14 -14 -15 -15 -15 -15 -16 -16 -16 -16 -16 -17 -17 -17 -17 -18 -18 -18 -18 -18 -18 -18 -17 -17 -17 -17 -17 -17 -16 -16 -15
-10 -10 -10 -11 -12 -13 -13 -14 -14 -13 -14 -15 -15 -15 -15 -15 -15 -15 -16 -16 -16 -16 -17 -17 -17 -18 -18 -18 -18 -18 -18 -18 -18 -18 -18 -17 -17 -17 -17 -17 -16 -16 -16
-10 -10 -11 -12 -13 -13 -14 -14 -13 -13 -14 -15 -15 -15 -16 -16 -16 -16 -16 -16 -17 -17 -17 -18 -18 -18 -18 -18 -19 -19 -19 -19 -19 -19 -18 -18 -18 -17 -17 -17 -17 -17 -16
-11 -12 -13 -14 -14 -14 -14 -14 -14 -14 -14 -15 -15 -16 -16 -16 -16 -16 -16 -17 -17 -17 -17 -18 -18 -18 -19 -19 -19 -19 -19 -19 -20 -19 -19 -18 -18 -18 -18 -18 -17 -17 -16
-12 -13 -14 -14 -13 -14 -14 -14 -14 -14 -15 -15 -16 -16 -16 -16 -16 -16 -17 -17 -16 -17 -17 -18 -18 -18 -18 -19 -19 -19 -19 -19 -19 -19 -19 -19 -19 -18 -18 -18 -17 -17 -18
-13 -13 -13 -14 -14 -14 -15 -14 -15 -16 -16 -16 -16 -16 -16 -16 -16 -17 -17 -17 -17 -17 -17 -18 -18 -18 -19 -19 -19 -20 -19 -19 -19 -19 -19 -18 -18 -18 -18 -18 -18 -18 -17
-13 -13 -13 -14 -14 -14 -14 -14 -15 -15 -16 -16 -16 -16 -16 -16 -17 -17 -17 -17 -17 -17 -18 -18 -18 -19 -19 -19 -19 -19 -20 -20 -20 -19 -19 -19 -19 -18 -18 -18 -18 -18 -17
-13 -13 -14 -14 -14 -14 -14 -14 -15 -15 -16 -16 -16 -16 -16 -17 -17 -17 -17 -17 -17 -17 -18 -18 -18 -19 -19 -19 -19 -19 -19 -20 -20 -20 -19 -19 -19 -18 -18 -18 -18 -17 -17
-13 -13 -13 -14 -14 -14 -14 -15 -15 -15 -16 -16 -16 -16 -16 -17 -17 -17 -17 -17 -17 -18 -18 -18 -18 -18 -19 -19 -19 -19 -19 -19 -19 -19 -19 -18 -18 -18 -18 -18 -18 -17 -17
-13 -13 -13 -14 -14 -14 -15 -15 -15 -15 -16 -16 -16 -16 -17 -17 -17 -17 -17 -17 -17 -18 -18 -18 -18 -18 -18 -18 -19 -18 -19 -19 -19 -18 -18 -18 -18 -18 -18 -17 -17 -17 -17
-13 -13 -14 -14 -14 -15 -15 -15 -15 -15 -16 -16 -16 -16 -17 -17 -17 -17 -17 -17 -18 -18 -18 -18 -18 -18 -18 -18 -18 -18 -18 -19 -18 -18 -18 -18 -18 -18 -18 -17 -17 -17 -17
-13 -13 -14 -14 -15 -15 -15 -15 -16 -16 -16 -16 -16 -17 -17 -17 -17 -18 -18 -18 -18 -18 -18 -18 -18 -18 -18 -18 -18 -18 -18 -18 -18 -18 -18 -18 -18 -18 -17 -17 -17 -17 -17
-13 -14 -14 -15 -15 -15 -15 -15 -15 -15 -16 -16 -16 -16 -17 -17 -17 -18 -18 -18 -18 -18 -18 -18 -18 -18 -18 -18 -19 -19 -19 -18 -18 -18 -18 -18 -18 -18 -17 -17 -17 -17 -17
-14 -14 -15 -15 -15 -15 -15 -15 -15 -16 -16 -16 -16 -16 -17 -17 -18 -18 -18 -18 -18 -18 -18 -19 -19 -19 -19 -19 -19 -19 -19 -18 -18 -18 -18 -18 -18 -18 -17 -17 -17 -17 -17
-14 -15 -15 -15 -16 -15 -15 -16 -16 -16 -16 -16 -16 -17 -17 -17 -17 -18 -18 -18 -18 -18 -19 -19 -19 -19 -19 -19 -19 -19 -19 -19 -18 -18 -18 -18 -17 -17 -17 -17 -17 -17 -17
-15 -15 -15 -16 -16 -16 -16 -16 -16 -16 -16 -16 -16 -17 -17 -17 -18 -18 -18 -18 -18 -18 -19 -19 -19 -19 -19 -19 -19 -19 -19 -19 -19 -18 -18 -18 -18 -17 -17 -17 -17 -17 -16
-15 -15 -16 -16 -16 -16 -16 -16 -16 -16 -16 -16 -17 -17 -17 -17 -17 -18 -18 -18 -19 -19 -19 -19 -19 -19 -19 -20 -20 -20 -19 -19 -19 -19 -19 -18 -18 -17 -17 -17 -17 -17 -17
-16 -16 -16 -16 -16 -16 -16 -16 -16 -16 -16 -17 -17 -17 -17 -17 -17 -18 -18 -18 -18 -19 -19 -19 -19 -19 -19 -19 -20 -20 -20 -20 -20 -19 -19 -18 -18 -18 -18 -18 -17 -17 -17
-16 -16 -16 -16 -16 -16 -16 -17 -17 -17 -17 -17 -17 -17 -17 -17 -18 -18 -18 -18 -18 -19 -19 -19 -19 -19 -19 -19 -20 -20 -20 -20 -20 -19 -19 -19 -19 -18 -18 -18 -18 -17 -17
-16 -16 -16 -16 -16 -16 -16 -16 -16 -17 -17 -17 -17 -17 -17 -17 -18 -18 -18 -18 -18 -19 -19 -19 -19 -19 -20 -20 -20 -20 -20 -20 -20 -20 -20 -20 -19 -19 -18 -18 -18 -18 -18
-16 -16 -16 -17 -17 -16 -16 -16 -17 -17 -17 -17 -17 -17 -17 -18 -18 -18 -18 -18 -18 -18 -19 -19 -19 -19 -20 -20 -20 -20 -20 -20 -20 -20 -20 -20 -19 -19 -19 -19 -18 -18 -18

GFSGL_700_temp_039.txt.gz
Temp
-4 -4 -5 -5 -6 -7 -7 -8 -9 -9 -10 -11 -11 -11 -12 -12 -12 -12 -13 -13 -13 -14 -15 -15 -15 -16 -16 -16 -16 -17 -16 -17 -16 -16 -16 -15 -15 -15 -15 -14 -14 -14 -14
-4 -5 -5 -5 -6 -7 -9 -10 -10 -11 -11 -12 -12 -13 -12 -13 -13 -13 -13 -14 -14 -14 -15 -15 -15 -16 -16 -16 -16 -16 -17 -17 -16 -16 -16 -16 -16 -15 -15 -15 -15 -15 -15
-5 -5 -6 -7 -8 -9 -10 -11 -11 -12 -12 -13 -13 -13 -13 -13 -14 -14 -14 -14 -15 -15 -15 -16 -16 -16 -16 -16 -16 -16 -16 -17 -17 -17 -16 -16 -16 -16 -16 -16 -15 -15 -15
-5 -6 -7 -9 -10 -11 -11 -11 -12 -13 -13 -13 -13 -13 -14 -14 -14 -15 -15 -15 -16 -16 -16 -16 -16 -16 -16 -16 -16 -17 -17 -17 -17 -17 -17 -17 -17 -17 -16 -16 -16 -16 -15
-6 -7 -9 -10 -11 -11 -12 -13 -13 -13 -13 -13 -13 -14 -15 -15 -15 -15 -15 -16 -16 -16 -16 -16 -16 -16 -17 -17 -17 -17 -17 -17 -17 -18 -18 -18 -17 -17 -17 -17 -17 -17 -16
-7 -9 -9 -10 -10 -11 -12 -12 -13 -14 -14 -13 -13 -14 -15 -15 -16 -15 -16 -16 -16 -16 -16 -16 -17 -17 -17 -17 -18 -18 -18 -18 -18 -18 -18 -18 -18 -18 -18 -18 -17 -17 -17
-9 -9 -10 -11 -11 -12 -12 -13 -13 -14 -14 -14 -14 -15 -15 -15 -15 -16 -16 -16 -16 -16 -17 -17 -17 -17 -17 -18 -18 -18 -19 -19 -19 -19 -18 -18 -18 -18 -18 -18 -18 -17 -17
-9 -10 -11 -11 -12 -12 -13 -13 -14 -14 -15 -14 -15 -15 -15 -16 -16 -16 -16 -16 -17 -17 -17 -17 -17 -17 -18 -18 -18 -18 -19 -19 -19 -20 -20 -19 -19 -18 -18 -18 -18 -17 -17
-10 -11 -12 -12 -13 -13 -13 -13 -14 -15 -14 -15 -15 -15 -16 -16 -16 -16 -16 -16 -17 -17 -17 -17 -17 -17 -18 -18 -18 -19 -19 -19 -20 -20 -20 -19 -19 -19 -19 -19 -18 -18 -17
-11 -12 -12 -12 -13 -13 -13 -14 -14 -14 -14 -15 -16 -16 -16 -16 -16 -16 -16 -17 -17 -17 -17 -17 -17 -18 -18 -18 -19 -19 -19 -19 -20 -20 -20 -20 -19 -19 -19 -19 -18 -18 -18
-12 -12 -12 -13 -13 -13 -14 -14 -14 -15 -15 -15 -16 -16 -16 -16 -16 -16 -17 -17 -17 -17 -17 -17 -18 -18 -18 -19 -19 -19 -19 -20 -20 -20 -20 -20 -19 -19 -19 -18 -18 -18 -18
-12 -12 -12 -13 -13 -13 -14 -14 -15 -15 -15 -15 -16 -16 -16 -16 -16 -17 -17 -17 -17 -17 -17 -17 -18 -18 -18 -19 -19 -19 -19 -20 -20 -20 -21 -20 -20 -20 -19 -19 -18 -18 -18
-12 -12 -12 -13 -13 -14 -14 -14 -15 -15 -15 -15 -16 -16 -16 -16 -17 -17 -17 -17 -17 -17 -17 -18 -18 -18 -18 -18 -19 -19 -19 -19 -20 -20 -20 -20 -20 -19 -19 -19 -18 -18 -18
-12 -12 -12 -13 -13 -14 -14 -15 -15 -15 -15 -16 -16 -16 -16 -16 -17 -17 -17 -17 -17 -17 -17 -18 -18 -18 -18 -18 -18 -19 -19 -19 -19 -19 -19 -19 -19 -19 -19 -18 -18 -18 -18
-12 -12 -13 -13 -14 -15 -15 -15 -15 -15 -16 -16 -16 -16 -16 -17 -17 -17 -17 -17 -18 -17 -18 -18 -18 -18 -18 -18 -18 -18 -19 -19 -19 -19 -19 -19 -19 -19 -18 -18 -18 -18 -18
-13 -13 -13 -14 -14 -15 -15 -15 -15 -15 -16 -16 -16 -16 -16 -16 -17 -17 -17 -18 -18 -18 -18 -18 -18 -18 -18 -18 -19 -19 -19 -19 -19 -19 -19 -18 -18 -18 -18 -18 -18 -18 -17
-13 -13 -14 -14 -15 -15 -15 -15 -15 -16 -16 -16 -16 -16 -16 -17 -17 -17 -17 -18 -18 -18 -18 -18 -18 -18 -19 -19 -19 -19 -19 -19 -18 -18 -19 -19 -19 -19 -18 -18 -18 -18 -18
-13 -14 -14 -15 -15 -16 -16 -16 -16 -16 -16 -16 -16 -16 -16 -17 -17 -17 -17 -18 -18 -18 -18 -18 -19 -19 -19 -19 -19 -19 -19 -19 -19 -18 -18 -18 -19 -19 -18 -18 -17 -17 -17
-14 -15 -15 -15 -15 -16 -16 -16 -16 -16 -16 -16 -16 -16 -16 -17 -17 -17 -17 -18 -18 -18 -18 -18 -19 -19 -19 -19 -19 -19 -19 -19 -19 -18 -18 -18 -18 -18 -18 -18 -17 -17 -17
-14 -15 -15 -15 -16 -16 -16 -16 -16 -16 -16 -16 -16 -16 -16 -17 -17 -17 -17 -17 -18 -18 -18 -18 -19 -19 -19 -19 -19 -20 -19 -19 -19 -18 -18 -18 -18 -18 -18 -18 -17 -17 -17
-15 -15 -15 -16 -16 -16 -16 -16 -16 -16 -16 -16 -16 -16 -17 -17 -17 -17 -17 -17 -18 -18 -18 -18 -19 -19 -19 -19 -19 -20 -20 -20 -19 -19 -19 -18 -18 -18 -18 -17 -17 -17 -17
-15 -15 -16 -16 -16 -16 -16 -16 -16 -16 -16 -16 -17 -17 -17 -17 -17 -17 -17 -18 -18 -18 -18 -19 -19 -19 -19 -19 -19 -20 -20 -20 -20 -19 -19 -19 -19 -18 -18 -18 -17 -17 -17
-15 -15 -16 -16 -16 -16 -16 -16 -16 -17 -17 -17 -17 -17 -17 -17 -17 -17 -18 -18 -18 -18 -18 -18 -19 -19 -19 -19 -19 -20 -20 -20 -20 -20 -20 -19 -19 -19 -18 -18 -18 -18 -17
-15 -15 -16 -16 -16 -17 -17 -16 -17 -17 -17 -17 -17 -17 -17 -17 -17 -18 -18 -18 -18 -18 -18 -18 -19 -19 -19 -19 -19 -19 -20 -20 -20 -20 -20 -20 -19 -19 -19 -19 -18 -18 -18
-15 -15 -16 -16 -16 -17 -17 -17 -17 -17 -17 -17 -17 -17 -17 -17 -18 -18 -18 -18 -18 -18 -18 -18 -18 -19 -19 -19 -19 -19 -20 -20 -20 -20 -20 -20 -20 -20 -20 -19 -19 -19 -18
-15 -15 -16 -16 -17 -17 -17 -17 -17 -17 -17 -17 -17 -17 -17 -17 -18 -18 -18 -18 -18 -18 -18 -18 -18 -18 -19 -19 -19 -19 -20 -20 -20 -20 -20 -20 -20 -20 -20 -20 -19 -19 -19

GFSGL_700_temp_042.txt.gz
Temp
-3 -3 -4 -4 -5 -6 -6 -6 -7 -9 -10 -11 -12 -13 -13 -13 -13 -14 -14 -14 -14 -14 -14 -14 -15 -15 -15 -16 -16 -17 -17 -17 -17 -15 -16 -15 -16 -16 -16 -15 -15 -15 -15
-3 -4 -4 -5 -6 -6 -8 -9 -10 -10 -11 -12 -13 -13 -13 -13 -13 -14 -14 -15 -14 -15 -15 -15 -15 -16 -16 -16 -16 -16 -16 -17 -17 -16 -16 -16 -16 -16 -16 -16 -16 -16 -15
-4 -5 -5 -6 -7 -9 -9 -10 -10 -11 -12 -13 -13 -13 -13 -13 -14 -14 -15 -14 -15 -15 -15 -15 -16 -16 -16 -16 -16 -16 -16 -17 -17 -17 -17 -17 -17 -17 -17 -17 -16 -16 -16
-5 -6 -6 -7 -8 -8 -9 -10 -11 -12 -12 -13 -13 -13 -14 -14 -14 -14 -14 -15 -16 -16 -16 -16 -16 -16 -16 -16 -16 -17 -17 -17 -17 -18 -17 -17 -17 -17 -18 -17 -17 -17 -16
-6 -6 -7 -8 -8 -9 -10 -10 -11 -12 -12 -13 -13 -14 -14 -14 -15 -15 -15 -15 -16 -16 -16 -16 -17 -17 -17 -17 -17 -17 -17 -18 -18 -18 -18 -18 -18 -18 -18 -18 -18 -17 -17
-6 -7 -8 -9 -9 -10 -11 -11 -12 -13 -13 -13 -14 -15 -14 -14 -15 -15 -15 -16 -16 -16 -16 -17 -17 -17 -17 -17 -17 -18 -18 -18 -18 -19 -19 -19 -19 -19 -19 -19 -18 -18 -17
-7 -8 -9 -9 -10 -11 -12 -12 -13 -13 -13 -14 -14 -14 -14 -15 -15 -15 -16 -16 -16 -16 -17 -17 -17 -17 -17 -17 -17 -18 -18 -19 -19 -19 -19 -19 -19 -20 -19 -19 -18 -18 -18
-8 -9 -10 -10 -11 -12 -12 -12 -13 -13 -13 -14 -14 -14 -15 -15 -15 -16 -16 -16 -16 -17 -17 -17 -17 -17 -17 -17 -18 -18 -18 -19 -19 -20 -20 -20 -20 -20 -20 -19 -19 -19 -18
-9 -10 -10 -11 -11 -12 -12 -13 -13 -13 -14 -14 -14 -15 -15 -16 -16 -16 -16 -16 -16 -17 -17 -17 -17 -17 -17 -18 -18 -18 -19 -19 -20 -20 -20 -20 -20 -20 -20 -20 -19 -19 -18
-10 -11 -11 -11 -12 -12 -13 -13 -13 -14 -14 -15 -15 -15 -16 -16 -16 -16 -16 -16 -17 -17 -17 -17 -17 -17 -18 -18 -18 -19 -19 -19 -20 -20 -20 -20 -20 -20 -20 -20 -19 -19 -18
-11 -11 -11 -12 -12 -12 -13 -13 -13 -14 -15 -15 -16 -16 -16 -16 -16 -16 -16 -17 -17 -17 -17 -17 -17 -18 -18 -18 -19 -19 -19 -19 -20 -20 -20 -21 -20 -20 -20 -19 -19 -19 -19
-11 -12 -12 -12 -12 -13 -13 -14 -14 -14 -15 -15 -16 -16 -16 -16 -16 -16 -16 -17 -17 -18 -18 -17 -18 -18 -18 -18 -18 -19 -19 -19 -19 -20 -20 -20 -20 -20 -20 -20 -19 -19 -19
-12 -12 -12 -12 -13 -13 -13 -14 -14 -15 -15 -16 -16 -16 -16 -16 -16 -16 -17 -17 -18 -18 -18 -18 -18 -18 -18 -18 -18 -18 -19 -19 -19 -19 -20 -20 -20 -20 -19 -19 -19 -19 -18
-12 -12 -13 -13 -13 -13 -14 -14 -15 -15 -16 -16 -16 -16 -16 -16 -16 -16 -17 -17 -17 -18 -18 -18 -18 -18 -18 -18 -18 -18 -19 -19 -19 -19 -19 -19 -19 -19 -19 -19 -19 -19 -18
-12 -13 -13 -13 -14 -14 -14 -15 -15 -15 -16 -16 -16 -16 -16 -16 -16 -16 -17 -17 -17 -18 -18 -18 -18 -18 -18 -18 -19 -19 -19 -19 -19 -19 -19 -19 -19 -19 -19 -19 -19 -18 -18
-13 -13 -13 -13 -14 -14 -15 -15 -16 -16 -16 -16 -16 -16 -16 -16 -16 -16 -17 -17 -17 -18 -18 -18 -18 -18 -18 -19 -19 -19 -19 -19 -19 -19 -19 -19 -19 -19 -19 -18 -18 -18 -18
-13 -13 -14 -14 -15 -15 -15 -15 -16 -16 -16 -16 -16 -16 -16 -16 -16 -16 -17 -17 -17 -18 -18 -18 -18 -18 -18 -19 -19 -19 -19 -19 -19 -19 -19 -19 -19 -19 -19 -18 -18 -18 -18
-13 -14 -14 -14 -15 -15 -15 -16 -16 -16 -16 -16 -16 -16 -16 -16 -16 -17 -17 -17 -17 -17 -18 -18 -18 -18 -19 -19 -19 -19 -20 -19 -19 -19 -19 -19 -19 -19 -19 -19 -18 -18 -17
-14 -14 -14 -15 -15 -15 -16 -16 -16 -16 -16 -16 -16 -16 -16 -16 -16 -17 -17 -17 -17 -17 -18 -18 -18 -18 -19 -19 -19 -19 -19 -19 -19 -19 -19 -18 -18 -18 -19 -18 -18 -17 -17
-14 -14 -15 -15 -16 -16 -16 -16 -16 -16 -16 -16 -17 -17 -17 -17 -17 -17 -17 -17 -17 -17 -18 -18 -18 -18 -19 -19 -19 -19 -19 -19 -20 -19 -19 -19 -18 -18 -18 -18 -18 -18 -17
-14 -15 -15 -15 -16 -16 -16 -16 -16 -16 -16 -17 -17 -17 -17 -17 -17 -17 -17 -17 -17 -18 -18 -18 -18 -18 -19 -19 -19 -19 -19 -20 -20 -20 -19 -19 -19 -18 -18 -18 -18 -18 -18
-15 -15 -15 -15 -16 -16 -16 -17 -17 -17 -17 -17 -17 -17 -17 -17 -17 -17 -17 -17 -17 -18 -18 -18 -18 -18 -19 -19 -19 -19 -19 -19 -20 -20 -19 -19 -19 -19 -19 -18 -18 -18 -18
-15 -15 -15 -15 -16 -16 -16 -17 -17 -17 -17 -17 -17 -17 -17 -17 -17 -17 -17 -17 -18 -18 -18 -18 -18 -18 -18 -19 -19 -19 -19 -19 -20 -20 -20 -20 -20 -19 -19 -19 -19 -18 -18
-15 -15 -15 -15 -16 -16 -16 -17 -17 -17 -17 -17 -17 -17 -17 -17 -17 -17 -18 -18 -18 -18 -18 -18 -18 -18 -18 -19 -19 -19 -19 -19 -20 -20 -20 -20 -20 -20 -20 -20 -19 -19 -19
-15 -15 -15 -16 -16 -16 -17 -17 -17 -17 -17 -17 -17 -17 -17 -17 -17 -17 -18 -18 -18 -18 -18 -18 -19 -18 -18 -19 -19 -19 -19 -19 -20 -20 -20 -20 -20 -20 -20 -20 -20 -20 -19
-16 -16 -16 -16 -16 -17 -17 -17 -17 -17 -17 -17 -17 -17 -17 -17 -17 -18 -18 -18 -19 -19 -19 -19 -19 -19 -19 -19 -19 -19 -19 -20 -20 -20 -20 -20 -20 -20 -20 -20 -20 -20 -20

GFSGL_700_temp_045.txt.gz
Temp
-3 -4 -4 -5 -5 -5 -6 -6 -7 -8 -9 -10 -11 -12 -12 -13 -13 -14 -14 -15 -15 -15 -15 -15 -15 -15 -15 -15 -16 -16 -16 -16 -16 -16 -16 -16 -16 -16 -16 -16 -16 -15 -15
-4 -5 -5 -5 -5 -6 -7 -8 -8 -9 -9 -10 -11 -12 -13 -13 -14 -14 -14 -14 -14 -15 -15 -15 -15 -15 -16 -16 -16 -16 -16 -17 -17 -16 -16 -16 -16 -16 -16 -16 -17 -16 -16
-4 -5 -5 -6 -7 -7 -7 -8 -9 -9 -10 -11 -12 -12 -13 -13 -14 -14 -14 -14 -15 -15 -15 -15 -16 -16 -16 -16 -16 -17 -17 -17 -17 -17 -16 -17 -17 -17 -17 -17 -17 -17 -17
-5 -6 -6 -6 -7 -8 -8 -9 -9 -10 -11 -12 -12 -13 -13 -14 -14 -14 -14 -15 -15 -15 -15 -16 -16 -16 -16 -17 -17 -17 -17 -17 -17 -17 -17 -17 -18 -18 -18 -18 -18 -17 -17
-6 -6 -6 -7 -8 -8 -9 -10 -10 -11 -12 -12 -13 -13 -13 -14 -14 -14 -15 -15 -16 -15 -16 -16 -16 -17 -17 -17 -17 -17 -17 -18 -18 -18 -18 -18 -18 -18 -19 -19 -18 -18 -18
-6 -6 -7 -8 -9 -9 -10 -10 -11 -12 -12 -13 -13 -13 -13 -14 -14 -15 -15 -15 -15 -15 -16 -16 -17 -17 -17 -17 -17 -17 -18 -18 -18 -19 -19 -19 -19 -19 -19 -19 -19 -19 -18
-7 -7 -8 -9 -9 -10 -10 -11 -11 -12 -13 -13 -13 -14 -14 -14 -15 -15 -15 -15 -15 -16 -16 -16 -17 -17 -17 -17 -17 -18 -18 -19 -19 -19 -20 -20 -20 -20 -20 -20 -20 -20 -19
-7 -8 -9 -9 -10 -11 -11 -11 -12 -12 -13 -13 -14 -14 -15 -15 -15 -15 -15 -16 -16 -16 -17 -17 -17 -17 -17 -17 -17 -18 -18 -18 -19 -19 -20 -20 -20 -20 -20 -20 -20 -20 -20
-8 -9 -9 -10 -11 -11 -12 -12 -12 -12 -13 -13 -14 -15 -15 -15 -15 -15 -15 -16 -16 -16 -17 -17 -17 -17 -17 -17 -18 -18 -18 -19 -19 -20 -20 -20 -20 -20 -20 -21 -21 -20 -20
-9 -9 -10 -11 -11 -12 -12 -12 -12 -13 -13 -14 -14 -15 -15 -15 -15 -15 -15 -16 -16 -17 -17 -17 -17 -17 -17 -18 -18 -18 -18 -18 -19 -19 -20 -20 -21 -21 -20 -20 -20 -20 -20
-9 -10 -11 -11 -12 -12 -12 -13 -13 -13 -14 -14 -15 -16 -16 -16 -16 -15 -16 -16 -16 -17 -17 -17 -18 -17 -18 -18 -18 -18 -18 -18 -19 -19 -20 -20 -20 -20 -20 -20 -20 -20 -19
-10 -11 -11 -12 -12 -12 -13 -13 -13 -14 -14 -15 -15 -16 -16 -16 -16 -16 -16 -16 -17 -17 -17 -18 -18 -18 -18 -18 -18 -18 -18 -19 -19 -19 -19 -20 -20 -20 -20 -20 -20 -19 -19
-11 -11 -12 -12 -12 -13 -13 -13 -14 -14 -15 -15 -15 -16 -16 -16 -16 -16 -16 -16 -17 -17 -18 -18 -18 -18 -18 -18 -18 -18 -18 -19 -19 -19 -19 -19 -19 -20 -19 -19 -19 -19 -18
-11 -12 -12 -12 -13 -13 -13 -14 -14 -15 -15 -16 -16 -16 -16 -16 -16 -16 -16 -16 -17 -17 -17 -18 -18 -18 -18 -18 -18 -19 -19 -19 -19 -19 -19 -19 -19 -19 -19 -19 -19 -19 -18
-12 -13 -13 -13 -13 -14 -14 -14 -15 -15 -15 -16 -16 -16 -16 -16 -16 -16 -16 -16 -17 -17 -17 -18 -18 -18 -18 -19 -19 -19 -19 -19 -19 -19 -19 -19 -19 -19 -19 -19 -19 -19 -19
-13 -13 -13 -13 -14 -14 -14 -15 -15 -15 -16 -16 -16 -16 -16 -16 -16 -16 -16 -17 -17 -17 -17 -18 -18 -18 -18 -18 -19 -19 -19 -19 -19 -19 -19 -19 -19 -19 -19 -19 -19 -19 -18
-13 -13 -13 -14 -14 -14 -15 -15 -15 -16 -16 -16 -16 -16 -16 -16 -16 -16 -16 -17 -17 -17 -17 -17 -18 -18 -18 -18 -19 -19 -19 -19 -20 -20 -19 -19 -19 -19 -19 -19 -19 -18 -18
-13 -13 -14 -14 -14 -15 -15 -15 -15 -16 -16 -16 -16 -16 -16 -16 -16 -17 -17 -17 -17 -17 -17 -17 -18 -18 -18 -18 -19 -19 -19 -19 -19 -20 -19 -19 -19 -19 -19 -19 -18 -18 -18
-13 -14 -14 -14 -15 -15 -15 -16 -16 -16 -16 -16 -16 -16 -16 -17 -17 -17 -17 -17 -17 -17 -17 -18 -18 -18 -18 -18 -19 -19 -19 -19 -19 -19 -19 -19 -19 -19 -19 -19 -19 -18 -18
-14 -14 -14 -14 -15 -15 -16 -16 -16 -16 -16 -16 -16 -17 -17 -17 -17 -17 -17 -17 -17 -17 -17 -18 -18 -18 -18 -18 -18 -19 -19 -19 -19 -19 -19 -19 -19 -19 -19 -19 -18 -18 -18
-14 -15 -15 -15 -15 -15 -16 -16 -16 -16 -16 -17 -17 -17 -17 -17 -17 -17 -17 -17 -17 -17 -18 -18 -18 -18 -18 -18 -18 -19 -19 -19 -19 -19 -19 -19 -19 -19 -19 -19 -18 -18 -18
-15 -15 -15 -15 -15 -15 -16 -16 -16 -17 -17 -17 -17 -17 -17 -17 -17 -17 -17 -17 -17 -18 -18 -18 -18 -18 -18 -18 -18 -19 -19 -19 -19 -19 -19 -19 -19 -19 -19 -19 -19 -18 -18
-15 -15 -15 -15 -15 -16 -16 -17 -17 -17 -17 -17 -17 -17 -17 -17 -17 -17 -17 -17 -17 -18 -18 -18 -18 -18 -18 -18 -18 -18 -19 -19 -19 -19 -19 -19 -20 -20 -20 -19 -19 -19 -19
-16 -16 -16 -16 -16 -16 -16 -16 -17 -17 -17 -17 -17 -17 -17 -17 -17 -17 -17 -18 -18 -18 -18 -18 -19 -19 -19 -18 -18 -18 -19 -19 -19 -19 -19 -19 -20 -20 -20 -20 -20 -20 -20
-16 -16 -16 -16 -16 -16 -17 -17 -17 -17 -17 -17 -17 -17 -17 -17 -17 -17 -17 -18 -18 -18 -18 -19 -19 -19 -19 -19 -19 -19 -19 -19 -19 -19 -20 -20 -20 -20 -20 -20 -20 -20 -20
-17 -17 -17 -17 -17 -17 -17 -17 -17 -17 -17 -17 -17 -17 -17 -17 -17 -17 -17 -18 -18 -18 -19 -19 -19 -19 -19 -19 -19 -19 -19 -19 -19 -20 -20 -20 -20 -20 -20 -20 -20 -20 -20

GFSGL_700_temp_048.txt.gz
Temp
-2 -3 -3 -4 -5 -5 -5 -5 -6 -7 -7 -8 -9 -9 -10 -11 -12 -12 -12 -13 -13 -14 -14 -14 -14 -15 -15 -15 -17 -17 -17 -18 -18 -18 -18 -18 -17 -18 -18 -18 -17 -17 -17
-3 -4 -5 -5 -5 -5 -6 -6 -7 -7 -8 -9 -9 -10 -11 -11 -12 -13 -13 -14 -14 -14 -14 -15 -15 -15 -15 -15 -16 -17 -18 -18 -19 -19 -17 -19 -19 -19 -19 -19 -17 -17 -18
-4 -5 -5 -5 -5 -6 -6 -7 -8 -8 -9 -10 -10 -11 -11 -12 -12 -13 -13 -13 -14 -14 -15 -15 -15 -15 -15 -16 -16 -16 -17 -17 -17 -17 -16 -17 -18 -18 -19 -18 -18 -17 -18
-5 -5 -6 -6 -6 -6 -7 -8 -9 -9 -10 -10 -11 -12 -12 -13 -13 -13 -14 -14 -14 -15 -15 -15 -15 -16 -16 -16 -16 -17 -17 -17 -17 -17 -17 -17 -18 -19 -19 -19 -19 -20 -19
-6 -6 -6 -6 -6 -7 -8 -9 -10 -10 -11 -11 -11 -12 -13 -13 -13 -14 -14 -14 -15 -15 -15 -15 -16 -16 -16 -17 -17 -17 -17 -17 -17 -18 -18 -18 -18 -19 -21 -20 -20 -20 -20
-6 -6 -6 -7 -7 -8 -9 -10 -10 -11 -11 -11 -12 -13 -13 -13 -14 -14 -14 -15 -15 -15 -15 -16 -16 -16 -17 -17 -17 -17 -17 -17 -18 -18 -18 -19 -20 -20 -20 -20 -20 -21 -20
-6 -6 -7 -7 -8 -9 -10 -10 -11 -11 -11 -12 -12 -13 -13 -14 -14 -15 -15 -15 -15 -15 -16 -16 -16 -17 -17 -17 -17 -17 -17 -18 -18 -19 -19 -19 -20 -20 -20 -20 -20 -20 -20
-7 -7 -7 -8 -9 -9 -10 -11 -11 -12 -12 -12 -13 -13 -14 -14 -15 -15 -15 -15 -15 -16 -16 -16 -17 -17 -17 -17 -17 -17 -18 -18 -19 -19 -19 -19 -20 -20 -20 -20 -20 -20 -20
-7 -8 -8 -9 -9 -10 -11 -11 -12 -12 -12 -13 -13 -14 -14 -15 -15 -15 -15 -15 -15 -16 -16 -16 -17 -17 -17 -17 -17 -17 -18 -18 -18 -19 -19 -19 -20 -20 -21 -20 -20 -20 -20
-8 -8 -9 -9 -10 -11 -11 -12 -12 -12 -13 -13 -13 -14 -15 -15 -15 -15 -16 -16 -16 -16 -16 -17 -17 -17 -17 -17 -17 -18 -18 -18 -18 -19 -19 -19 -20 -20 -20 -20 -20 -20 -20
-8 -9 -9 -10 -11 -11 -12 -12 -12 -13 -13 -13 -14 -14 -15 -16 -16 -16 -16 -16 -16 -16 -16 -17 -17 -17 -18 -18 -18 -18 -18 -18 -18 -19 -19 -19 -20 -20 -20 -20 -20 -20 -19
-9 -9 -10 -11 -11 -12 -12 -13 -13 -13 -13 -14 -14 -15 -15 -16 -16 -16 -16 -16 -16 -16 -16 -17 -17 -17 -18 -18 -18 -18 -18 -18 -19 -19 -19 -19 -19 -20 -20 -20 -20 -19 -19
-9 -10 -11 -11 -12 -13 -13 -13 -13 -14 -14 -14 -15 -15 -16 -16 -16 -16 -16 -16 -16 -16 -17 -17 -17 -17 -18 -18 -18 -18 -18 -18 -19 -19 -19 -19 -19 -19 -19 -19 -19 -19 -19
-10 -11 -12 -12 -13 -13 -13 -13 -14 -14 -14 -15 -15 -15 -16 -16 -16 -16 -16 -16 -16 -16 -17 -17 -17 -17 -18 -18 -18 -18 -19 -19 -19 -19 -19 -19 -19 -19 -19 -19 -19 -19 -18
-11 -12 -12 -13 -13 -13 -14 -14 -14 -14 -15 -15 -15 -15 -16 -16 -16 -16 -16 -16 -16 -16 -17 -17 -17 -17 -18 -18 -18 -18 -19 -19 -19 -19 -19 -19 -19 -19 -19 -19 -19 -19 -19
-12 -13 -13 -13 -13 -13 -14 -14 -14 -15 -15 -15 -15 -16 -16 -16 -16 -16 -16 -16 -16 -17 -17 -17 -17 -17 -18 -18 -18 -18 -19 -19 -19 -19 -19 -19 -19 -19 -19 -19 -19 -19 -19
-13 -13 -13 -13 -14 -14 -14 -14 -15 -15 -15 -15 -15 -16 -16 -16 -16 -16 -16 -16 -16 -17 -17 -17 -17 -17 -17 -18 -18 -18 -18 -19 -19 -19 -19 -19 -19 -19 -19 -19 -19 -19 -19
-13 -13 -13 -14 -14 -14 -14 -15 -15 -15 -15 -16 -16 -16 -16 -16 -16 -16 -17 -17 -17 -17 -17 -17 -17 -17 -17 -18 -18 -18 -18 -19 -19 -19 -19 -19 -19 -19 -19 -19 -19 -19 -18
-14 -14 -14 -14 -14 -15 -15 -15 -15 -15 -16 -16 -16 -16 -16 -16 -16 -17 -17 -17 -17 -17 -17 -17 -17 -17 -18 -18 -18 -18 -18 -18 -19 -19 -19 -19 -19 -19 -19 -19 -19 -19 -18
-14 -14 -14 -14 -15 -15 -15 -15 -15 -16 -16 -16 -16 -17 -17 -16 -16 -17 -17 -17 -17 -17 -17 -17 -18 -18 -18 -18 -18 -18 -18 -18 -18 -19 -19 -19 -19 -19 -19 -19 -19 -18 -19
-15 -15 -15 -15 -15 -15 -15 -15 -16 -16 -16 -17 -17 -17 -17 -17 -17 -17 -17 -17 -17 -17 -17 -18 -18 -18 -18 -18 -18 -18 -18 -18 -18 -19 -19 -19 -19 -19 -19 -19 -19 -19 -18
-15 -15 -15 -16 -15 -16 -16 -16 -16 -16 -17 -17 -17 -17 -17 -17 -17 -17 -17 -17 -17 -17 -18 -18 -18 -18 -18 -18 -18 -18 -18 -18 -18 -19 -19 -19 -19 -19 -19 -19 -19 -19 -19
-16 -16 -16 -16 -16 -16 -16 -16 -16 -17 -17 -17 -17 -17 -17 -17 -17 -17 -17 -17 -17 -17 -18 -18 -18 -18 -18 -18 -18 -18 -18 -18 -18 -19 -19 -19 -19 -19 -20 -20 -20 -19 -19
-16 -16 -17 -17 -17 -17 -17 -17 -17 -17 -17 -17 -17 -17 -17 -17 -17 -17 -17 -17 -17 -17 -18 -18 -18 -18 -18 -19 -19 -19 -19 -18 -18 -19 -19 -19 -19 -19 -20 -20 -20 -20 -20
-16 -17 -17 -17 -17 -17 -17 -17 -17 -17 -17 -17 -17 -17 -17 -17 -17 -17 -17 -17 -17 -17 -18 -18 -18 -19 -19 -19 -19 -19 -19 -19 -19 -19 -19 -19 -19 -20 -20 -20 -20 -20 -20
-17 -17 -17 -17 -18 -18 -18 -18 -18 -17 -17 -18 -18 -18 -18 -18 -18 -18 -18 -18 -18 -18 -18 -18 -18 -19 -19 -19 -19 -19 -19 -19 -19 -19 -19 -19 -19 -20 -20 -20 -20 -20 -20

GFSGL_700_temp_051.txt.gz
Temp
-2 -2 -3 -3 -4 -4 -5 -5 -5 -5 -6 -7 -7 -8 -9 -9 -10 -11 -11 -12 -12 -13 -13 -13 -14 -14 -14 -14 -15 -16 -17 -17 -17 -17 -17 -17 -17 -18 -18 -18 -18 -18 -17
-2 -2 -2 -3 -4 -5 -5 -5 -6 -6 -7 -8 -8 -9 -9 -10 -11 -11 -12 -12 -13 -13 -13 -14 -14 -15 -15 -15 -16 -17 -17 -17 -17 -17 -18 -18 -18 -18 -18 -18 -18 -19 -18
-2 -3 -3 -4 -5 -6 -6 -6 -6 -7 -8 -8 -9 -9 -10 -11 -11 -12 -12 -13 -13 -13 -14 -14 -14 -15 -15 -15 -16 -16 -16 -17 -17 -18 -18 -19 -17 -17 -18 -18 -18 -19 -19
-3 -4 -4 -5 -6 -6 -6 -6 -7 -8 -8 -9 -9 -10 -11 -11 -12 -12 -13 -13 -13 -14 -14 -14 -15 -15 -15 -15 -16 -16 -16 -17 -17 -17 -17 -17 -17 -17 -18 -19 -19 -19 -19
-4 -4 -6 -6 -6 -6 -6 -7 -8 -8 -9 -10 -10 -11 -11 -12 -12 -13 -13 -14 -14 -15 -15 -15 -15 -15 -15 -16 -16 -16 -17 -17 -17 -17 -17 -17 -18 -18 -19 -20 -20 -20 -19
-5 -6 -6 -6 -6 -7 -7 -8 -8 -9 -10 -10 -11 -12 -12 -13 -13 -14 -14 -15 -15 -15 -15 -15 -15 -16 -16 -16 -16 -16 -17 -17 -17 -17 -18 -18 -18 -19 -19 -19 -19 -19 -19
-6 -7 -7 -7 -7 -8 -8 -9 -9 -10 -10 -11 -12 -12 -13 -14 -14 -15 -15 -15 -16 -15 -15 -15 -15 -16 -16 -16 -17 -17 -17 -17 -17 -18 -18 -18 -19 -20 -20 -20 -20 -20 -19
-7 -8 -8 -7 -8 -8 -9 -9 -10 -11 -11 -12 -12 -12 -13 -15 -14 -15 -15 -15 -16 -15 -15 -15 -16 -16 -16 -17 -17 -17 -17 -17 -18 -18 -18 -18 -19 -19 -19 -20 -20 -20 -19
-8 -9 -8 -8 -8 -9 -9 -10 -11 -11 -12 -12 -13 -13 -13 -14 -14 -15 -16 -16 -16 -16 -16 -16 -16 -16 -17 -17 -17 -17 -17 -17 -18 -18 -18 -18 -19 -19 -20 -20 -20 -20 -19
-10 -10 -9 -8 -9 -9 -10 -11 -12 -12 -12 -12 -13 -14 -14 -15 -15 -15 -16 -16 -16 -16 -16 -16 -16 -16 -17 -17 -17 -17 -17 -18 -18 -18 -18 -19 -19 -19 -20 -20 -20 -20 -19
-10 -9 -9 -9 -9 -10 -11 -11 -12 -12 -12 -13 -13 -14 -14 -15 -15 -15 -16 -16 -16 -16 -16 -16 -16 -16 -17 -17 -17 -17 -18 -18 -18 -18 -18 -19 -19 -19 -19 -20 -20 -20 -19
-10 -9 -9 -10 -10 -11 -11 -12 -13 -13 -13 -13 -14 -14 -15 -15 -15 -15 -16 -16 -16 -16 -16 -16 -16 -16 -17 -17 -17 -17 -18 -18 -18 -18 -19 -19 -19 -19 -19 -19 -20 -19 -19
-9 -9 -10 -11 -11 -12 -12 -13 -13 -13 -14 -14 -14 -14 -15 -15 -16 -15 -16 -16 -16 -16 -16 -16 -16 -16 -17 -17 -17 -17 -18 -18 -19 -19 -19 -19 -19 -19 -19 -19 -19 -18 -19
-10 -10 -11 -11 -12 -12 -13 -13 -13 -14 -14 -14 -14 -14 -15 -15 -16 -16 -16 -16 -16 -16 -16 -16 -16 -16 -17 -17 -17 -17 -18 -18 -19 -19 -19 -19 -19 -19 -19 -19 -19 -18 -18
-10 -11 -11 -12 -12 -13 -13 -13 -14 -14 -14 -15 -15 -15 -15 -15 -16 -16 -16 -16 -16 -16 -16 -16 -16 -17 -17 -17 -17 -18 -18 -18 -19 -19 -19 -19 -19 -19 -19 -19 -19 -19 -18
-11 -12 -12 -13 -13 -13 -13 -13 -14 -14 -15 -15 -15 -15 -15 -16 -16 -16 -16 -16 -16 -17 -17 -17 -17 -17 -17 -17 -17 -17 -18 -18 -19 -19 -19 -19 -19 -19 -19 -19 -19 -19 -19
-12 -12 -13 -13 -14 -14 -14 -14 -14 -14 -15 -15 -15 -15 -16 -16 -16 -16 -16 -16 -17 -17 -17 -17 -17 -17 -17 -17 -17 -17 -18 -18 -18 -19 -19 -19 -19 -19 -19 -19 -19 -19 -19
-12 -13 -13 -14 -14 -14 -14 -14 -15 -15 -15 -15 -15 -15 -16 -16 -16 -16 -16 -17 -17 -17 -17 -17 -17 -17 -17 -17 -17 -17 -18 -18 -18 -18 -19 -19 -19 -19 -19 -19 -19 -19 -19
-13 -13 -14 -14 -15 -15 -15 -15 -15 -15 -15 -15 -16 -16 -16 -16 -16 -16 -17 -17 -17 -17 -17 -17 -17 -17 -17 -17 -17 -17 -18 -18 -18 -18 -19 -19 -19 -19 -19 -19 -19 -19 -19
-14 -14 -15 -15 -15 -15 -15 -15 -15 -16 -16 -16 -16 -16 -17 -17 -17 -16 -17 -17 -17 -17 -17 -17 -17 -17 -17 -18 -18 -18 -18 -18 -18 -18 -18 -19 -19 -19 -19 -19 -19 -18 -18
-14 -15 -16 -16 -16 -16 -16 -16 -16 -16 -16 -16 -16 -17 -17 -17 -17 -17 -17 -17 -17 -17 -17 -18 -18 -18 -18 -18 -18 -18 -18 -18 -18 -18 -18 -18 -19 -19 -19 -19 -19 -19 -18
-15 -16 -16 -16 -16 -16 -16 -16 -17 -17 -17 -17 -17 -17 -17 -17 -17 -17 -17 -17 -18 -17 -17 -17 -18 -18 -18 -18 -18 -18 -18 -18 -18 -18 -18 -19 -19 -19 -19 -19 -19 -19 -19
-16 -15 -16 -16 -16 -16 -16 -17 -17 -17 -17 -17 -17 -18 -18 -18 -17 -17 -17 -17 -17 -18 -18 -18 -18 -18 -18 -18 -18 -18 -19 -19 -18 -18 -18 -19 -19 -19 -19 -19 -19 -19 -19
-16 -16 -16 -17 -17 -17 -17 -17 -17 -18 -18 -18 -18 -18 -18 -18 -18 -18 -17 -17 -17 -18 -18 -18 -18 -18 -18 -18 -18 -19 -19 -19 -19 -19 -19 -19 -19 -19 -19 -19 -19 -20 -20
-17 -18 -17 -17 -18 -18 -17 -17 -18 -18 -18 -18 -18 -18 -18 -18 -18 -18 -18 -18 -18 -18 -18 -18 -18 -18 -18 -18 -19 -19 -19 -19 -19 -19 -19 -19 -19 -19 -19 -19 -20 -20 -20
-18 -17 -18 -18 -18 -18 -18 -18 -18 -18 -18 -18 -18 -18 -18 -18 -18 -18 -18 -18 -18 -18 -18 -18 -18 -18 -18 -18 -19 -19 -19 -19 -19 -19 -19 -19 -19 -19 -19 -20 -20 -20 -20

GFSGL_700_temp_054.txt.gz
Temp
0 -1 -1 -2 -2 -3 -3 -4 -4 -5 -5 -5 -6 -7 -7 -8 -9 -9 -10 -11 -12 -12 -12 -13 -13 -13 -14 -14 -14 -14 -14 -15 -16 -15 -15 -15 -16 -16 -16 -16 -16 -16 -16
-1 -2 -2 -2 -2 -3 -4 -5 -5 -6 -6 -6 -7 -7 -8 -9 -10 -10 -11 -12 -12 -12 -13 -13 -13 -14 -15 -15 -15 -14 -15 -15 -16 -16 -16 -16 -17 -17 -16 -16 -16 -16 -16
-1 -2 -2 -2 -3 -4 -5 -6 -6 -6 -7 -7 -8 -8 -9 -9 -11 -11 -11 -12 -12 -13 -13 -14 -14 -14 -14 -14 -15 -15 -15 -16 -16 -16 -16 -16 -16 -17 -17 -17 -17 -17 -17
-2 -2 -3 -3 -4 -5 -6 -6 -7 -7 -7 -8 -8 -8 -10 -10 -11 -11 -12 -12 -13 -13 -14 -15 -15 -15 -14 -15 -15 -15 -15 -16 -16 -17 -17 -17 -17 -17 -17 -17 -17 -18 -18
-2 -3 -3 -4 -5 -6 -7 -8 -8 -7 -8 -8 -9 -10 -11 -12 -12 -12 -12 -14 -14 -15 -15 -16 -15 -15 -15 -15 -15 -15 -16 -16 -17 -17 -17 -17 -17 -17 -17 -18 -18 -18 -18
-3 -3 -4 -5 -7 -8 -8 -9 -8 -8 -9 -9 -9 -11 -12 -12 -12 -13 -13 -14 -15 -16 -16 -16 -15 -15 -15 -14 -15 -16 -16 -17 -17 -17 -17 -17 -17 -18 -18 -18 -18 -19 -19
-3 -4 -5 -8 -9 -9 -10 -9 -8 -9 -9 -10 -10 -12 -12 -12 -13 -13 -14 -15 -16 -16 -16 -16 -15 -15 -15 -15 -16 -17 -17 -17 -17 -17 -17 -17 -18 -18 -19 -19 -19 -19 -19
-4 -6 -7 -9 -10 -10 -10 -9 -9 -9 -10 -11 -11 -12 -12 -13 -13 -13 -15 -15 -16 -16 -16 -16 -16 -15 -15 -16 -16 -16 -17 -17 -17 -18 -18 -18 -18 -19 -19 -19 -19 -19 -19
-4 -6 -8 -9 -11 -11 -9 -9 -9 -10 -11 -12 -12 -13 -13 -13 -13 -14 -15 -16 -16 -16 -16 -16 -16 -16 -16 -16 -16 -16 -17 -17 -17 -18 -18 -18 -18 -19 -19 -19 -19 -20 -19
-6 -8 -9 -11 -11 -9 -9 -9 -9 -11 -12 -12 -13 -13 -13 -14 -14 -14 -15 -16 -16 -16 -16 -16 -16 -16 -16 -16 -16 -16 -17 -17 -17 -18 -18 -18 -18 -18 -19 -20 -20 -20 -20
-8 -8 -10 -10 -9 -9 -9 -10 -10 -11 -12 -12 -13 -13 -14 -14 -14 -15 -15 -16 -16 -16 -16 -16 -16 -16 -16 -16 -16 -17 -17 -17 -17 -18 -18 -18 -18 -19 -19 -19 -20 -20 -19
-10 -9 -9 -9 -9 -10 -10 -11 -12 -12 -13 -13 -13 -14 -14 -14 -15 -15 -15 -16 -16 -16 -16 -16 -16 -16 -16 -16 -16 -17 -17 -17 -18 -18 -18 -18 -19 -19 -19 -19 -19 -19 -19
-9 -9 -9 -9 -10 -10 -11 -12 -13 -13 -13 -13 -14 -14 -14 -15 -15 -15 -15 -16 -16 -16 -16 -16 -16 -16 -16 -16 -16 -17 -17 -17 -17 -18 -18 -19 -19 -19 -19 -19 -19 -19 -18
-9 -9 -10 -10 -10 -11 -12 -13 -13 -13 -13 -14 -14 -14 -15 -15 -15 -16 -16 -16 -16 -16 -16 -17 -16 -16 -16 -17 -16 -16 -16 -17 -17 -18 -18 -18 -19 -19 -19 -19 -19 -18 -18
-10 -10 -11 -11 -11 -12 -12 -13 -14 -14 -14 -14 -15 -15 -15 -16 -16 -16 -16 -16 -16 -16 -16 -16 -17 -17 -17 -17 -17 -17 -17 -17 -17 -18 -18 -19 -19 -19 -19 -19 -19 -19 -18
-10 -11 -11 -12 -12 -13 -13 -13 -14 -14 -14 -14 -15 -15 -15 -16 -16 -16 -16 -16 -16 -17 -16 -17 -17 -17 -17 -17 -17 -17 -17 -17 -17 -18 -18 -18 -19 -19 -19 -19 -19 -19 -19
-11 -11 -11 -12 -13 -14 -14 -14 -14 -14 -15 -15 -15 -15 -16 -16 -16 -16 -16 -16 -16 -16 -17 -17 -17 -17 -17 -17 -17 -17 -17 -17 -17 -18 -18 -18 -18 -19 -19 -19 -19 -19 -19
-12 -12 -12 -13 -13 -14 -15 -15 -15 -15 -15 -15 -16 -16 -16 -16 -16 -17 -17 -16 -17 -17 -17 -17 -17 -17 -17 -17 -17 -17 -17 -17 -18 -18 -18 -18 -18 -19 -19 -19 -19 -19 -19
-12 -12 -13 -13 -14 -15 -15 -16 -16 -16 -16 -16 -16 -16 -16 -16 -17 -17 -17 -17 -17 -17 -17 -17 -17 -17 -17 -17 -18 -18 -18 -18 -18 -18 -18 -18 -18 -18 -19 -19 -19 -19 -19
-13 -13 -15 -15 -15 -16 -16 -16 -16 -16 -17 -17 -17 -17 -17 -17 -17 -17 -17 -17 -17 -17 -17 -17 -17 -18 -18 -18 -18 -18 -18 -18 -18 -18 -18 -18 -18 -18 -19 -19 -19 -19 -19
-14 -15 -15 -16 -16 -16 -15 -17 -16 -16 -17 -17 -17 -17 -17 -18 -18 -18 -18 -17 -17 -17 -17 -18 -17 -17 -18 -18 -18 -18 -18 -18 -18 -18 -18 -18 -18 -18 -19 -19 -19 -19 -19
-14 -15 -16 -16 -16 -16 -16 -17 -17 -16 -17 -17 -17 -17 -18 -18 -18 -18 -18 -18 -18 -18 -18 -18 -18 -18 -18 -18 -18 -18 -18 -18 -18 -19 -18 -18 -18 -18 -19 -19 -19 -19 -19
-14 -15 -16 -17 -16 -17 -17 -17 -17 -17 -17 -18 -18 -18 -18 -18 -18 -18 -18 -18 -18 -18 -18 -18 -18 -18 -18 -18 -18 -18 -18 -18 -18 -19 -19 -19 -18 -19 -19 -19 -19 -19 -19
-16 -16 -17 -18 -18 -18 -18 -18 -18 -18 -18 -18 -18 -18 -18 -18 -18 -18 -18 -18 -18 -18 -18 -18 -18 -18 -18 -18 -18 -18 -19 -19 -19 -19 -19 -19 -19 -19 -19 -19 -19 -19 -19
-16 -17 -18 -18 -18 -18 -18 -18 -18 -18 -19 -19 -18 -19 -19 -19 -19 -19 -18 -19 -19 -18 -18 -18 -18 -18 -18 -18 -18 -18 -19 -19 -19 -19 -19 -19 -19 -19 -19 -19 -19 -20 -20
-18 -19 -19 -19 -19 -19 -19 -19 -19 -19 -19 -19 -19 -19 -19 -19 -19 -19 -19 -19 -19 -19 -18 -18 -18 -18 -18 -19 -19 -18 -19 -19 -19 -20 -19 -20 -20 -19 -19 -19 -20 -20 -20

GFSGL_700_temp_057.txt.gz
Temp
0 -0 -1 -1 -1 -2 -3 -3 -3 -4 -5 -5 -6 -6 -6 -7 -7 -8 -9 -10 -11 -11 -12 -12 -13 -13 -13 -14 -14 -14 -15 -15 -15 -14 -14 -14 -15 -16 -16 -16 -16 -16 -16
-0 -1 -1 -2 -2 -3 -3 -4 -4 -5 -6 -6 -7 -7 -7 -7 -8 -9 -10 -11 -11 -12 -12 -13 -13 -14 -14 -14 -14 -15 -15 -15 -15 -15 -15 -15 -16 -16 -16 -16 -16 -16 -16
-1 -1 -2 -2 -3 -3 -4 -5 -7 -7 -8 -8 -8 -8 -7 -8 -9 -10 -11 -11 -12 -12 -13 -13 -14 -14 -14 -14 -15 -15 -15 -15 -15 -16 -15 -16 -16 -16 -16 -17 -16 -16 -16
-1 -2 -2 -3 -3 -4 -6 -8 -8 -9 -9 -9 -9 -8 -8 -9 -10 -11 -11 -12 -12 -13 -14 -14 -14 -15 -15 -15 -15 -15 -15 -15 -15 -16 -16 -16 -16 -16 -17 -17 -16 -17 -16
-3 -2 -3 -3 -4 -5 -6 -9 -10 -9 -10 -10 -9 -8 -9 -10 -11 -12 -12 -12 -13 -14 -15 -15 -15 -15 -15 -15 -15 -15 -15 -15 -16 -16 -16 -16 -16 -17 -17 -17 -17 -17 -17
-3 -3 -3 -4 -4 -5 -7 -8 -8 -9 -10 -9 -9 -9 -10 -11 -12 -12 -13 -13 -14 -15 -15 -15 -15 -16 -16 -15 -15 -15 -15 -15 -16 -16 -17 -17 -17 -17 -17 -17 -17 -17 -17
-3 -4 -4 -5 -6 -7 -8 -8 -9 -9 -9 -9 -9 -10 -11 -12 -12 -13 -13 -14 -14 -15 -15 -15 -16 -16 -16 -16 -16 -16 -16 -17 -17 -17 -17 -17 -17 -17 -17 -17 -18 -18 -18
-4 -4 -4 -5 -8 -8 -9 -9 -9 -9 -9 -10 -10 -11 -12 -12 -13 -13 -14 -14 -14 -15 -15 -16 -16 -16 -16 -16 -16 -16 -16 -16 -17 -17 -17 -18 -18 -18 -18 -18 -18 -18 -18
-4 -5 -6 -8 -8 -10 -9 -9 -9 -9 -9 -10 -11 -12 -12 -12 -13 -14 -14 -14 -15 -15 -15 -16 -16 -16 -16 -16 -16 -16 -16 -16 -17 -17 -18 -18 -18 -18 -18 -18 -19 -19 -18
-5 -7 -8 -8 -10 -9 -9 -9 -10 -10 -10 -10 -12 -12 -13 -13 -14 -14 -14 -15 -15 -15 -16 -16 -16 -16 -16 -16 -16 -16 -16 -16 -17 -17 -18 -18 -18 -18 -19 -19 -19 -19 -19
-8 -8 -8 -9 -9 -9 -10 -10 -10 -10 -11 -11 -12 -13 -13 -14 -14 -14 -15 -15 -15 -15 -16 -16 -16 -16 -16 -16 -16 -16 -16 -16 -17 -17 -17 -18 -18 -19 -19 -19 -19 -19 -18
-8 -9 -9 -9 -10 -10 -10 -11 -11 -12 -12 -13 -13 -13 -14 -14 -14 -15 -15 -15 -15 -16 -16 -16 -16 -16 -16 -16 -16 -16 -17 -17 -17 -17 -18 -18 -18 -19 -19 -19 -19 -19 -19
-9 -9 -10 -10 -10 -10 -11 -11 -12 -12 -13 -13 -14 -14 -14 -14 -15 -15 -15 -16 -16 -16 -16 -16 -16 -17 -17 -17 -17 -17 -17 -17 -17 -17 -17 -18 -18 -19 -19 -19 -19 -19 -19
-9 -10 -10 -10 -11 -11 -11 -12 -12 -12 -13 -14 -14 -14 -14 -14 -15 -15 -16 -16 -16 -16 -16 -16 -17 -17 -17 -17 -17 -17 -17 -17 -17 -17 -17 -18 -18 -19 -19 -19 -19 -19 -19
-10 -10 -10 -11 -11 -12 -12 -12 -13 -13 -14 -14 -15 -15 -15 -15 -15 -16 -16 -16 -16 -16 -16 -16 -16 -17 -17 -17 -17 -17 -17 -17 -17 -17 -17 -18 -18 -18 -19 -19 -19 -19 -18
-10 -10 -11 -11 -12 -12 -12 -13 -13 -14 -15 -15 -15 -15 -15 -16 -16 -16 -16 -16 -16 -16 -16 -16 -17 -17 -17 -17 -17 -17 -17 -17 -17 -17 -17 -18 -18 -18 -19 -19 -19 -19 -19
-10 -10 -11 -11 -12 -12 -13 -14 -14 -14 -15 -15 -16 -16 -16 -16 -16 -16 -16 -17 -16 -17 -17 -17 -17 -17 -17 -17 -17 -17 -17 -17 -17 -17 -17 -18 -18 -18 -18 -19 -19 -19 -19
-12 -12 -12 -12 -13 -13 -14 -15 -16 -15 -16 -15 -16 -16 -16 -17 -17 -17 -17 -17 -17 -17 -17 -17 -17 -17 -17 -17 -18 -18 -18 -18 -18 -18 -18 -18 -18 -18 -18 -19 -19 -19 -19
-12 -12 -12 -12 -13 -15 -15 -15 -15 -15 -16 -16 -16 -16 -17 -17 -17 -17 -18 -18 -18 -17 -17 -17 -17 -17 -17 -17 -18 -18 -18 -18 -18 -18 -18 -18 -18 -18 -18 -18 -19 -19 -19
-11 -12 -13 -13 -14 -14 -15 -16 -15 -16 -16 -16 -16 -16 -17 -17 -17 -18 -18 -18 -18 -18 -18 -18 -18 -18 -17 -17 -18 -18 -18 -18 -18 -18 -18 -18 -18 -18 -18 -18 -19 -19 -19
-12 -12 -13 -14 -14 -15 -16 -16 -16 -17 -17 -17 -17 -17 -17 -18 -18 -18 -18 -18 -18 -18 -18 -18 -18 -18 -18 -18 -18 -18 -18 -18 -18 -18 -19 -18 -18 -18 -18 -18 -19 -19 -19
-13 -13 -14 -15 -15 -16 -17 -17 -17 -18 -18 -18 -17 -17 -18 -18 -18 -18 -18 -18 -18 -18 -18 -18 -18 -18 -18 -18 -18 -18 -18 -18 -18 -19 -19 -19 -19 -19 -19 -19 -19 -19 -19
-14 -15 -15 -16 -16 -17 -17 -18 -18 -18 -18 -18 -18 -18 -18 -18 -19 -19 -19 -19 -18 -18 -18 -18 -18 -18 -18 -18 -18 -18 -18 -18 -19 -19 -19 -19 -19 -19 -19 -19 -19 -19 -19
-15 -16 -16 -17 -18 -19 -18 -18 -19 -19 -19 -19 -19 -19 -19 -19 -19 -19 -19 -19 -19 -19 -19 -19 -18 -18 -18 -18 -18 -18 -18 -18 -19 -19 -19 -19 -19 -19 -19 -19 -19 -19 -19
-17 -17 -18 -19 -20 -20 -20 -20 -20 -19 -19 -19 -19 -19 -19 -19 -19 -19 -19 -19 -19 -19 -19 -19 -19 -19 -18 -18 -18 -19 -19 -19 -19 -19 -19 -20 -20 -19 -19 -19 -19 -19 -20
-18 -19 -19 -21 -21 -21 -21 -21 -21 -20 -20 -20 -20 -20 -19 -19 -20 -19 -20 -20 -20 -20 -20 -20 -20 -19 -19 -19 -19 -19 -19 -19 -19 -19 -20 -20 -20 -20 -20 -20 -20 -19 -20

GFSGL_700_temp_060.txt.gz
Temp
-0 1 0 -0 -0 -2 -2 -2 -3 -3 -4 -4 -5 -6 -7 -7 -8 -8 -8 -8 -9 -9 -10 -11 -12 -12 -13 -13 -14 -14 -15 -15 -15 -15 -15 -15 -14 -15 -15 -15 -15 -16 -16
-2 -1 -1 -1 -2 -2 -2 -3 -3 -3 -4 -5 -6 -8 -8 -8 -9 -8 -8 -9 -10 -11 -11 -12 -12 -13 -14 -14 -14 -15 -15 -16 -16 -15 -14 -14 -15 -15 -15 -16 -16 -16 -16
-1 -1 -1 -1 -2 -2 -3 -4 -4 -4 -5 -8 -8 -8 -8 -9 -9 -9 -9 -10 -11 -12 -12 -13 -13 -14 -14 -15 -15 -16 -16 -16 -16 -15 -15 -15 -15 -16 -16 -16 -16 -16 -16
-1 -1 -2 -2 -3 -4 -3 -4 -4 -5 -7 -8 -8 -8 -8 -9 -9 -10 -11 -11 -12 -12 -13 -13 -14 -14 -15 -15 -16 -16 -16 -16 -15 -15 -15 -15 -16 -16 -16 -16 -16 -17 -17
-1 -1 -2 -4 -4 -4 -4 -4 -4 -6 -8 -8 -7 -8 -8 -9 -10 -11 -12 -12 -13 -13 -13 -14 -14 -15 -15 -15 -16 -16 -16 -16 -16 -15 -15 -15 -16 -16 -17 -17 -17 -16 -16
-0 -1 -4 -4 -4 -4 -5 -5 -8 -8 -9 -9 -8 -8 -9 -10 -11 -11 -12 -13 -13 -14 -14 -14 -15 -16 -16 -16 -16 -16 -16 -16 -15 -15 -15 -16 -16 -17 -17 -17 -17 -16 -16
-2 -3 -3 -4 -4 -4 -6 -8 -8 -8 -9 -8 -9 -9 -10 -10 -11 -12 -13 -13 -14 -14 -14 -14 -15 -16 -16 -16 -16 -16 -16 -16 -16 -16 -16 -16 -17 -17 -17 -17 -17 -17 -17
-3 -3 -3 -4 -5 -7 -8 -8 -8 -8 -9 -9 -9 -10 -10 -11 -12 -13 -13 -13 -14 -14 -15 -15 -15 -15 -16 -16 -16 -16 -16 -17 -16 -16 -16 -17 -17 -17 -18 -18 -18 -18 -18
-4 -4 -5 -5 -7 -8 -8 -9 -9 -9 -9 -9 -10 -10 -11 -11 -12 -13 -13 -14 -14 -14 -15 -15 -15 -16 -16 -16 -16 -16 -16 -16 -16 -16 -17 -17 -17 -18 -18 -18 -18 -18 -18
-4 -5 -6 -7 -8 -9 -9 -9 -9 -9 -10 -10 -11 -11 -12 -12 -13 -14 -14 -14 -14 -15 -15 -15 -15 -16 -16 -16 -17 -16 -16 -16 -16 -16 -17 -17 -18 -18 -18 -18 -19 -18 -18
-5 -6 -7 -8 -9 -9 -9 -10 -10 -10 -10 -11 -11 -12 -12 -13 -13 -14 -14 -14 -15 -15 -15 -16 -16 -16 -16 -17 -17 -17 -17 -16 -16 -16 -17 -17 -18 -18 -18 -19 -19 -19 -18
-6 -7 -8 -9 -9 -9 -10 -10 -10 -11 -11 -12 -12 -12 -13 -14 -14 -14 -15 -15 -15 -15 -16 -16 -16 -16 -16 -17 -17 -17 -17 -17 -17 -17 -17 -17 -17 -18 -18 -18 -19 -19 -19
-8 -8 -9 -9 -10 -10 -10 -10 -11 -11 -12 -12 -13 -13 -13 -14 -14 -15 -15 -15 -15 -16 -16 -16 -16 -16 -17 -17 -17 -17 -17 -17 -17 -17 -17 -17 -18 -18 -18 -18 -19 -19 -19
-9 -9 -9 -10 -10 -10 -11 -11 -11 -12 -13 -13 -13 -14 -14 -14 -15 -15 -15 -16 -16 -16 -16 -16 -16 -16 -17 -17 -17 -17 -17 -17 -17 -17 -17 -17 -17 -18 -18 -18 -19 -19 -19
-9 -9 -10 -10 -10 -10 -11 -11 -12 -12 -14 -14 -14 -15 -15 -15 -15 -16 -16 -16 -16 -16 -16 -16 -17 -17 -17 -17 -17 -17 -18 -17 -17 -17 -17 -17 -18 -18 -18 -18 -19 -19 -19
-10 -10 -10 -10 -10 -11 -11 -11 -12 -13 -14 -15 -16 -16 -16 -16 -16 -16 -16 -16 -17 -17 -17 -17 -17 -17 -17 -17 -17 -17 -18 -18 -18 -18 -18 -18 -18 -18 -18 -18 -19 -19 -19
-10 -10 -10 -11 -11 -11 -12 -12 -13 -12 -14 -15 -16 -16 -16 -16 -16 -16 -17 -17 -17 -17 -17 -17 -17 -17 -17 -17 -17 -17 -18 -18 -18 -18 -18 -18 -18 -18 -18 -18 -18 -19 -19
-11 -11 -11 -12 -12 -12 -12 -13 -13 -14 -15 -15 -15 -16 -16 -17 -17 -16 -17 -17 -17 -18 -18 -18 -18 -18 -17 -17 -17 -17 -18 -18 -18 -18 -18 -18 -18 -18 -18 -18 -18 -19 -19
-11 -11 -11 -11 -12 -12 -13 -13 -14 -15 -15 -16 -15 -16 -17 -17 -17 -17 -17 -18 -18 -18 -18 -18 -18 -18 -18 -18 -18 -18 -18 -18 -18 -18 -18 -18 -18 -18 -18 -18 -18 -19 -19
-11 -11 -12 -12 -13 -13 -14 -15 -15 -16 -16 -17 -17 -17 -17 -17 -17 -17 -18 -18 -18 -18 -18 -18 -18 -18 -18 -18 -18 -18 -18 -18 -18 -18 -18 -18 -19 -19 -18 -18 -19 -19 -19
-12 -12 -13 -13 -14 -15 -15 -16 -16 -17 -18 -18 -18 -18 -18 -18 -18 -18 -18 -18 -18 -18 -18 -18 -18 -18 -18 -18 -18 -18 -18 -18 -18 -19 -19 -19 -19 -19 -19 -18 -19 -19 -19
-13 -13 -14 -15 -15 -16 -16 -17 -18 -18 -19 -18 -18 -18 -18 -19 -19 -19 -19 -19 -19 -19 -19 -18 -18 -18 -18 -18 -18 -18 -18 -18 -18 -19 -19 -19 -19 -19 -19 -19 -19 -19 -19
-14 -15 -16 -16 -17 -17 -18 -19 -19 -18 -19 -19 -19 -19 -19 -19 -19 -19 -19 -19 -19 -19 -19 -19 -19 -18 -18 -19 -19 -18 -18 -18 -19 -19 -19 -19 -19 -19 -19 -19 -19 -19 -19
-16 -16 -17 -17 -18 -18 -19 -20 -20 -19 -20 -20 -20 -20 -20 -19 -19 -19 -19 -19 -19 -19 -19 -19 -19 -19 -19 -19 -19 -19 -19 -19 -19 -19 -19 -19 -19 -19 -19 -19 -19 -19 -19
-17 -18 -18 -18 -19 -19 -20 -21 -22 -22 -22 -21 -21 -21 -20 -20 -20 -20 -19 -20 -19 -19 -19 -20 -20 -20 -19 -19 -19 -19 -19 -19 -19 -19 -19 -19 -19 -20 -20 -20 -19 -19 -19
-18 -19 -19 -20 -20 -21 -21 -21 -22 -23 -22 -22 -22 -22 -21 -21 -21 -21 -20 -20 -20 -20 -20 -20 -20 -20 -20 -20 -19 -19 -19 -19 -19 -19 -19 -19 -20 -20 -20 -20 -20 -20 -20

GFSGL_700_temp_063.txt.gz
Temp
1 1 -1 -1 -1 -1 -1 -2 -2 -2 -3 -4 -4 -4 -4 -6 -6 -6 -7 -8 -8 -8 -9 -9 -10 -10 -11 -12 -13 -14 -14 -15 -15 -15 -15 -15 -15 -15 -15 -15 -15 -15 -15
-0 0 -0 -1 -1 -1 -2 -2 -3 -3 -4 -4 -4 -4 -5 -6 -7 -7 -7 -7 -8 -9 -9 -10 -11 -12 -13 -13 -14 -15 -15 -15 -16 -15 -15 -15 -15 -15 -15 -14 -15 -15 -15
-0 -1 -0 -1 -1 -2 -2 -2 -3 -4 -4 -5 -5 -6 -7 -7 -8 -8 -8 -8 -9 -9 -10 -11 -12 -13 -13 -14 -15 -15 -16 -16 -16 -16 -15 -15 -15 -15 -15 -15 -15 -16 -16
-0 -1 -2 -1 -2 -3 -4 -4 -4 -4 -5 -5 -6 -7 -8 -7 -8 -8 -9 -9 -9 -10 -11 -12 -13 -13 -14 -14 -15 -16 -16 -16 -16 -16 -15 -15 -15 -15 -15 -15 -16 -16 -16
-0 -2 -2 -2 -3 -3 -5 -4 -4 -5 -6 -6 -7 -8 -7 -8 -8 -9 -9 -9 -10 -11 -12 -13 -13 -14 -14 -15 -16 -16 -16 -16 -16 -16 -16 -15 -15 -15 -15 -16 -16 -17 -17
-1 -2 -2 -3 -3 -5 -5 -5 -5 -6 -7 -8 -8 -8 -8 -8 -9 -9 -9 -10 -11 -12 -13 -13 -14 -14 -14 -15 -16 -16 -16 -16 -16 -16 -16 -15 -15 -15 -16 -16 -17 -17 -16
-2 -2 -3 -3 -4 -4 -5 -5 -6 -7 -8 -8 -8 -8 -9 -9 -9 -10 -10 -11 -12 -12 -13 -14 -14 -14 -15 -15 -15 -16 -16 -16 -16 -16 -16 -16 -16 -16 -16 -16 -17 -17 -17
-2 -3 -3 -3 -4 -5 -5 -6 -7 -8 -8 -8 -9 -9 -9 -10 -10 -11 -11 -12 -12 -13 -14 -14 -14 -15 -15 -15 -16 -16 -16 -17 -16 -16 -16 -16 -16 -16 -16 -17 -17 -17 -18
-3 -4 -4 -4 -5 -5 -7 -7 -8 -9 -9 -9 -9 -9 -10 -10 -11 -11 -12 -12 -13 -14 -14 -15 -15 -15 -15 -16 -16 -16 -16 -17 -17 -17 -17 -16 -16 -16 -17 -17 -17 -18 -18
-4 -4 -5 -5 -7 -7 -8 -8 -9 -9 -9 -9 -9 -10 -10 -11 -11 -12 -12 -13 -14 -14 -15 -15 -15 -16 -16 -16 -16 -16 -17 -17 -17 -17 -17 -17 -16 -17 -17 -17 -18 -18 -18
-5 -6 -6 -7 -7 -8 -9 -9 -9 -9 -9 -10 -10 -10 -11 -12 -12 -13 -13 -13 -14 -15 -15 -16 -16 -16 -16 -16 -16 -16 -17 -17 -17 -17 -17 -17 -17 -17 -17 -18 -18 -18 -18
-6 -6 -6 -7 -9 -9 -9 -9 -10 -10 -10 -10 -10 -11 -12 -12 -13 -13 -14 -14 -15 -15 -16 -16 -16 -17 -17 -17 -17 -17 -17 -17 -17 -17 -17 -17 -17 -17 -17 -18 -18 -18 -19
-6 -7 -8 -9 -9 -9 -10 -10 -10 -10 -10 -10 -11 -12 -12 -13 -14 -15 -15 -15 -15 -16 -16 -16 -16 -17 -17 -17 -17 -17 -17 -17 -17 -17 -17 -17 -17 -17 -17 -17 -18 -18 -19
-8 -9 -9 -9 -9 -10 -10 -10 -10 -10 -11 -11 -12 -13 -13 -14 -14 -16 -15 -15 -15 -15 -16 -17 -17 -17 -17 -17 -18 -18 -18 -17 -17 -17 -18 -18 -18 -18 -17 -17 -18 -18 -18
-9 -9 -9 -9 -10 -10 -10 -10 -10 -10 -11 -12 -12 -13 -15 -15 -15 -16 -16 -16 -16 -16 -16 -17 -17 -17 -17 -17 -17 -18 -18 -18 -18 -18 -18 -18 -18 -18 -18 -18 -18 -18 -18
-9 -9 -10 -10 -10 -10 -10 -10 -11 -11 -12 -12 -13 -14 -15 -16 -16 -16 -16 -16 -16 -16 -17 -17 -17 -17 -18 -18 -18 -17 -18 -18 -18 -18 -18 -18 -18 -18 -18 -18 -18 -18 -18
-10 -10 -10 -10 -11 -11 -11 -12 -12 -11 -12 -13 -13 -14 -15 -16 -16 -15 -16 -17 -17 -17 -17 -18 -18 -18 -18 -18 -18 -18 -18 -18 -18 -18 -18 -18 -18 -18 -18 -18 -18 -18 -19
-11 -11 -11 -11 -11 -11 -12 -12 -12 -13 -14 -14 -14 -15 -16 -16 -17 -16 -16 -17 -17 -17 -18 -18 -18 -18 -18 -18 -18 -18 -18 -18 -18 -18 -18 -18 -18 -18 -18 -18 -18 -19 -19
-11 -11 -11 -11 -12 -12 -12 -13 -14 -15 -15 -16 -16 -17 -17 -18 -18 -17 -17 -18 -18 -18 -18 -18 -18 -18 -18 -18 -18 -18 -18 -18 -18 -18 -18 -18 -18 -18 -18 -19 -18 -19 -19
-11 -11 -12 -12 -12 -13 -14 -15 -15 -16 -16 -17 -18 -18 -18 -18 -18 -18 -18 -18 -18 -19 -19 -19 -18 -18 -18 -18 -18 -18 -18 -18 -18 -18 -19 -18 -18 -18 -19 -19 -19 -19 -19
-12 -12 -12 -13 -14 -14 -15 -16 -17 -17 -18 -18 -19 -19 -19 -19 -19 -19 -19 -19 -19 -19 -19 -19 -19 -18 -18 -18 -18 -18 -18 -18 -19 -19 -19 -19 -19 -19 -19 -19 -19 -19 -19
-12 -13 -13 -14 -15 -16 -17 -17 -18 -18 -19 -20 -20 -19 -19 -19 -19 -19 -19 -19 -19 -19 -19 -19 -19 -19 -19 -18 -18 -19 -19 -18 -19 -19 -19 -19 -19 -19 -19 -19 -19 -19 -19
-13 -14 -15 -16 -16 -17 -18 -18 -19 -19 -20 -20 -20 -20 -20 -20 -20 -20 -20 -20 -19 -19 -20 -19 -19 -19 -19 -19 -19 -19 -19 -19 -19 -19 -19 -19 -19 -19 -19 -19 -19 -19 -19
-14 -15 -16 -17 -17 -18 -19 -19 -20 -20 -21 -21 -22 -22 -22 -22 -22 -21 -21 -21 -20 -20 -20 -20 -20 -20 -19 -19 -19 -19 -19 -19 -19 -19 -19 -19 -19 -19 -19 -19 -19 -19 -19
-15 -16 -17 -18 -18 -19 -19 -20 -21 -21 -21 -22 -22 -23 -23 -23 -22 -22 -22 -21 -21 -21 -20 -20 -20 -20 -20 -20 -20 -20 -19 -19 -19 -19 -19 -19 -19 -19 -19 -20 -20 -20 -20
-17 -17 -18 -19 -19 -20 -20 -21 -21 -21 -22 -22 -22 -23 -23 -23 -23 -23 -22 -22 -22 -21 -21 -21 -20 -20 -20 -20 -20 -20 -20 -19 -19 -19 -19 -19 -19 -19 -19 -20 -20 -20 -20

GFSGL_700_temp_069.txt.gz
Temp
2 2 2 1 1 0 0 -1 -1 -2 -2 -2 -3 -3 -3 -5 -5 -5 -5 -6 -7 -8 -8 -8 -8 -8 -8 -9 -9 -10 -11 -12 -12 -13 -13 -14 -15 -16 -16 -16 -16 -15 -15
2 2 2 1 1 0 -1 -1 -3 -2 -2 -3 -4 -4 -5 -5 -6 -6 -6 -7 -8 -8 -8 -8 -8 -9 -9 -9 -10 -10 -11 -12 -13 -13 -14 -14 -15 -16 -16 -16 -15 -15 -15
2 1 0 0 -0 -1 -1 -1 -3 -2 -3 -4 -4 -5 -6 -6 -6 -6 -7 -8 -9 -9 -9 -9 -9 -9 -9 -10 -10 -11 -12 -13 -14 -14 -14 -15 -15 -16 -16 -16 -15 -16 -15
0 -0 -0 -1 -0 -1 -2 -2 -3 -4 -4 -4 -4 -5 -6 -6 -6 -7 -9 -9 -9 -9 -9 -9 -9 -10 -10 -10 -11 -12 -13 -14 -14 -15 -15 -15 -15 -16 -16 -16 -16 -16 -15
1 1 0 -0 -1 -2 -2 -4 -3 -3 -3 -3 -5 -6 -6 -7 -8 -8 -9 -9 -10 -9 -10 -10 -10 -10 -11 -11 -12 -13 -14 -14 -15 -15 -15 -16 -16 -16 -16 -16 -16 -16 -16
1 0 -0 -2 -2 -2 -4 -4 -3 -3 -4 -5 -6 -6 -7 -8 -8 -9 -10 -10 -10 -10 -10 -10 -11 -11 -12 -12 -13 -13 -14 -15 -15 -15 -16 -16 -16 -16 -17 -16 -16 -16 -16
0 0 -1 -2 -2 -3 -3 -3 -4 -6 -6 -6 -6 -7 -7 -8 -9 -10 -10 -10 -10 -10 -10 -11 -11 -12 -13 -13 -13 -14 -15 -15 -16 -16 -16 -16 -16 -17 -17 -17 -16 -16 -16
-0 -1 -3 -3 -4 -4 -3 -4 -5 -6 -6 -6 -7 -8 -8 -9 -10 -10 -10 -10 -10 -10 -11 -12 -12 -13 -13 -14 -14 -15 -15 -16 -16 -16 -16 -16 -17 -17 -17 -17 -17 -16 -16
-1 -3 -3 -5 -4 -4 -5 -5 -5 -6 -7 -7 -8 -9 -9 -10 -10 -10 -10 -10 -11 -11 -12 -12 -13 -14 -14 -15 -15 -15 -16 -16 -17 -17 -17 -17 -17 -17 -17 -17 -17 -17 -17
-2 -3 -4 -4 -4 -5 -6 -6 -6 -7 -7 -8 -9 -9 -10 -10 -10 -11 -11 -11 -11 -12 -12 -12 -14 -15 -15 -15 -16 -16 -16 -17 -17 -17 -17 -17 -17 -17 -17 -17 -17 -17 -17
-4 -4 -4 -5 -5 -6 -6 -7 -7 -8 -8 -9 -9 -10 -10 -10 -10 -11 -11 -12 -12 -12 -13 -13 -14 -16 -16 -16 -16 -16 -16 -18 -18 -18 -18 -18 -18 -18 -18 -18 -18 -17 -17
-5 -5 -6 -6 -6 -7 -7 -8 -8 -9 -9 -9 -10 -10 -10 -10 -10 -10 -11 -12 -13 -14 -14 -15 -16 -16 -16 -16 -16 -16 -16 -17 -18 -18 -18 -18 -19 -18 -18 -18 -18 -18 -18
-6 -6 -6 -6 -7 -7 -8 -9 -9 -9 -10 -10 -10 -10 -10 -10 -10 -10 -11 -11 -13 -14 -15 -15 -17 -17 -16 -16 -17 -16 -17 -18 -18 -18 -18 -18 -19 -19 -18 -18 -18 -18 -18
-6 -6 -7 -7 -8 -9 -9 -9 -10 -10 -10 -10 -10 -10 -10 -10 -10 -11 -12 -13 -14 -14 -15 -16 -17 -17 -17 -16 -17 -17 -17 -18 -18 -18 -18 -18 -19 -19 -19 -18 -18 -18 -18
-7 -7 -8 -8 -9 -9 -10 -10 -10 -10 -10 -10 -11 -11 -10 -11 -11 -13 -14 -14 -15 -16 -16 -16 -17 -17 -17 -17 -18 -18 -18 -18 -18 -18 -18 -18 -18 -19 -19 -18 -18 -18 -18
-8 -8 -9 -9 -9 -9 -10 -10 -10 -11 -11 -11 -11 -11 -12 -13 -13 -14 -15 -16 -17 -17 -17 -17 -17 -17 -17 -18 -18 -18 -18 -18 -18 -18 -18 -18 -18 -19 -19 -19 -19 -19 -18
-9 -9 -9 -9 -10 -10 -10 -10 -11 -11 -11 -11 -12 -12 -13 -14 -15 -15 -16 -17 -18 -18 -18 -18 -18 -18 -18 -18 -18 -18 -18 -18 -19 -19 -19 -18 -18 -19 -19 -19 -19 -19 -19
-9 -10 -10 -10 -10 -11 -11 -11 -11 -11 -11 -12 -12 -13 -14 -15 -16 -16 -17 -18 -19 -19 -19 -18 -18 -18 -18 -18 -18 -19 -18 -19 -19 -19 -19 -19 -19 -19 -19 -19 -19 -19 -19
-10 -10 -11 -11 -11 -11 -11 -11 -12 -12 -12 -12 -13 -14 -15 -16 -17 -18 -18 -19 -20 -19 -19 -19 -19 -19 -19 -19 -19 -19 -19 -19 -19 -19 -19 -19 -19 -19 -19 -19 -19 -19 -19
-11 -11 -11 -11 -12 -12 -12 -12 -13 -13 -13 -14 -14 -15 -16 -17 -17 -18 -19 -20 -20 -20 -20 -20 -20 -19 -20 -19 -19 -19 -19 -19 -19 -19 -19 -19 -19 -19 -19 -19 -19 -19 -19
-11 -12 -12 -12 -12 -13 -13 -13 -14 -14 -14 -15 -16 -17 -18 -18 -19 -19 -20 -20 -20 -21 -21 -21 -20 -20 -20 -20 -20 -19 -19 -19 -19 -19 -19 -19 -19 -19 -19 -19 -19 -19 -19
-12 -12 -13 -13 -13 -14 -14 -14 -15 -15 -16 -17 -18 -19 -19 -20 -20 -21 -21 -21 -21 -22 -22 -22 -21 -21 -21 -20 -20 -20 -19 -19 -19 -19 -19 -19 -19 -19 -19 -19 -19 -19 -19
-13 -13 -13 -14 -14 -14 -15 -16 -16 -17 -17 -18 -19 -20 -20 -21 -21 -21 -22 -22 -22 -22 -23 -23 -22 -22 -22 -21 -21 -20 -20 -20 -20 -19 -19 -19 -19 -19 -19 -19 -20 -20 -19
-14 -14 -14 -15 -15 -16 -16 -17 -17 -18 -19 -19 -20 -21 -21 -22 -22 -22 -22 -22 -22 -22 -22 -23 -23 -22 -22 -22 -22 -21 -20 -20 -20 -19 -19 -19 -19 -19 -19 -19 -19 -20 -20
-15 -15 -15 -16 -16 -17 -17 -18 -19 -19 -20 -20 -21 -21 -22 -22 -22 -22 -22 -22 -22 -22 -22 -23 -23 -22 -22 -22 -22 -22 -21 -21 -20 -20 -20 -20 -19 -19 -19 -19 -19 -19 -20
-15 -16 -16 -17 -17 -18 -19 -19 -20 -20 -21 -21 -22 -22 -23 -23 -23 -23 -23 -23 -23 -23 -23 -23 -23 -22 -22 -22 -22 -22 -21 -21 -20 -20 -20 -20 -20 -19 -19 -19 -19 -20 -20

GFSGL_700_temp_072.txt.gz
Temp
2 2 2 2 2 1 1 0 -0 -1 -1 -2 -2 -2 -3 -4 -4 -5 -4 -5 -5 -5 -6 -7 -8 -8 -8 -9 -9 -9 -9 -10 -10 -9 -12 -14 -13 -13 -14 -14 -14 -14 -15
3 2 2 2 1 1 0 -1 -1 -1 -1 -3 -2 -2 -4 -4 -4 -5 -5 -5 -6 -6 -7 -8 -9 -9 -9 -9 -9 -10 -10 -11 -13 -11 -11 -14 -16 -15 -14 -14 -15 -15 -15
3 2 1 1 0 -1 -1 -2 -1 -1 -2 -4 -3 -4 -4 -5 -5 -5 -6 -6 -7 -7 -8 -9 -9 -9 -10 -10 -10 -11 -11 -13 -15 -14 -13 -14 -14 -15 -15 -15 -15 -15 -16
3 2 1 1 1 0 -0 -1 -1 -1 -3 -3 -4 -4 -5 -5 -5 -6 -6 -7 -8 -8 -9 -9 -10 -10 -10 -10 -11 -11 -12 -12 -13 -13 -14 -14 -15 -16 -17 -17 -17 -16 -16
2 2 1 1 0 -0 -1 -1 -1 -3 -3 -4 -4 -5 -5 -5 -6 -7 -7 -8 -8 -9 -9 -10 -10 -10 -10 -11 -12 -12 -13 -13 -13 -14 -15 -15 -16 -17 -18 -18 -18 -16 -16
2 1 1 0 0 -0 -1 -1 -2 -4 -4 -5 -5 -5 -6 -6 -7 -7 -8 -8 -9 -9 -10 -10 -10 -11 -11 -11 -12 -12 -13 -14 -14 -16 -16 -17 -17 -18 -18 -19 -19 -17 -16
2 2 1 1 0 -1 -2 -2 -3 -4 -5 -5 -5 -6 -7 -7 -8 -8 -9 -9 -9 -10 -10 -10 -11 -11 -12 -12 -12 -13 -13 -14 -15 -16 -16 -17 -17 -17 -17 -17 -17 -17 -17
2 1 0 0 -1 -3 -3 -4 -4 -5 -5 -6 -6 -6 -7 -8 -8 -9 -10 -10 -10 -10 -10 -10 -11 -11 -12 -14 -15 -15 -15 -15 -16 -16 -16 -17 -17 -17 -17 -17 -17 -17 -17
1 0 -0 -2 -3 -3 -4 -4 -5 -5 -5 -6 -7 -7 -8 -8 -9 -10 -10 -10 -10 -10 -10 -11 -11 -12 -13 -15 -15 -16 -16 -16 -16 -16 -17 -17 -17 -17 -18 -18 -17 -18 -17
-0 -1 -2 -3 -4 -4 -5 -4 -5 -5 -6 -7 -8 -8 -8 -9 -9 -10 -10 -10 -10 -10 -10 -11 -12 -12 -13 -16 -16 -16 -16 -16 -17 -17 -16 -17 -18 -18 -18 -18 -18 -18 -18
-1 -2 -4 -4 -4 -5 -5 -6 -6 -7 -7 -7 -8 -9 -9 -9 -10 -10 -10 -10 -10 -10 -11 -11 -12 -13 -14 -15 -17 -16 -16 -17 -17 -17 -17 -18 -18 -18 -18 -18 -18 -18 -18
-3 -4 -5 -5 -5 -6 -6 -6 -7 -7 -8 -8 -9 -9 -9 -10 -10 -10 -10 -10 -11 -11 -11 -12 -13 -14 -15 -15 -17 -16 -16 -16 -17 -18 -18 -18 -18 -18 -19 -18 -18 -18 -18
-4 -5 -6 -6 -6 -6 -7 -7 -8 -8 -8 -9 -9 -9 -10 -10 -10 -10 -10 -11 -11 -12 -13 -13 -14 -15 -16 -16 -17 -17 -17 -17 -18 -18 -18 -18 -18 -18 -19 -19 -19 -19 -18
-5 -6 -6 -6 -7 -7 -7 -8 -8 -9 -9 -9 -10 -10 -10 -10 -10 -11 -11 -11 -12 -13 -14 -15 -16 -16 -16 -17 -17 -17 -17 -18 -18 -18 -18 -18 -18 -19 -18 -19 -19 -19 -19
-6 -6 -7 -7 -8 -8 -9 -9 -9 -9 -10 -10 -10 -10 -11 -11 -11 -11 -12 -12 -13 -14 -15 -16 -17 -17 -17 -17 -17 -17 -18 -18 -18 -18 -18 -18 -19 -19 -18 -19 -19 -19 -19
-6 -7 -8 -8 -9 -9 -9 -9 -10 -10 -10 -11 -11 -11 -11 -11 -12 -12 -12 -13 -14 -15 -16 -17 -18 -18 -18 -17 -17 -18 -18 -18 -18 -18 -18 -18 -19 -19 -19 -19 -19 -19 -19
-8 -8 -9 -9 -9 -10 -10 -10 -11 -11 -11 -11 -12 -12 -12 -12 -12 -13 -13 -14 -15 -16 -17 -18 -18 -18 -18 -18 -18 -18 -18 -18 -18 -18 -18 -18 -19 -19 -19 -19 -19 -19 -19
-10 -9 -9 -10 -10 -10 -11 -11 -11 -12 -12 -12 -12 -13 -13 -13 -13 -14 -15 -16 -17 -17 -18 -18 -19 -19 -19 -19 -19 -19 -19 -19 -19 -19 -19 -19 -19 -19 -19 -19 -19 -19 -19
-11 -10 -10 -10 -11 -11 -11 -12 -12 -12 -12 -13 -13 -13 -14 -14 -15 -16 -16 -17 -18 -18 -19 -19 -20 -20 -19 -19 -19 -19 -19 -19 -19 -19 -19 -19 -19 -19 -19 -19 -19 -19 -19
-11 -11 -11 -11 -11 -12 -12 -12 -13 -13 -13 -14 -14 -14 -15 -15 -16 -17 -18 -18 -19 -19 -20 -20 -20 -20 -21 -20 -20 -20 -19 -19 -19 -19 -19 -19 -19 -19 -19 -19 -19 -19 -19
-12 -11 -12 -12 -12 -12 -13 -13 -13 -14 -14 -14 -15 -15 -16 -16 -17 -18 -19 -19 -20 -20 -21 -21 -21 -21 -22 -21 -21 -20 -20 -20 -20 -19 -19 -19 -19 -19 -19 -19 -19 -19 -19
-12 -12 -12 -13 -13 -13 -14 -14 -14 -14 -15 -15 -16 -17 -17 -18 -19 -19 -20 -21 -21 -21 -21 -21 -21 -22 -22 -22 -22 -21 -21 -20 -20 -20 -19 -19 -19 -19 -19 -19 -19 -20 -19
-13 -13 -13 -14 -14 -14 -14 -15 -15 -15 -16 -16 -17 -18 -18 -19 -20 -20 -21 -21 -22 -22 -22 -22 -22 -22 -22 -22 -22 -22 -21 -21 -20 -20 -20 -19 -19 -19 -19 -19 -19 -20 -20
-14 -14 -14 -15 -15 -15 -15 -16 -16 -17 -17 -18 -18 -19 -20 -20 -21 -21 -22 -22 -23 -23 -23 -22 -22 -22 -22 -22 -22 -22 -22 -22 -21 -21 -20 -20 -19 -19 -19 -19 -19 -19 -20
-15 -15 -15 -16 -16 -16 -16 -17 -17 -18 -19 -19 -20 -21 -21 -21 -22 -22 -23 -23 -23 -23 -23 -23 -23 -23 -22 -22 -22 -22 -22 -22 -22 -21 -20 -20 -20 -20 -20 -19 -19 -19 -20
-16 -16 -16 -16 -17 -17 -18 -18 -19 -19 -20 -21 -21 -22 -22 -22 -23 -23 -23 -24 -23 -23 -23 -23 -23 -23 -23 -22 -22 -22 -22 -22 -22 -22 -21 -20 -20 -20 -20 -19 -19 -19 -20

GFSGL_700_temp_075.txt.gz
Temp
4 3 3 2 2 2 2 1 0 -0 1 -0 -1 -1 -1 -2 -2 -3 -4 -5 -5 -5 -5 -5 -5 -6 -7 -7 -8 -9 -9 -9 -10 -9 -11 -12 -13 -13 -14 -14 -14 -15 -15
4 3 3 2 2 2 1 1 0 0 -1 -1 -1 -2 -3 -3 -4 -4 -5 -5 -5 -5 -5 -6 -6 -7 -8 -8 -9 -9 -9 -10 -12 -12 -11 -12 -14 -14 -15 -15 -15 -15 -16
4 4 3 2 2 2 2 0 -0 -1 -1 -1 -1 -3 -3 -4 -4 -5 -5 -5 -6 -6 -6 -7 -7 -8 -8 -9 -10 -10 -10 -11 -12 -13 -13 -14 -15 -14 -15 -16 -16 -16 -17
4 4 3 2 2 2 1 0 -0 -1 -1 -2 -2 -3 -4 -4 -4 -5 -5 -6 -6 -6 -7 -7 -8 -9 -9 -10 -10 -10 -11 -12 -13 -14 -14 -15 -14 -14 -15 -16 -16 -17 -17
4 4 3 2 2 2 1 0 -1 -1 -1 -2 -3 -3 -5 -5 -5 -5 -6 -6 -7 -7 -7 -8 -9 -9 -9 -10 -10 -10 -11 -12 -13 -14 -14 -15 -15 -15 -16 -16 -16 -17 -17
4 3 3 3 3 2 1 -0 -1 -1 -1 -2 -4 -4 -5 -5 -5 -5 -6 -7 -7 -7 -8 -9 -9 -10 -10 -10 -11 -11 -11 -12 -14 -15 -15 -15 -15 -16 -16 -16 -17 -17 -17
3 3 3 2 2 1 0 -1 -1 -1 -2 -3 -4 -4 -4 -5 -5 -6 -7 -7 -7 -8 -9 -9 -9 -10 -10 -11 -11 -12 -14 -15 -16 -16 -16 -16 -16 -16 -17 -17 -17 -17 -18
3 3 2 2 2 0 -0 -2 -2 -3 -3 -4 -4 -4 -5 -6 -6 -7 -7 -8 -8 -9 -9 -10 -10 -10 -10 -11 -13 -13 -14 -15 -16 -16 -16 -16 -16 -16 -17 -17 -18 -18 -17
3 3 2 1 0 -1 -2 -3 -3 -4 -4 -5 -4 -5 -6 -7 -7 -7 -8 -8 -9 -9 -10 -10 -10 -10 -11 -12 -12 -13 -14 -14 -16 -16 -16 -17 -17 -17 -17 -18 -18 -18 -18
2 1 0 -0 -1 -1 -3 -4 -4 -4 -4 -5 -5 -6 -7 -8 -8 -8 -9 -9 -9 -9 -10 -10 -10 -11 -11 -12 -13 -14 -14 -16 -16 -16 -16 -16 -16 -17 -17 -18 -18 -18 -18
1 -0 -1 -1 -2 -4 -4 -4 -4 -5 -5 -6 -7 -7 -8 -8 -9 -9 -9 -10 -10 -10 -10 -10 -11 -11 -11 -12 -13 -14 -15 -16 -17 -17 -17 -17 -17 -17 -17 -17 -18 -18 -19
-0 -1 -1 -2 -4 -4 -5 -5 -5 -6 -6 -7 -7 -8 -9 -9 -9 -9 -10 -10 -10 -10 -11 -11 -11 -11 -12 -13 -14 -15 -15 -17 -17 -17 -17 -17 -17 -17 -18 -18 -18 -18 -19
-1 -2 -3 -4 -4 -5 -5 -6 -6 -7 -7 -8 -8 -9 -9 -10 -10 -10 -10 -10 -11 -11 -11 -11 -12 -12 -13 -14 -15 -16 -16 -17 -17 -17 -17 -17 -17 -17 -18 -18 -18 -19 -19
-3 -3 -4 -5 -6 -6 -6 -7 -8 -8 -8 -9 -9 -10 -10 -10 -10 -11 -11 -11 -11 -12 -12 -12 -13 -14 -15 -16 -17 -17 -17 -17 -17 -17 -17 -17 -17 -18 -18 -18 -19 -19 -19
-4 -5 -5 -6 -6 -7 -7 -8 -8 -8 -9 -9 -10 -10 -10 -11 -11 -11 -12 -12 -12 -12 -13 -13 -14 -15 -16 -17 -17 -17 -17 -17 -17 -18 -18 -18 -18 -18 -18 -18 -19 -19 -19
-5 -6 -6 -7 -7 -8 -8 -9 -9 -9 -10 -10 -10 -11 -11 -11 -12 -12 -12 -13 -13 -14 -14 -14 -15 -16 -16 -17 -18 -18 -18 -18 -18 -18 -18 -18 -18 -18 -18 -18 -19 -19 -19
-6 -6 -7 -9 -10 -10 -10 -10 -10 -10 -10 -11 -11 -11 -12 -12 -12 -13 -13 -14 -14 -14 -15 -15 -16 -17 -17 -18 -19 -19 -18 -18 -17 -18 -18 -18 -18 -18 -19 -19 -19 -19 -19
-7 -8 -10 -12 -12 -12 -11 -11 -11 -11 -11 -12 -11 -12 -13 -13 -13 -14 -14 -15 -15 -16 -16 -17 -17 -18 -18 -19 -19 -19 -19 -19 -19 -19 -19 -19 -19 -18 -19 -19 -19 -19 -19
-9 -11 -11 -12 -13 -12 -12 -12 -12 -12 -12 -13 -13 -13 -13 -13 -14 -15 -15 -16 -16 -17 -17 -18 -19 -19 -20 -20 -20 -20 -20 -20 -19 -19 -19 -19 -19 -19 -19 -19 -19 -19 -19
-10 -10 -11 -13 -13 -13 -13 -13 -12 -13 -13 -13 -14 -14 -14 -15 -15 -16 -16 -17 -17 -18 -19 -20 -20 -21 -21 -21 -21 -21 -21 -21 -20 -19 -19 -19 -19 -19 -19 -19 -19 -19 -19
-10 -11 -12 -13 -13 -14 -13 -13 -13 -14 -14 -14 -15 -15 -15 -16 -16 -17 -17 -18 -19 -19 -20 -21 -21 -21 -21 -21 -21 -22 -22 -21 -21 -20 -20 -19 -19 -19 -19 -19 -19 -19 -20
-12 -12 -13 -14 -14 -14 -14 -14 -14 -15 -15 -15 -16 -16 -16 -17 -18 -18 -19 -19 -20 -21 -21 -22 -22 -22 -22 -22 -22 -22 -22 -22 -22 -21 -20 -20 -19 -19 -19 -19 -19 -19 -20
-13 -13 -14 -14 -14 -14 -14 -15 -15 -16 -16 -16 -17 -17 -18 -18 -19 -20 -20 -21 -21 -22 -22 -23 -23 -23 -23 -22 -22 -22 -22 -22 -22 -22 -21 -20 -20 -20 -19 -19 -20 -20 -20
-13 -14 -14 -15 -15 -15 -15 -16 -16 -17 -17 -17 -18 -19 -19 -20 -21 -21 -21 -22 -22 -23 -23 -23 -23 -23 -23 -23 -23 -23 -22 -22 -22 -22 -22 -21 -20 -20 -20 -19 -19 -20 -20
-14 -15 -15 -15 -16 -16 -17 -17 -17 -18 -18 -19 -19 -20 -21 -21 -22 -22 -22 -23 -23 -23 -24 -24 -24 -23 -23 -23 -23 -23 -23 -23 -22 -22 -22 -22 -21 -20 -20 -20 -20 -20 -20
-15 -16 -16 -17 -17 -18 -18 -19 -19 -19 -20 -21 -21 -22 -22 -23 -23 -23 -23 -24 -24 -24 -24 -24 -24 -24 -24 -24 -24 -23 -23 -23 -23 -22 -22 -22 -21 -21 -20 -20 -20 -20 -20

GFSGL_700_temp_078.txt.gz
Temp
5 4 4 4 3 2 3 2 2 2 1 0 -1 0 -1 -1 -2 -2 -2 -2 -3 -3 -4 -5 -5 -5 -6 -6 -7 -7 -8 -8 -9 -8 -9 -9 -10 -11 -12 -13 -14 -14 -14
4 4 4 3 3 3 2 2 2 1 1 1 1 -0 -1 -2 -2 -3 -3 -3 -3 -4 -4 -5 -5 -6 -7 -7 -8 -8 -8 -9 -10 -10 -10 -11 -11 -13 -14 -15 -14 -14 -15
3 3 5 4 3 3 2 2 2 1 1 -0 -1 -1 -2 -1 -2 -4 -4 -4 -4 -5 -5 -6 -6 -7 -7 -8 -8 -9 -9 -10 -10 -11 -10 -11 -12 -14 -14 -15 -15 -16 -16
3 4 4 3 3 3 2 2 1 1 1 -1 -1 -2 -2 -2 -2 -3 -4 -4 -4 -4 -5 -6 -7 -8 -8 -8 -9 -9 -10 -10 -10 -11 -11 -12 -14 -14 -15 -15 -15 -15 -15
4 4 4 3 3 2 2 2 0 0 -0 -1 -1 -1 -2 -2 -3 -4 -4 -4 -5 -6 -7 -7 -8 -8 -8 -9 -9 -9 -10 -10 -10 -10 -11 -13 -14 -15 -16 -16 -16 -16 -16
4 4 3 3 3 2 0 1 1 -1 -1 -1 -1 -2 -3 -4 -4 -4 -5 -5 -6 -7 -7 -8 -8 -9 -9 -9 -10 -10 -10 -11 -11 -12 -13 -15 -15 -15 -16 -16 -16 -16 -16
5 4 4 3 3 2 2 1 0 -0 -1 -1 -2 -3 -3 -4 -5 -5 -5 -6 -6 -7 -7 -8 -8 -9 -9 -10 -10 -10 -10 -11 -12 -13 -15 -15 -15 -16 -16 -16 -16 -17 -16
4 4 4 3 3 2 2 0 -1 -1 -1 -2 -3 -4 -4 -5 -5 -5 -6 -6 -7 -7 -8 -8 -9 -9 -10 -10 -10 -10 -10 -11 -12 -13 -15 -15 -16 -16 -16 -16 -16 -17 -17
3 3 3 3 2 2 0 -1 -2 -3 -4 -3 -4 -5 -5 -5 -5 -5 -6 -7 -7 -8 -9 -9 -9 -10 -10 -11 -11 -11 -10 -11 -12 -13 -15 -16 -16 -16 -16 -16 -16 -17 -16
3 3 3 2 1 -0 -1 -2 -2 -3 -4 -5 -5 -5 -5 -5 -5 -6 -7 -8 -8 -9 -9 -9 -10 -10 -11 -11 -11 -11 -11 -11 -12 -13 -14 -15 -17 -16 -16 -17 -17 -17 -18
2 2 1 -0 -1 -1 -2 -3 -5 -5 -5 -5 -5 -6 -6 -7 -7 -8 -8 -8 -9 -9 -9 -10 -10 -11 -11 -11 -11 -12 -12 -12 -13 -14 -15 -16 -16 -17 -17 -17 -17 -18 -18
1 0 -0 -1 -1 -2 -3 -5 -5 -4 -5 -6 -6 -7 -8 -8 -8 -8 -9 -9 -9 -10 -10 -10 -11 -11 -12 -12 -12 -13 -13 -14 -15 -15 -16 -16 -17 -17 -17 -17 -17 -17 -18
0 -1 -1 -2 -2 -3 -4 -5 -5 -6 -6 -6 -8 -8 -8 -9 -9 -9 -10 -10 -10 -11 -11 -11 -12 -12 -12 -12 -13 -13 -14 -15 -16 -17 -17 -17 -17 -17 -17 -17 -17 -18 -18
-1 -1 -2 -3 -4 -5 -5 -5 -6 -6 -7 -9 -9 -9 -9 -10 -10 -10 -10 -11 -11 -11 -12 -12 -12 -12 -13 -13 -13 -14 -15 -16 -17 -17 -17 -17 -17 -18 -18 -17 -18 -18 -18
-1 -2 -3 -4 -5 -5 -6 -6 -7 -9 -10 -11 -11 -10 -10 -10 -11 -11 -11 -11 -12 -12 -12 -13 -13 -13 -14 -14 -14 -15 -16 -17 -18 -17 -18 -17 -17 -18 -18 -18 -18 -18 -18
-2 -2 -4 -5 -6 -6 -7 -7 -9 -11 -12 -12 -12 -11 -11 -11 -11 -12 -12 -12 -13 -13 -13 -14 -14 -14 -15 -15 -16 -16 -17 -18 -19 -18 -18 -18 -18 -18 -18 -18 -18 -18 -19
-4 -4 -5 -6 -6 -7 -8 -10 -11 -11 -12 -13 -12 -12 -12 -12 -12 -13 -13 -13 -14 -14 -14 -15 -15 -16 -16 -17 -17 -18 -18 -18 -19 -19 -18 -18 -18 -18 -18 -18 -18 -19 -19
-5 -5 -7 -7 -8 -10 -10 -10 -12 -13 -12 -12 -12 -13 -12 -12 -13 -14 -14 -14 -14 -15 -16 -16 -17 -17 -18 -18 -19 -19 -20 -20 -20 -20 -19 -19 -19 -19 -19 -19 -18 -19 -19
-7 -7 -7 -8 -9 -9 -10 -10 -11 -12 -12 -13 -14 -14 -13 -13 -14 -15 -15 -15 -15 -16 -17 -17 -18 -19 -19 -20 -20 -21 -21 -21 -21 -20 -21 -20 -20 -19 -19 -19 -19 -19 -19
-8 -8 -8 -9 -10 -10 -11 -12 -12 -13 -13 -14 -14 -14 -14 -15 -15 -16 -16 -16 -17 -17 -18 -19 -19 -20 -21 -21 -21 -22 -22 -22 -21 -22 -21 -21 -20 -20 -19 -19 -19 -19 -19
-9 -9 -10 -10 -11 -12 -12 -12 -13 -14 -14 -14 -15 -15 -15 -16 -16 -17 -17 -18 -18 -19 -20 -20 -21 -21 -22 -22 -22 -22 -22 -22 -22 -22 -22 -21 -21 -20 -20 -19 -19 -19 -19
-10 -11 -11 -12 -12 -13 -13 -14 -14 -15 -15 -15 -16 -16 -17 -17 -17 -18 -18 -19 -20 -20 -21 -22 -22 -22 -23 -23 -23 -23 -23 -22 -22 -22 -22 -22 -21 -21 -20 -20 -20 -20 -20
-11 -12 -13 -13 -13 -14 -15 -15 -15 -16 -16 -16 -17 -18 -18 -19 -19 -20 -20 -21 -21 -22 -22 -23 -23 -23 -23 -24 -23 -23 -23 -23 -23 -22 -22 -22 -22 -21 -21 -20 -20 -20 -20
-13 -13 -14 -14 -15 -15 -16 -16 -17 -17 -18 -18 -19 -19 -20 -20 -21 -21 -22 -22 -23 -23 -23 -23 -24 -24 -24 -24 -24 -24 -24 -23 -23 -23 -23 -22 -22 -22 -21 -21 -20 -20 -20
-14 -15 -15 -16 -16 -17 -17 -18 -18 -19 -19 -20 -20 -21 -21 -22 -22 -23 -23 -23 -24 -24 -24 -24 -24 -25 -25 -24 -24 -24 -24 -24 -24 -23 -23 -23 -22 -22 -21 -21 -20 -20 -20
-15 -16 -16 -17 -18 -18 -19 -20 -20 -21 -21 -21 -22 -22 -23 -23 -23 -24 -24 -24 -24 -24 -25 -25 -25 -25 -25 -25 -25 -25 -25 -24 -24 -24 -23 -23 -23 -22 -22 -21 -21 -20 -20

GFSGL_700_temp_081.txt.gz
Temp
5 5 5 5 4 3 3 2 2 2 2 2 1 1 1 1 -1 -1 -1 -1 -2 -3 -3 -3 -3 -4 -4 -5 -5 -6 -6 -7 -7 -7 -8 -9 -9 -10 -10 -11 -12 -14 -14
5 4 4 4 4 3 3 2 2 2 2 2 2 1 1 -0 -2 -2 -2 -2 -2 -3 -4 -3 -4 -5 -5 -6 -6 -6 -7 -8 -9 -8 -9 -9 -9 -10 -11 -12 -13 -14 -15
4 4 4 4 4 3 2 1 2 2 2 1 1 0 -0 -2 -2 -2 -2 -2 -2 -4 -4 -4 -5 -5 -6 -6 -7 -8 -8 -9 -9 -9 -9 -9 -10 -11 -11 -12 -13 -15 -15
4 3 5 5 4 2 2 2 1 1 1 1 1 -1 -1 -1 -2 -2 -2 -3 -3 -4 -4 -5 -5 -6 -7 -7 -8 -8 -9 -9 -9 -9 -9 -9 -10 -10 -11 -12 -13 -15 -15
4 4 4 4 3 2 2 2 2 1 1 0 0 -1 -1 -2 -2 -2 -3 -3 -4 -4 -5 -5 -6 -7 -7 -8 -8 -9 -9 -9 -9 -10 -10 -10 -10 -10 -12 -14 -15 -15 -16
4 4 4 3 3 2 2 2 2 1 1 1 -0 -1 -2 -1 -2 -3 -3 -4 -5 -5 -6 -7 -7 -8 -8 -8 -9 -9 -9 -10 -10 -10 -10 -11 -10 -11 -12 -14 -16 -15 -16
3 3 3 3 3 3 2 2 2 1 0 -1 -1 -1 -2 -2 -3 -4 -4 -5 -6 -6 -7 -7 -8 -8 -8 -8 -9 -9 -9 -10 -10 -11 -11 -11 -11 -12 -13 -14 -16 -16 -17
3 3 3 3 3 3 3 2 1 0 -1 -1 -1 -1 -2 -2 -4 -4 -5 -6 -7 -7 -8 -8 -8 -8 -9 -9 -9 -9 -10 -10 -11 -11 -12 -11 -12 -12 -13 -15 -16 -16 -17
3 3 3 3 3 3 2 2 -0 -1 -1 -1 -2 -2 -4 -5 -5 -5 -6 -7 -7 -8 -8 -8 -8 -9 -9 -9 -10 -10 -10 -11 -11 -11 -12 -12 -12 -13 -14 -15 -17 -16 -17
4 3 3 3 3 3 1 -1 -2 -2 -2 -3 -3 -4 -5 -5 -6 -6 -7 -8 -8 -8 -8 -9 -9 -10 -10 -10 -10 -11 -11 -11 -11 -12 -12 -12 -13 -14 -15 -15 -17 -17 -17
3 3 3 2 2 1 -1 -2 -2 -2 -3 -4 -5 -5 -5 -6 -7 -8 -8 -9 -9 -9 -9 -10 -10 -10 -11 -11 -11 -11 -12 -12 -12 -12 -13 -13 -14 -15 -15 -16 -17 -17 -17
2 2 2 1 0 -1 -2 -2 -2 -4 -5 -5 -5 -5 -6 -6 -8 -9 -11 -10 -10 -10 -10 -10 -10 -11 -11 -12 -12 -12 -13 -13 -13 -13 -14 -14 -15 -16 -17 -17 -17 -17 -18
2 1 1 0 -1 -2 -2 -2 -4 -5 -5 -5 -6 -6 -7 -9 -11 -12 -12 -12 -11 -10 -10 -11 -11 -11 -12 -12 -13 -13 -14 -14 -14 -14 -15 -15 -16 -17 -17 -17 -17 -18 -18
1 1 -0 -1 -1 -2 -3 -4 -5 -6 -6 -6 -7 -9 -11 -11 -11 -12 -12 -12 -11 -11 -11 -12 -12 -12 -13 -13 -13 -14 -14 -15 -15 -15 -16 -16 -17 -18 -17 -18 -18 -18 -18
0 -0 -1 -2 -3 -4 -5 -5 -6 -6 -7 -7 -9 -11 -12 -11 -13 -13 -13 -13 -12 -12 -12 -12 -13 -13 -13 -14 -14 -15 -15 -15 -16 -17 -17 -18 -18 -18 -18 -18 -18 -18 -18
-0 -1 -3 -4 -5 -5 -5 -6 -7 -8 -9 -10 -10 -10 -12 -13 -14 -13 -13 -14 -13 -13 -13 -13 -14 -14 -14 -15 -15 -15 -16 -16 -17 -17 -18 -19 -19 -19 -18 -18 -18 -18 -18
-2 -4 -5 -5 -5 -5 -6 -8 -9 -9 -10 -11 -11 -11 -12 -13 -13 -13 -14 -14 -14 -14 -14 -14 -15 -15 -16 -16 -16 -17 -17 -18 -18 -19 -19 -19 -19 -19 -19 -19 -19 -19 -18
-5 -5 -5 -6 -8 -8 -8 -8 -8 -9 -10 -11 -12 -12 -12 -12 -13 -14 -14 -14 -14 -15 -15 -16 -16 -17 -17 -17 -18 -18 -19 -19 -20 -20 -21 -21 -20 -20 -19 -20 -19 -19 -19
-6 -8 -8 -8 -8 -8 -9 -9 -10 -11 -11 -12 -12 -12 -12 -13 -14 -14 -15 -15 -15 -16 -16 -17 -18 -18 -19 -19 -20 -20 -20 -21 -21 -21 -22 -21 -21 -21 -21 -20 -19 -19 -19
-8 -8 -9 -9 -9 -10 -10 -11 -11 -12 -13 -13 -13 -14 -14 -15 -15 -16 -16 -17 -17 -18 -18 -18 -19 -20 -20 -21 -21 -21 -22 -22 -22 -22 -22 -22 -22 -22 -22 -21 -20 -20 -19
-9 -10 -10 -10 -11 -11 -12 -12 -13 -13 -13 -14 -15 -15 -15 -16 -17 -17 -17 -18 -18 -19 -19 -20 -20 -21 -21 -22 -22 -23 -23 -23 -23 -23 -23 -23 -22 -22 -22 -21 -20 -20 -19
-10 -11 -11 -12 -12 -12 -13 -13 -14 -14 -15 -16 -16 -17 -17 -18 -18 -18 -19 -19 -20 -20 -21 -22 -22 -22 -23 -23 -23 -23 -24 -24 -24 -23 -23 -23 -23 -22 -22 -22 -21 -20 -20
-11 -12 -12 -13 -13 -14 -14 -15 -15 -16 -16 -17 -18 -18 -19 -19 -20 -20 -20 -21 -21 -22 -22 -23 -23 -24 -24 -24 -24 -24 -24 -24 -24 -24 -23 -23 -23 -23 -22 -22 -21 -21 -21
-12 -13 -13 -14 -14 -15 -16 -16 -17 -18 -18 -19 -19 -19 -20 -21 -21 -22 -22 -22 -23 -23 -24 -24 -24 -24 -24 -25 -25 -25 -25 -24 -24 -24 -24 -23 -23 -23 -23 -22 -21 -21 -21
-14 -14 -15 -16 -16 -17 -17 -18 -19 -19 -20 -20 -21 -21 -22 -22 -23 -23 -23 -24 -24 -24 -25 -25 -25 -25 -25 -25 -25 -25 -25 -25 -25 -25 -24 -24 -23 -23 -23 -22 -22 -21 -21
-15 -16 -16 -17 -17 -18 -19 -20 -21 -21 -22 -22 -23 -23 -23 -24 -24 -24 -24 -25 -25 -25 -25 -26 -26 -26 -26 -26 -26 -26 -25 -25 -25 -25 -25 -24 -24 -23 -23 -22 -22 -21 -21

GFSGL_700_temp_084.txt.gz
Temp
5 5 5 5 4 4 3 3 3 2 2 1 1 1 0 1 1 0 -0 -1 -1 -3 -2 -3 -3 -4 -4 -4 -4 -4 -5 -5 -5 -5 -6 -6 -7 -8 -8 -9 -9 -9 -10
5 5 5 4 4 3 3 2 2 1 1 1 1 0 1 1 0 0 -0 -2 -2 -3 -2 -3 -3 -4 -4 -4 -4 -5 -5 -6 -6 -6 -6 -7 -8 -8 -9 -9 -9 -10 -10
5 5 5 5 4 3 3 3 2 0 1 1 1 1 1 1 0 -0 -0 -2 -3 -2 -3 -3 -3 -4 -4 -5 -5 -5 -6 -6 -7 -7 -7 -8 -9 -9 -9 -10 -10 -11 -11
5 5 5 5 4 4 3 2 1 1 1 2 1 1 1 0 -0 -1 -1 -2 -2 -3 -4 -3 -4 -5 -5 -6 -6 -6 -7 -7 -8 -8 -8 -8 -9 -9 -10 -10 -10 -10 -11
5 5 4 4 4 3 2 2 2 2 2 1 1 1 1 0 -1 -1 -2 -2 -3 -3 -4 -4 -5 -6 -6 -6 -6 -7 -8 -8 -8 -8 -9 -9 -9 -10 -10 -10 -11 -11 -11
5 4 4 4 3 3 2 3 2 2 2 1 1 1 1 0 -1 -1 -2 -2 -3 -4 -4 -5 -6 -6 -6 -7 -7 -8 -8 -9 -9 -9 -10 -10 -10 -10 -11 -11 -11 -11 -11
4 3 3 3 3 3 3 3 2 2 1 1 1 0 -1 -0 -1 -2 -2 -3 -4 -5 -5 -6 -7 -7 -7 -8 -8 -9 -9 -9 -10 -10 -10 -10 -10 -11 -11 -11 -12 -12 -12
3 3 3 2 2 2 2 2 2 2 2 1 0 0 -0 -1 -2 -3 -4 -5 -5 -6 -6 -7 -8 -8 -8 -9 -9 -9 -9 -10 -10 -10 -10 -11 -11 -12 -12 -12 -12 -12 -12
3 3 3 3 3 3 3 3 2 2 1 0 -0 -1 -2 -2 -3 -4 -4 -6 -6 -6 -7 -8 -9 -10 -9 -9 -9 -9 -9 -10 -10 -11 -11 -11 -12 -12 -13 -13 -13 -14 -13
3 3 3 3 3 3 3 3 2 2 -1 -2 -2 -3 -2 -3 -4 -4 -5 -6 -6 -7 -9 -10 -11 -11 -11 -11 -10 -10 -10 -10 -11 -11 -12 -12 -12 -13 -13 -14 -14 -15 -15
3 3 3 2 2 2 2 2 1 -1 -2 -3 -4 -3 -3 -4 -5 -5 -6 -7 -9 -11 -11 -11 -12 -12 -12 -11 -11 -11 -11 -11 -11 -12 -12 -12 -13 -13 -14 -14 -15 -16 -17
3 2 2 2 2 1 1 0 -1 -3 -3 -3 -3 -4 -6 -5 -6 -6 -7 -9 -11 -12 -13 -13 -13 -13 -12 -13 -13 -13 -13 -12 -12 -12 -13 -13 -14 -14 -14 -15 -16 -17 -17
2 2 2 1 1 1 -0 -1 -3 -4 -3 -4 -6 -5 -5 -6 -6 -7 -9 -13 -13 -12 -13 -14 -14 -14 -14 -14 -13 -13 -13 -13 -13 -14 -14 -14 -14 -15 -15 -16 -16 -17 -17
2 1 1 1 0 -1 -2 -4 -5 -4 -4 -5 -5 -6 -6 -7 -8 -11 -12 -12 -11 -11 -12 -14 -14 -14 -14 -14 -14 -14 -14 -14 -15 -15 -15 -15 -15 -16 -16 -17 -17 -18 -18
1 1 0 -0 -2 -3 -5 -5 -5 -5 -5 -6 -6 -7 -8 -9 -9 -9 -10 -11 -11 -12 -13 -14 -14 -14 -14 -15 -15 -15 -15 -15 -16 -16 -16 -17 -17 -17 -17 -18 -19 -18 -18
-1 -1 -2 -3 -5 -5 -5 -5 -5 -5 -6 -8 -9 -9 -8 -9 -9 -10 -11 -12 -13 -13 -14 -14 -14 -14 -15 -15 -16 -16 -16 -16 -17 -17 -17 -18 -18 -18 -18 -19 -19 -19 -18
-3 -4 -4 -5 -6 -6 -6 -7 -8 -8 -8 -8 -8 -9 -10 -11 -12 -12 -13 -14 -14 -14 -14 -15 -15 -15 -16 -17 -17 -17 -17 -17 -18 -18 -19 -19 -19 -19 -20 -20 -20 -19 -19
-6 -6 -7 -7 -8 -8 -8 -8 -9 -9 -9 -10 -10 -11 -11 -12 -12 -13 -13 -13 -14 -15 -15 -15 -16 -17 -17 -18 -18 -18 -18 -19 -19 -20 -20 -20 -21 -21 -21 -21 -21 -20 -20
-7 -7 -8 -8 -8 -9 -9 -9 -9 -10 -10 -11 -12 -12 -13 -13 -14 -14 -14 -15 -15 -16 -16 -17 -18 -18 -19 -19 -19 -20 -20 -20 -21 -21 -21 -22 -22 -22 -22 -22 -21 -21 -20
-8 -8 -9 -9 -9 -10 -10 -10 -11 -12 -12 -12 -13 -14 -14 -14 -15 -15 -16 -16 -17 -18 -18 -19 -20 -20 -20 -21 -21 -21 -22 -22 -22 -22 -23 -23 -23 -23 -23 -22 -22 -22 -21
-9 -9 -10 -10 -10 -11 -11 -12 -12 -13 -13 -14 -14 -15 -15 -16 -17 -17 -18 -18 -19 -19 -20 -20 -21 -21 -22 -22 -22 -22 -23 -23 -23 -23 -23 -23 -23 -23 -23 -23 -22 -22 -21
-10 -10 -11 -11 -12 -12 -13 -13 -14 -14 -15 -15 -16 -17 -17 -18 -19 -19 -20 -20 -21 -21 -22 -22 -22 -23 -23 -23 -23 -23 -24 -24 -24 -24 -24 -24 -24 -24 -23 -23 -23 -22 -22
-11 -11 -12 -12 -13 -13 -14 -14 -15 -16 -17 -17 -18 -19 -19 -20 -21 -21 -21 -22 -22 -22 -23 -23 -23 -24 -24 -24 -24 -24 -24 -24 -25 -25 -24 -24 -24 -24 -24 -23 -23 -22 -22
-12 -12 -13 -13 -14 -15 -15 -16 -17 -18 -18 -19 -20 -21 -21 -22 -22 -23 -23 -23 -23 -24 -24 -24 -24 -24 -25 -25 -25 -25 -25 -25 -25 -25 -25 -25 -24 -24 -24 -23 -23 -23 -22
-13 -14 -14 -15 -15 -16 -16 -17 -18 -19 -20 -21 -22 -22 -23 -24 -24 -24 -25 -25 -25 -25 -25 -25 -25 -25 -25 -26 -26 -26 -26 -26 -26 -25 -25 -25 -25 -25 -24 -23 -23 -23 -22
-14 -15 -15 -16 -17 -17 -18 -19 -20 -21 -22 -23 -24 -25 -25 -25 -26 -26 -26 -26 -26 -26 -26 -26 -26 -26 -26 -26 -26 -26 -26 -26 -26 -26 -26 -25 -25 -25 -24 -24 -23 -23 -22

GFSGL_700_temp_087.txt.gz
Temp
5 4 4 4 4 4 4 4 3 3 2 2 1 1 0 0 0 -0 1 0 0 -0 -1 -2 -2 -3 -3 -3 -3 -4 -5 -5 -4 -4 -4 -5 -5 -6 -6 -7 -7 -8 -8
4 4 5 4 4 4 3 3 2 2 2 2 0 0 1 1 -0 -0 0 0 -0 -1 -1 -2 -3 -3 -5 -3 -3 -4 -4 -4 -4 -4 -5 -5 -6 -7 -7 -7 -8 -8 -9
5 5 5 4 4 4 3 3 3 3 2 2 0 1 0 -0 0 0 -0 -0 -0 -1 -2 -2 -3 -3 -4 -4 -3 -4 -5 -5 -5 -5 -6 -6 -7 -7 -8 -8 -8 -9 -9
6 5 5 4 4 4 3 3 3 2 1 1 0 1 1 1 1 0 0 0 -0 -2 -2 -2 -3 -3 -3 -4 -4 -4 -5 -6 -6 -6 -7 -7 -8 -8 -9 -9 -9 -9 -10
5 5 5 5 4 3 3 3 2 2 2 1 2 2 2 1 1 1 0 -0 -2 -2 -2 -2 -3 -4 -3 -4 -5 -5 -6 -6 -7 -7 -8 -8 -8 -9 -9 -9 -9 -10 -10
5 5 4 4 4 3 3 3 2 2 2 2 1 1 1 1 0 -0 -1 -1 -2 -2 -2 -3 -3 -3 -4 -5 -5 -6 -7 -7 -8 -8 -8 -9 -9 -9 -9 -10 -10 -10 -10
5 4 4 4 3 3 3 2 2 2 2 2 1 1 1 1 0 -0 -1 -1 -2 -2 -3 -3 -4 -5 -6 -6 -6 -7 -8 -8 -9 -9 -9 -9 -10 -10 -10 -10 -11 -11 -11
4 3 3 3 3 3 2 2 1 1 1 2 1 1 -0 0 -1 -1 -1 -2 -2 -4 -4 -4 -6 -6 -6 -7 -7 -9 -10 -10 -11 -11 -10 -11 -11 -11 -11 -11 -12 -12 -12
3 3 3 2 2 2 2 2 2 2 2 1 1 0 -0 -0 -1 -1 -2 -3 -3 -4 -5 -6 -7 -7 -8 -9 -10 -10 -11 -12 -11 -12 -12 -12 -13 -13 -13 -13 -12 -13 -13
3 2 2 2 2 2 2 3 3 3 2 -0 -1 -1 -1 -1 -2 -3 -3 -4 -4 -5 -6 -6 -7 -8 -10 -12 -12 -12 -12 -12 -12 -12 -13 -13 -13 -13 -13 -13 -14 -14 -14
3 2 2 2 2 2 2 2 2 2 1 0 -2 -3 -4 -4 -3 -3 -4 -4 -5 -5 -6 -7 -7 -10 -12 -13 -13 -12 -12 -13 -14 -14 -13 -13 -14 -13 -13 -14 -14 -15 -15
3 3 3 2 2 2 2 1 1 1 -0 -2 -3 -3 -3 -4 -3 -4 -5 -5 -6 -6 -7 -9 -10 -12 -12 -12 -12 -13 -14 -14 -14 -13 -14 -14 -14 -14 -14 -14 -15 -15 -16
2 2 2 2 1 1 1 1 0 -0 -2 -4 -4 -4 -4 -4 -4 -5 -5 -6 -7 -9 -10 -10 -10 -10 -12 -13 -13 -14 -13 -14 -14 -14 -14 -15 -15 -15 -15 -15 -15 -16 -16
2 1 1 1 1 0 -0 -1 -3 -4 -4 -4 -4 -4 -4 -5 -5 -5 -7 -8 -9 -8 -9 -10 -12 -13 -12 -13 -13 -14 -14 -14 -14 -15 -15 -16 -16 -16 -16 -16 -16 -16 -17
0 -0 -0 -1 -2 -3 -3 -4 -5 -5 -4 -5 -5 -5 -6 -7 -8 -9 -8 -8 -9 -10 -10 -11 -12 -13 -13 -14 -14 -14 -15 -15 -16 -16 -17 -17 -17 -17 -17 -17 -18 -18 -18
-2 -3 -3 -4 -4 -4 -5 -6 -5 -5 -6 -7 -7 -8 -8 -9 -9 -9 -9 -10 -11 -11 -13 -13 -14 -15 -15 -15 -15 -16 -16 -16 -17 -18 -18 -18 -18 -18 -18 -19 -19 -19 -19
-3 -3 -4 -5 -5 -6 -7 -7 -7 -7 -8 -8 -8 -9 -9 -9 -10 -10 -11 -12 -13 -14 -14 -15 -15 -15 -16 -16 -16 -16 -17 -18 -18 -18 -19 -19 -19 -19 -20 -20 -20 -20 -20
-5 -6 -6 -6 -7 -8 -8 -8 -8 -9 -9 -9 -10 -10 -10 -11 -12 -12 -13 -13 -14 -15 -15 -15 -16 -16 -16 -17 -18 -18 -19 -19 -20 -20 -20 -20 -21 -21 -21 -21 -22 -22 -21
-7 -7 -8 -8 -8 -8 -9 -9 -9 -10 -10 -10 -11 -11 -12 -12 -13 -13 -14 -15 -15 -15 -16 -17 -17 -18 -19 -19 -20 -20 -20 -21 -21 -21 -22 -22 -22 -22 -23 -23 -23 -23 -22
-7 -8 -8 -9 -9 -9 -10 -10 -11 -11 -11 -12 -12 -13 -14 -14 -15 -15 -16 -16 -17 -18 -18 -19 -20 -20 -21 -21 -21 -22 -22 -22 -22 -23 -23 -23 -23 -24 -24 -23 -23 -23 -23
-8 -9 -9 -9 -10 -10 -11 -11 -12 -12 -13 -13 -14 -14 -15 -16 -16 -17 -18 -19 -19 -20 -20 -21 -21 -22 -22 -22 -23 -23 -23 -23 -24 -24 -24 -24 -24 -24 -24 -24 -24 -23 -23
-9 -10 -10 -11 -11 -11 -12 -12 -13 -13 -14 -14 -15 -16 -17 -17 -18 -19 -20 -21 -22 -22 -23 -23 -23 -23 -23 -24 -24 -24 -24 -25 -25 -25 -25 -25 -25 -25 -25 -24 -24 -24 -23
-10 -11 -11 -11 -12 -12 -13 -13 -14 -14 -15 -16 -17 -18 -19 -20 -21 -22 -23 -23 -24 -24 -24 -24 -24 -25 -25 -25 -25 -25 -25 -25 -25 -26 -26 -26 -26 -25 -25 -25 -24 -24 -23
-11 -12 -12 -12 -13 -13 -14 -15 -15 -16 -17 -18 -19 -20 -21 -22 -23 -24 -25 -25 -26 -26 -26 -26 -26 -26 -26 -26 -26 -26 -26 -26 -26 -26 -26 -26 -26 -26 -25 -25 -24 -24 -23
-12 -12 -13 -14 -14 -15 -15 -16 -17 -18 -19 -20 -21 -22 -24 -25 -26 -26 -27 -27 -27 -27 -27 -27 -27 -27 -27 -27 -27 -27 -27 -27 -27 -27 -26 -26 -26 -26 -26 -25 -25 -24 -23
-13 -14 -14 -15 -15 -16 -17 -18 -19 -20 -21 -22 -23 -24 -25 -26 -27 -27 -27 -27 -27 -27 -27 -27 -27 -27 -27 -27 -27 -27 -27 -27 -27 -27 -26 -26 -26 -26 -26 -25 -25 -24 -24

GFSGL_700_temp_090.txt.gz
Temp
5 5 4 4 4 4 3 3 3 3 2 2 2 1 1 0 0 0 0 0 -0 -0 -1 -1 -1 -0 -1 -2 -2 -3 -3 -3 -3 -4 -5 -5 -5 -5 -6 -6 -6 -7 -7
5 5 4 4 4 4 4 3 3 3 2 2 1 1 1 0 -0 -0 -0 0 -0 -0 -0 -1 -1 -1 -1 -2 -2 -3 -3 -3 -4 -4 -4 -4 -5 -6 -6 -6 -7 -7 -8
5 4 3 3 4 4 4 3 3 2 2 1 1 0 1 1 0 -0 -0 -0 -0 -0 -0 -1 -1 -2 -2 -2 -2 -3 -4 -3 -4 -4 -4 -5 -6 -6 -7 -7 -7 -8 -8
6 5 5 4 4 4 4 3 3 3 2 2 1 0 1 0 0 1 1 0 -0 -0 -0 -1 -1 -2 -2 -2 -3 -3 -3 -4 -4 -4 -5 -6 -6 -7 -7 -8 -8 -8 -8
5 5 5 4 4 4 4 3 3 3 2 2 2 1 1 1 1 0 1 0 0 -0 -0 -1 -1 -1 -2 -3 -3 -3 -4 -4 -5 -5 -6 -6 -7 -8 -9 -9 -9 -9 -9
5 5 5 4 4 4 3 3 3 2 2 2 2 1 1 1 1 1 1 0 0 -0 -1 -1 -1 -2 -2 -3 -3 -4 -5 -5 -6 -6 -6 -7 -9 -10 -11 -10 -10 -10 -10
5 5 5 4 3 3 3 3 2 2 2 2 1 1 1 1 1 0 0 0 0 -1 -1 -1 -2 -2 -3 -3 -4 -4 -4 -6 -6 -7 -8 -10 -11 -11 -11 -11 -11 -11 -12
5 5 4 4 3 3 2 2 2 1 1 1 1 1 1 1 0 -0 -0 -0 -1 -1 -1 -2 -2 -3 -4 -4 -4 -5 -6 -7 -7 -8 -10 -12 -12 -12 -12 -13 -13 -13 -12
4 4 3 3 2 2 2 1 1 1 1 2 2 2 1 -1 -1 -1 -1 -1 -1 -3 -2 -3 -4 -4 -4 -5 -5 -6 -6 -8 -9 -10 -13 -13 -13 -13 -14 -15 -14 -13 -12
4 3 3 2 2 2 2 1 1 2 2 2 2 1 -0 -3 -2 -2 -2 -2 -2 -3 -3 -4 -4 -4 -5 -6 -6 -7 -8 -9 -11 -13 -13 -13 -14 -14 -15 -14 -14 -14 -14
4 3 3 2 2 2 2 2 2 2 2 1 1 1 -1 -2 -3 -2 -3 -3 -4 -4 -4 -4 -5 -6 -6 -7 -8 -8 -9 -10 -11 -12 -12 -12 -13 -14 -14 -14 -14 -14 -14
3 3 2 2 2 2 2 2 1 1 1 0 -1 -3 -4 -4 -3 -3 -4 -4 -4 -5 -5 -6 -6 -7 -8 -9 -9 -9 -10 -11 -12 -12 -13 -14 -14 -14 -14 -14 -15 -15 -16
2 2 2 2 1 1 1 1 -0 -1 -1 -2 -3 -5 -5 -4 -4 -4 -4 -5 -6 -6 -7 -8 -9 -9 -9 -10 -10 -12 -13 -14 -14 -14 -14 -14 -14 -14 -15 -15 -15 -16 -16
2 2 1 1 0 -0 -0 -1 -2 -2 -3 -4 -5 -5 -4 -4 -5 -5 -7 -8 -8 -9 -9 -9 -9 -10 -11 -12 -13 -14 -14 -14 -15 -15 -15 -15 -15 -15 -16 -16 -16 -17 -17
1 1 1 -0 -1 -1 -2 -3 -4 -4 -5 -6 -5 -6 -6 -7 -7 -8 -8 -8 -9 -9 -10 -10 -11 -12 -13 -14 -14 -15 -15 -15 -16 -16 -16 -16 -17 -17 -17 -18 -18 -18 -18
-0 -0 -1 -2 -2 -3 -4 -5 -5 -6 -6 -7 -7 -7 -8 -8 -8 -9 -9 -10 -10 -10 -11 -12 -13 -14 -14 -15 -15 -16 -16 -17 -17 -17 -17 -18 -18 -18 -19 -19 -19 -19 -19
-1 -2 -3 -4 -4 -5 -6 -6 -7 -7 -8 -8 -8 -9 -9 -9 -10 -10 -10 -11 -12 -13 -13 -14 -15 -15 -16 -16 -17 -17 -18 -18 -18 -19 -19 -19 -20 -20 -20 -20 -20 -20 -20
-3 -4 -5 -5 -6 -6 -6 -7 -8 -8 -9 -9 -10 -10 -10 -11 -11 -11 -12 -13 -14 -14 -15 -16 -16 -17 -18 -18 -19 -19 -20 -20 -20 -21 -21 -21 -21 -21 -21 -22 -22 -22 -22
-6 -6 -6 -6 -7 -7 -8 -8 -9 -9 -10 -10 -11 -11 -12 -12 -13 -13 -14 -15 -16 -16 -17 -18 -19 -19 -20 -21 -21 -21 -21 -22 -22 -22 -22 -23 -23 -23 -23 -23 -23 -23 -23
-7 -7 -7 -8 -8 -9 -9 -10 -10 -10 -11 -11 -12 -13 -13 -14 -15 -15 -16 -17 -18 -18 -19 -20 -21 -22 -22 -23 -23 -23 -23 -24 -24 -24 -24 -24 -24 -24 -24 -24 -24 -24 -24
-8 -8 -9 -9 -9 -10 -10 -11 -11 -12 -12 -13 -13 -14 -14 -15 -16 -17 -18 -19 -20 -21 -22 -23 -23 -24 -24 -25 -25 -25 -25 -25 -25 -25 -25 -25 -25 -25 -25 -25 -25 -25 -24
-9 -9 -9 -10 -10 -11 -11 -12 -12 -13 -13 -14 -14 -15 -16 -17 -18 -19 -20 -21 -22 -23 -24 -25 -25 -26 -26 -26 -26 -26 -26 -26 -26 -26 -26 -26 -26 -26 -26 -26 -26 -25 -25
-10 -10 -11 -11 -11 -12 -12 -13 -13 -14 -15 -16 -17 -18 -18 -19 -20 -21 -22 -23 -25 -26 -26 -27 -27 -27 -27 -27 -27 -27 -27 -27 -27 -27 -27 -27 -27 -27 -27 -26 -26 -25 -25
-11 -11 -11 -12 -12 -13 -13 -14 -15 -16 -16 -17 -18 -19 -20 -21 -22 -23 -24 -25 -26 -27 -27 -27 -27 -27 -27 -27 -27 -27 -27 -27 -27 -27 -27 -27 -27 -27 -27 -26 -26 -25 -25
-12 -12 -12 -13 -13 -14 -15 -16 -16 -17 -18 -19 -20 -21 -22 -23 -24 -25 -25 -26 -26 -26 -27 -27 -27 -27 -27 -27 -27 -27 -28 -28 -28 -27 -27 -27 -27 -27 -27 -26 -26 -26 -25
-12 -13 -14 -14 -15 -16 -16 -17 -18 -19 -20 -21 -22 -22 -23 -23 -24 -25 -25 -25 -26 -26 -26 -27 -27 -27 -27 -27 -28 -28 -28 -28 -28 -27 -27 -27 -27 -27 -27 -26 -26 -26 -25

GFSGL_700_temp_093.txt.gz
Temp
5 5 5 4 4 4 4 4 4 3 3 2 2 2 1 1 1 0 0 0 -0 -0 -0 -0 -0 0 -0 -1 -1 -1 -1 -2 -2 -3 -3 -4 -3 -4 -5 -5 -4 -5 -5
5 4 4 4 4 4 4 3 3 3 2 2 2 2 2 1 1 -0 -0 -0 -0 -0 -0 -0 -0 -0 -1 -1 -1 -1 -1 -2 -2 -3 -4 -4 -4 -4 -4 -5 -5 -6 -6
5 5 4 4 4 3 3 3 3 2 2 2 1 1 1 0 0 -0 -0 0 -0 -0 -0 -1 -0 -1 -1 -1 -0 -1 -1 -2 -2 -3 -3 -4 -4 -4 -5 -5 -6 -7 -7
5 5 5 4 4 4 4 3 3 2 2 2 2 1 1 1 0 0 0 0 0 0 -0 -0 0 -0 -0 -0 -1 -1 -2 -2 -2 -3 -3 -3 -4 -5 -5 -6 -6 -7 -8
5 5 5 5 4 4 3 3 3 3 3 3 2 2 2 2 1 1 0 0 0 0 -0 -1 -1 -1 0 -1 -1 -1 -1 -2 -3 -3 -4 -4 -5 -5 -6 -6 -6 -7 -9
5 5 5 5 5 4 4 4 3 3 3 2 2 2 2 2 1 1 1 1 1 0 0 0 -1 -1 -1 -1 -1 -1 -2 -2 -3 -3 -4 -5 -5 -5 -7 -7 -7 -8 -9
6 5 5 5 5 4 4 3 3 3 2 2 2 2 2 1 1 1 1 1 0 0 -0 -1 -0 -1 -1 -2 -2 -2 -2 -3 -4 -4 -5 -5 -6 -7 -8 -8 -8 -10 -11
6 5 5 5 4 4 4 3 3 2 2 2 2 1 2 1 1 0 -0 -1 -1 -1 -0 -0 -1 -1 -2 -2 -3 -3 -3 -4 -5 -5 -6 -7 -8 -8 -8 -9 -10 -12 -11
6 6 5 5 4 4 3 3 2 2 2 1 2 1 1 1 1 1 1 -0 -1 -2 -2 -2 -2 -2 -3 -3 -4 -4 -4 -4 -5 -6 -7 -8 -8 -8 -9 -9 -11 -12 -12
5 5 5 4 4 3 3 2 2 1 1 1 1 1 1 1 0 0 0 -1 -1 -2 -2 -2 -3 -3 -4 -4 -5 -5 -5 -6 -7 -8 -8 -8 -9 -10 -11 -13 -13 -13 -13
4 4 4 3 3 3 2 2 1 1 1 1 1 1 1 0 -0 -0 -1 -3 -3 -3 -3 -4 -4 -5 -5 -5 -6 -7 -8 -9 -9 -9 -10 -10 -12 -13 -14 -14 -14 -14 -14
4 4 3 3 2 2 2 1 1 1 1 0 0 -0 -1 -1 -2 -3 -3 -5 -4 -4 -5 -5 -6 -7 -7 -8 -8 -8 -9 -9 -10 -11 -12 -13 -14 -14 -14 -15 -15 -15 -15
3 3 2 2 2 1 1 1 1 0 -0 -1 -1 -2 -3 -4 -4 -5 -5 -5 -5 -6 -7 -8 -8 -8 -9 -9 -9 -10 -11 -11 -12 -13 -14 -14 -15 -15 -15 -15 -16 -16 -16
2 2 1 1 1 1 0 -0 -1 -1 -2 -3 -4 -5 -5 -5 -5 -6 -6 -7 -7 -8 -8 -9 -9 -10 -10 -11 -11 -12 -13 -13 -14 -15 -15 -16 -16 -16 -16 -17 -17 -17 -17
1 1 0 0 -0 -1 -1 -2 -2 -3 -5 -6 -6 -6 -6 -7 -7 -7 -8 -8 -8 -9 -9 -10 -10 -11 -12 -12 -13 -14 -15 -15 -16 -17 -17 -17 -18 -18 -18 -18 -18 -18 -18
0 -1 -1 -2 -2 -3 -3 -4 -5 -5 -6 -7 -7 -8 -8 -8 -8 -9 -9 -9 -10 -10 -10 -11 -12 -13 -14 -15 -15 -16 -17 -18 -18 -19 -19 -19 -19 -19 -20 -20 -20 -20 -20
-2 -2 -2 -3 -4 -4 -5 -6 -6 -7 -8 -8 -8 -9 -9 -9 -9 -10 -10 -11 -11 -12 -12 -13 -14 -15 -16 -17 -18 -19 -19 -20 -20 -21 -21 -21 -21 -21 -21 -22 -22 -22 -21
-3 -4 -4 -5 -5 -6 -7 -7 -8 -8 -9 -9 -9 -9 -10 -10 -10 -11 -11 -12 -12 -13 -14 -15 -16 -17 -18 -19 -20 -21 -21 -22 -23 -23 -23 -23 -23 -23 -23 -23 -23 -23 -23
-5 -5 -6 -6 -7 -8 -8 -8 -9 -9 -9 -10 -10 -10 -11 -11 -12 -12 -13 -14 -15 -15 -16 -17 -18 -19 -20 -22 -22 -23 -24 -24 -25 -25 -25 -25 -25 -25 -25 -25 -25 -25 -24
-7 -7 -8 -8 -8 -8 -9 -9 -9 -10 -10 -11 -11 -11 -12 -12 -13 -14 -15 -15 -16 -17 -19 -20 -21 -22 -23 -24 -25 -25 -26 -26 -26 -26 -26 -26 -26 -26 -26 -26 -26 -25 -25
-8 -8 -8 -9 -9 -9 -9 -10 -10 -10 -11 -11 -12 -12 -13 -14 -15 -16 -17 -18 -19 -20 -21 -22 -23 -24 -25 -26 -26 -27 -27 -27 -27 -27 -27 -27 -27 -27 -27 -26 -26 -26 -26
-9 -9 -9 -9 -9 -10 -10 -11 -11 -12 -12 -13 -14 -14 -15 -16 -17 -18 -19 -20 -21 -22 -23 -23 -24 -25 -26 -26 -26 -26 -27 -27 -27 -27 -27 -27 -27 -27 -27 -27 -27 -26 -26
-9 -9 -10 -10 -10 -11 -11 -12 -12 -13 -14 -14 -15 -17 -17 -18 -19 -20 -21 -22 -23 -23 -24 -24 -25 -25 -26 -26 -26 -26 -27 -27 -27 -27 -27 -27 -28 -28 -27 -27 -27 -27 -26
-10 -10 -11 -11 -12 -12 -13 -13 -14 -14 -15 -17 -17 -18 -19 -20 -20 -21 -22 -23 -23 -23 -24 -24 -25 -25 -26 -26 -26 -27 -27 -27 -27 -27 -27 -28 -28 -28 -27 -27 -27 -27 -26
-11 -12 -12 -13 -13 -13 -14 -14 -15 -17 -17 -18 -19 -19 -20 -21 -22 -22 -22 -23 -23 -24 -24 -24 -25 -25 -26 -26 -26 -27 -27 -27 -27 -27 -27 -28 -28 -28 -27 -27 -27 -27 -26
-12 -13 -13 -14 -14 -15 -15 -16 -17 -18 -18 -19 -20 -21 -21 -22 -22 -22 -23 -23 -24 -24 -24 -25 -25 -26 -26 -26 -27 -27 -27 -27 -27 -27 -27 -27 -27 -27 -27 -27 -27 -27 -26

GFSGL_700_temp_096.txt.gz
Temp
5 5 5 5 4 4 4 4 4 3 3 3 2 2 2 2 2 1 1 1 0 0 0 -0 -0 -1 -1 -1 -1 -1 -1 -1 -1 -1 -1 -1 -2 -2 -2 -2 -3 -3 -3
5 5 5 5 4 4 4 4 3 3 3 2 2 2 2 2 1 1 1 0 -0 -0 -0 -1 -1 -1 -0 -0 -1 -1 -1 -1 -1 -1 -1 -2 -1 -2 -2 -3 -4 -3 -4
5 5 5 5 4 4 4 4 3 3 3 2 2 2 2 1 1 1 1 -0 -0 -0 -0 -0 -0 -0 0 0 -0 -1 -1 -1 -1 -1 -2 -2 -1 -2 -2 -3 -3 -4 -4
5 5 5 5 4 4 4 3 3 3 2 2 2 1 1 1 1 1 1 1 0 0 0 0 0 0 -0 0 -0 -0 -1 -0 -1 -1 -1 -1 -2 -2 -3 -3 -3 -4 -5
5 5 5 5 5 4 4 3 3 3 2 2 1 2 2 2 1 1 1 1 1 1 0 1 0 -0 -1 -0 -0 -0 -1 -1 -1 -1 -2 -2 -2 -2 -3 -3 -5 -5 -6
6 5 5 5 5 5 4 4 3 3 3 2 2 2 2 2 2 2 1 1 1 1 1 1 1 -0 -0 -0 -1 -1 -1 -1 -1 -1 -2 -2 -2 -3 -4 -5 -6 -6 -7
6 5 5 5 5 5 4 4 4 4 3 3 3 3 3 2 2 2 1 1 1 1 0 -0 -1 -0 -1 -1 -1 -1 -1 -1 -2 -2 -3 -3 -3 -4 -5 -6 -6 -7 -7
6 6 5 5 5 5 5 4 4 4 3 3 3 2 2 2 2 1 1 0 0 -0 -0 -0 -0 -1 -1 -2 -2 -2 -2 -2 -3 -4 -4 -4 -5 -5 -5 -6 -8 -8 -8
6 6 6 5 5 5 4 4 3 3 2 2 2 2 1 2 2 1 0 0 1 1 0 -0 -1 -1 -2 -3 -3 -3 -3 -4 -4 -5 -6 -6 -7 -8 -8 -9 -9 -9 -10
6 6 6 5 5 5 4 4 3 3 2 2 1 1 1 2 0 0 -0 1 -0 -1 -0 -1 -1 -2 -3 -4 -4 -4 -5 -5 -6 -7 -7 -8 -9 -9 -9 -9 -10 -11 -12
6 6 6 5 5 4 3 3 2 2 2 1 1 0 -0 -0 -0 -0 -0 -1 -1 -1 -2 -3 -4 -4 -4 -5 -6 -6 -7 -7 -8 -8 -9 -9 -9 -9 -10 -11 -12 -13 -14
5 5 5 5 4 4 3 3 2 2 1 1 0 -0 -0 -1 -1 -1 -2 -3 -4 -5 -5 -5 -5 -6 -7 -7 -7 -8 -8 -8 -9 -9 -9 -10 -11 -12 -13 -13 -14 -14 -15
5 4 4 4 3 3 2 2 2 1 1 0 -0 -1 -2 -3 -4 -5 -5 -5 -5 -6 -6 -6 -7 -7 -8 -8 -8 -9 -9 -10 -11 -11 -12 -13 -14 -14 -15 -15 -16 -16 -16
3 3 3 2 2 1 1 1 0 -0 -1 -1 -2 -3 -4 -5 -5 -6 -6 -6 -7 -7 -7 -8 -8 -8 -9 -10 -10 -10 -11 -12 -13 -14 -15 -16 -16 -17 -17 -17 -17 -18 -18
3 2 1 1 1 0 -1 -1 -1 -2 -3 -4 -4 -5 -6 -6 -6 -7 -7 -7 -8 -8 -9 -9 -9 -9 -10 -11 -12 -13 -13 -14 -15 -16 -17 -18 -19 -19 -20 -20 -20 -20 -20
1 -0 -1 -1 -1 -2 -2 -2 -3 -4 -5 -5 -6 -6 -6 -7 -7 -8 -8 -8 -8 -9 -9 -10 -10 -11 -12 -13 -15 -16 -17 -18 -18 -19 -20 -21 -22 -22 -22 -22 -22 -22 -22
-2 -2 -3 -3 -3 -3 -3 -4 -5 -6 -6 -7 -7 -7 -7 -8 -8 -8 -9 -9 -10 -11 -11 -12 -13 -14 -15 -16 -17 -18 -19 -20 -21 -22 -23 -24 -24 -24 -24 -24 -24 -24 -24
-3 -3 -3 -4 -4 -4 -5 -6 -7 -7 -7 -7 -7 -8 -8 -9 -9 -10 -10 -11 -12 -12 -14 -14 -15 -16 -17 -18 -19 -20 -21 -22 -23 -24 -25 -25 -26 -26 -26 -26 -26 -26 -25
-4 -4 -5 -5 -5 -7 -7 -7 -7 -7 -8 -8 -8 -9 -9 -10 -11 -12 -12 -13 -14 -15 -15 -16 -17 -18 -19 -20 -21 -22 -23 -24 -24 -25 -26 -26 -26 -26 -26 -27 -26 -26 -26
-5 -6 -6 -7 -7 -8 -7 -8 -8 -8 -9 -9 -10 -11 -11 -12 -12 -13 -14 -15 -16 -17 -18 -18 -19 -20 -21 -21 -22 -23 -24 -24 -25 -25 -26 -26 -26 -27 -27 -27 -27 -27 -27
-7 -7 -8 -8 -8 -8 -9 -9 -9 -10 -10 -11 -11 -12 -12 -13 -14 -15 -16 -17 -18 -18 -19 -20 -21 -21 -22 -23 -23 -24 -25 -25 -25 -26 -26 -26 -27 -27 -27 -27 -27 -27 -27
-8 -8 -8 -8 -9 -9 -9 -10 -10 -11 -11 -12 -13 -13 -14 -15 -16 -17 -18 -18 -19 -20 -20 -21 -22 -22 -23 -23 -24 -24 -25 -25 -26 -26 -26 -27 -27 -27 -27 -27 -27 -27 -27
-9 -9 -9 -9 -10 -10 -10 -11 -12 -12 -13 -13 -14 -15 -16 -17 -18 -19 -19 -20 -20 -21 -21 -22 -23 -23 -24 -24 -25 -25 -25 -26 -26 -26 -27 -27 -27 -27 -27 -27 -27 -27 -27
-9 -10 -10 -10 -11 -11 -12 -12 -13 -14 -14 -15 -16 -17 -18 -18 -19 -19 -20 -21 -21 -21 -22 -22 -23 -24 -24 -25 -25 -25 -26 -26 -26 -27 -27 -27 -27 -27 -27 -27 -27 -27 -27
-10 -11 -11 -12 -12 -12 -13 -14 -14 -15 -16 -16 -17 -18 -19 -19 -20 -20 -21 -21 -22 -22 -22 -23 -24 -24 -25 -25 -26 -26 -26 -27 -27 -27 -27 -27 -27 -27 -27 -27 -27 -27 -27
-11 -12 -12 -13 -13 -14 -14 -15 -15 -16 -17 -18 -19 -19 -20 -20 -21 -21 -22 -22 -22 -23 -23 -24 -24 -25 -26 -26 -26 -27 -27 -27 -27 -27 -27 -27 -27 -27 -27 -27 -27 -27 -26

GFSGL_700_temp_099.txt.gz
Temp
6 6 5 5 5 5 4 4 3 3 3 2 2 2 1 1 1 1 1 1 1 1 1 1 1 0 0 -0 -0 -1 -1 -0 -0 0 -1 -1 -1 -1 -1 -1 -1 -2 -2
6 6 5 5 5 5 4 4 4 3 3 3 2 2 2 1 1 2 2 2 1 1 1 1 1 0 -0 0 -0 -0 -1 -0 -0 0 -0 -1 -1 -1 -1 -1 -1 -1 -2
6 5 5 5 5 4 4 4 4 4 3 3 3 3 2 2 2 2 2 1 1 1 1 1 0 -0 0 -0 -0 0 -0 -1 -0 -0 -0 -1 -1 -1 -1 -2 -2 -2 -2
6 5 5 5 5 4 4 4 4 3 3 3 2 2 2 2 2 2 1 1 1 1 1 -0 -0 -0 0 1 -0 -0 -0 -0 -0 -0 -0 -1 -1 -1 -1 -2 -2 -3 -3
6 6 5 5 5 4 4 4 3 3 3 3 3 2 2 2 1 1 1 1 0 0 0 1 1 1 0 0 -0 -0 -1 -1 -0 -0 -1 -1 -1 -1 -2 -2 -3 -3 -4
6 6 5 5 5 4 4 4 4 3 3 3 2 2 1 1 3 2 1 1 0 0 1 1 0 -0 -0 0 -1 -1 -0 -1 -0 -1 -1 -2 -1 -2 -2 -3 -3 -4 -5
6 6 6 5 5 5 5 5 4 4 3 3 4 3 3 2 2 2 1 1 0 0 0 -1 1 -1 -1 -0 -1 -1 -1 -2 -2 -2 -3 -3 -3 -3 -4 -4 -5 -5 -6
6 6 6 5 5 5 5 5 5 5 4 4 3 3 3 3 2 1 1 1 -0 -0 0 -0 -1 -1 -1 -1 -0 -0 -1 -1 -3 -3 -4 -3 -4 -5 -6 -7 -7 -8 -8
6 6 6 5 5 5 5 5 5 4 4 4 3 3 3 2 2 1 1 0 -0 -1 -0 -0 -1 -1 -1 -1 -2 -2 -3 -4 -4 -5 -5 -5 -6 -7 -8 -8 -8 -8 -9
7 6 6 6 6 5 5 5 5 4 4 3 3 2 2 2 1 0 -0 -1 -1 -0 -1 -1 -1 -2 -2 -3 -3 -5 -5 -5 -6 -6 -7 -7 -7 -8 -8 -9 -9 -10 -10
6 6 6 6 6 5 5 5 4 4 3 2 1 1 1 0 -0 -1 0 -0 -0 -1 -1 -2 -2 -3 -4 -5 -5 -6 -6 -7 -7 -7 -8 -8 -8 -9 -9 -10 -11 -11 -12
6 6 5 5 5 5 5 4 4 3 3 2 1 0 -0 -1 -1 -1 -1 -2 -2 -3 -4 -4 -5 -5 -5 -6 -6 -6 -7 -7 -8 -8 -9 -10 -10 -11 -12 -13 -13 -14 -15
5 5 4 5 5 5 4 3 3 2 2 1 1 1 -0 -1 -1 -2 -3 -4 -5 -5 -5 -6 -6 -6 -6 -6 -7 -7 -8 -8 -9 -10 -11 -12 -13 -13 -14 -15 -16 -17 -17
5 4 3 4 3 3 3 2 2 1 1 0 0 -0 -1 -2 -3 -4 -5 -5 -6 -6 -6 -6 -6 -7 -7 -8 -8 -9 -10 -10 -11 -12 -13 -14 -15 -17 -17 -19 -19 -20 -20
4 3 2 3 3 1 -0 1 -0 -0 -0 -1 -2 -3 -3 -4 -5 -5 -5 -6 -6 -6 -7 -7 -8 -8 -9 -10 -10 -11 -12 -13 -14 -15 -16 -17 -18 -19 -20 -21 -22 -23 -23
2 0 -0 -1 -1 -1 -1 -2 -2 -1 -2 -3 -4 -4 -5 -5 -5 -5 -6 -6 -7 -8 -8 -9 -9 -10 -11 -12 -13 -14 -15 -16 -17 -18 -19 -20 -21 -22 -23 -23 -24 -25 -25
-1 -1 -2 -2 -2 -2 -3 -3 -3 -3 -4 -5 -5 -5 -6 -6 -6 -7 -7 -7 -9 -9 -10 -10 -11 -12 -13 -15 -15 -16 -17 -18 -19 -20 -20 -21 -22 -23 -24 -25 -25 -26 -26
-3 -3 -3 -3 -3 -4 -4 -4 -5 -5 -6 -6 -6 -6 -7 -7 -8 -8 -9 -9 -10 -11 -12 -13 -14 -15 -16 -17 -17 -18 -19 -20 -20 -21 -22 -23 -23 -24 -24 -25 -25 -26 -26
-3 -3 -3 -4 -4 -5 -6 -6 -6 -6 -6 -7 -7 -7 -8 -8 -9 -10 -10 -11 -12 -13 -14 -15 -16 -17 -17 -18 -19 -20 -21 -21 -22 -22 -23 -24 -24 -25 -25 -25 -26 -26 -27
-4 -5 -5 -6 -6 -6 -6 -7 -7 -7 -8 -8 -8 -9 -9 -10 -11 -11 -12 -13 -14 -15 -16 -17 -17 -18 -19 -20 -20 -21 -22 -22 -23 -24 -24 -24 -25 -25 -25 -26 -26 -26 -27
-6 -6 -6 -7 -7 -7 -7 -7 -8 -8 -9 -9 -10 -10 -11 -12 -12 -13 -14 -15 -16 -17 -18 -18 -19 -20 -20 -21 -22 -22 -23 -24 -24 -24 -25 -25 -25 -26 -26 -26 -27 -27 -27
-7 -7 -7 -8 -8 -8 -8 -8 -9 -9 -10 -10 -11 -12 -12 -13 -14 -15 -16 -17 -17 -18 -19 -20 -20 -21 -21 -22 -23 -23 -24 -24 -25 -25 -26 -26 -26 -26 -26 -26 -27 -27 -27
-8 -8 -8 -8 -9 -9 -9 -10 -10 -11 -11 -12 -13 -13 -14 -15 -16 -17 -17 -18 -19 -20 -20 -20 -21 -22 -22 -23 -24 -24 -25 -25 -26 -26 -26 -26 -26 -26 -26 -27 -27 -27 -27
-9 -9 -9 -10 -10 -10 -10 -11 -11 -12 -13 -13 -14 -15 -16 -17 -17 -18 -18 -19 -20 -20 -21 -21 -22 -23 -23 -24 -24 -25 -25 -26 -26 -26 -27 -26 -26 -26 -26 -26 -27 -27 -26
-10 -10 -10 -10 -11 -11 -11 -12 -13 -13 -14 -15 -16 -16 -17 -18 -18 -19 -19 -20 -20 -21 -22 -22 -23 -23 -24 -25 -25 -26 -26 -26 -27 -27 -27 -27 -27 -27 -26 -26 -26 -26 -26
-11 -11 -11 -11 -12 -12 -13 -14 -14 -15 -15 -16 -17 -17 -18 -19 -19 -20 -20 -21 -21 -22 -22 -23 -23 -24 -25 -25 -26 -26 -26 -27 -27 -27 -27 -27 -27 -27 -26 -26 -26 -26 -26

GFSGL_700_temp_102.txt.gz
Temp
6 6 6 5 5 5 4 3 2 1 1 1 1 0 -0 -0 -0 -0 -1 -1 -1 1 1 1 1 1 0 0 -0 -0 -0 -0 0 0 -0 -0 -0 -1 -1 -1 -1 -2 -1
6 6 5 5 5 5 4 4 3 3 3 2 2 1 1 1 0 0 0 1 1 1 1 1 1 0 0 0 0 -0 -0 -0 -1 0 -1 -1 -1 -0 -1 -2 -2 -1 -2
6 6 5 5 5 5 5 4 4 4 3 3 3 3 3 2 2 2 1 1 1 1 1 1 0 -0 0 -0 -1 -1 -1 -1 -0 -0 -1 -0 -1 -2 -1 -1 -1 -2 -2
6 6 5 5 5 5 4 4 4 3 3 3 3 2 2 2 1 1 1 1 1 0 0 0 1 1 0 -0 1 -0 -0 -1 -0 -1 -1 -0 -1 -1 -2 -2 -2 -2 -3
6 6 6 5 5 4 4 4 4 3 3 2 2 2 1 1 2 2 1 1 1 1 0 0 0 0 -0 0 -0 0 0 -1 -0 -1 -1 -2 -3 -3 -2 -3 -3 -3 -3
6 6 6 5 5 4 4 4 4 3 3 3 2 2 3 3 3 2 1 0 0 0 0 0 -0 0 0 -1 -0 -1 -1 -1 -1 -1 -2 -2 -2 -3 -2 -4 -5 -5 -5
7 6 6 6 5 5 4 4 4 4 4 4 3 3 3 3 2 2 2 1 0 -1 -0 1 0 0 -0 -1 -1 -1 -1 -1 -1 -2 -2 -2 -3 -4 -4 -4 -5 -5 -5
7 6 6 6 5 5 5 5 5 5 4 4 4 3 3 3 3 3 1 0 -0 0 0 0 -1 0 -1 -1 -1 -1 -2 -2 -3 -2 -2 -3 -4 -5 -5 -6 -6 -6 -7
6 6 6 6 6 6 5 5 5 5 5 4 4 4 3 2 1 1 0 -0 -0 1 0 0 -0 -1 -1 -1 -1 -2 -2 -3 -3 -4 -5 -6 -6 -7 -7 -7 -8 -8 -8
6 6 6 6 6 6 5 5 5 5 4 4 3 2 1 1 0 0 1 1 0 -0 -1 -2 -1 -2 -2 -3 -3 -3 -4 -4 -5 -6 -6 -7 -7 -8 -8 -8 -9 -10 -10
6 6 6 6 6 5 5 4 4 4 3 3 2 0 1 0 1 1 0 -0 -1 -1 -1 -1 -2 -2 -3 -4 -4 -5 -5 -6 -6 -7 -7 -8 -8 -9 -9 -10 -11 -12 -12
6 6 6 5 4 4 4 3 3 1 1 1 1 0 1 0 0 -1 -2 -2 -2 -2 -2 -3 -3 -4 -5 -5 -5 -5 -6 -6 -7 -8 -8 -9 -10 -11 -11 -12 -13 -14 -15
5 5 5 4 4 4 4 1 1 0 0 0 -0 -1 -1 -1 -1 -1 -1 -2 -2 -3 -4 -4 -5 -6 -6 -5 -6 -6 -7 -7 -8 -9 -10 -11 -12 -13 -14 -15 -15 -17 -17
5 4 4 4 3 3 3 2 1 -0 -1 -1 -1 -2 -2 -2 -2 -3 -3 -4 -4 -5 -5 -5 -5 -6 -7 -7 -7 -8 -9 -10 -10 -11 -13 -14 -15 -16 -17 -17 -18 -19 -19
4 3 1 0 -1 -1 1 -0 -1 -1 -2 -3 -3 -3 -3 -3 -4 -5 -5 -5 -5 -6 -6 -6 -6 -7 -8 -9 -10 -10 -11 -12 -13 -15 -16 -16 -17 -18 -19 -19 -20 -21 -22
0 -0 -1 -1 -0 -2 -2 -0 -2 -3 -4 -4 -4 -4 -5 -5 -5 -5 -6 -6 -6 -6 -7 -7 -8 -9 -10 -11 -12 -13 -14 -15 -16 -17 -18 -19 -19 -20 -20 -21 -22 -22 -23
-1 -1 -1 -2 -2 -3 -2 -3 -4 -4 -5 -5 -5 -5 -5 -5 -5 -5 -6 -7 -7 -8 -8 -9 -10 -11 -12 -13 -14 -16 -17 -17 -18 -19 -19 -20 -20 -21 -22 -22 -23 -23 -24
-2 -2 -3 -3 -3 -4 -4 -4 -6 -6 -6 -6 -6 -5 -5 -6 -6 -7 -7 -8 -9 -9 -10 -11 -12 -13 -15 -16 -17 -17 -18 -19 -19 -20 -21 -21 -22 -22 -23 -23 -24 -24 -24
-4 -4 -4 -4 -4 -5 -5 -6 -6 -6 -6 -6 -6 -7 -7 -7 -8 -8 -9 -9 -10 -11 -12 -14 -15 -16 -17 -17 -18 -19 -19 -20 -21 -22 -22 -23 -23 -24 -24 -25 -25 -25 -25
-4 -5 -5 -5 -6 -6 -7 -7 -7 -7 -7 -7 -7 -7 -8 -8 -9 -10 -10 -11 -12 -13 -14 -15 -16 -17 -18 -19 -19 -20 -21 -21 -22 -23 -23 -24 -24 -25 -25 -25 -26 -26 -26
-6 -6 -6 -7 -8 -7 -7 -7 -7 -7 -7 -8 -8 -9 -9 -10 -11 -12 -12 -13 -14 -15 -16 -17 -18 -19 -19 -20 -20 -21 -22 -23 -23 -24 -25 -25 -25 -25 -26 -26 -26 -26 -26
-6 -7 -8 -8 -8 -7 -8 -8 -8 -8 -9 -9 -10 -10 -11 -11 -12 -13 -14 -15 -16 -17 -17 -18 -19 -20 -20 -21 -21 -22 -23 -24 -24 -25 -25 -26 -26 -26 -26 -26 -26 -26 -26
-9 -9 -8 -8 -8 -8 -8 -9 -9 -10 -10 -10 -11 -12 -12 -13 -14 -15 -16 -16 -17 -18 -18 -19 -20 -21 -21 -22 -23 -23 -24 -24 -25 -26 -26 -26 -27 -26 -26 -26 -26 -26 -26
-9 -9 -9 -9 -9 -9 -10 -10 -10 -11 -11 -12 -12 -13 -14 -15 -16 -16 -17 -17 -18 -19 -19 -20 -21 -21 -22 -23 -23 -24 -24 -25 -25 -26 -26 -27 -27 -27 -26 -26 -26 -26 -26
-9 -9 -9 -10 -10 -10 -10 -11 -11 -12 -12 -13 -14 -15 -16 -16 -17 -17 -18 -18 -19 -19 -20 -21 -22 -22 -23 -24 -24 -24 -25 -25 -25 -26 -26 -26 -26 -27 -26 -26 -26 -26 -26
-10 -10 -11 -11 -11 -11 -11 -12 -12 -13 -14 -15 -16 -16 -17 -17 -18 -18 -19 -19 -20 -20 -21 -22 -22 -23 -23 -24 -24 -25 -25 -25 -25 -26 -26 -26 -26 -26 -26 -26 -26 -26 -25

GFSGL_700_temp_105.txt.gz
Temp
6 6 6 6 5 4 3 3 2 1 1 1 1 1 1 -0 -0 -0 -0 -0 -1 -1 -1 -1 -1 -1 -1 -0 0 -0 0 0 -0 -0 -1 -1 -1 -1 -1 -1 -1 -1 -1
6 6 6 6 5 5 5 3 3 2 2 1 1 1 0 -1 -0 -1 -0 -0 -1 -1 -1 -1 -0 -0 1 0 0 1 0 -0 -0 -1 -0 -0 -0 -1 -1 -1 -1 -1 -1
6 6 5 5 5 5 5 5 4 4 3 3 3 2 1 1 1 1 0 -0 -0 -0 -1 -1 -1 1 1 1 0 0 0 -0 -0 -1 -0 -1 -1 -1 -1 -1 -3 -2 -1
6 6 5 5 5 5 5 4 4 4 3 3 3 3 2 2 2 1 1 1 -0 -1 -1 0 1 0 0 0 0 -0 -1 -1 -0 -1 -1 -1 -1 -2 -2 -2 -2 -1 -1
6 6 5 5 5 5 4 4 4 4 3 3 3 2 2 2 2 2 1 0 -0 -0 -0 -0 -1 -1 -1 -0 -0 0 0 -1 -1 -1 -1 -2 -1 -2 -2 -2 -2 -1 -2
6 6 6 5 5 4 4 4 4 3 3 3 3 3 3 3 2 2 2 1 1 -1 -1 -0 -0 0 -0 -0 -1 -0 -1 -1 -1 -1 -2 -2 -2 -2 -2 -2 -2 -3 -3
6 6 6 5 5 4 4 3 3 3 3 3 3 3 3 3 2 2 1 -0 -1 -1 -0 -1 -0 -0 -1 -0 -1 -1 -1 -1 -2 -1 -2 -2 -2 -3 -3 -3 -4 -4 -5
6 6 6 6 6 5 5 5 4 4 4 4 4 3 3 3 2 1 -0 -1 -1 -1 -0 0 -0 -0 -0 -1 -1 -2 -2 -2 -2 -2 -3 -3 -4 -4 -4 -5 -5 -5 -6
6 6 6 6 6 6 6 5 5 5 4 4 3 3 3 2 2 1 -0 -1 0 0 -0 0 -0 -0 -2 -1 -1 -2 -2 -2 -2 -3 -4 -5 -5 -6 -6 -7 -7 -8 -8
6 6 6 6 6 6 6 5 5 4 4 3 3 2 0 0 -0 0 0 -0 0 -0 0 -1 -2 -2 -3 -3 -3 -3 -3 -4 -4 -5 -6 -6 -7 -7 -8 -8 -9 -9 -10
5 5 5 6 6 5 5 5 5 4 3 1 0 0 1 0 0 0 -0 -0 -1 -0 -1 -2 -2 -3 -3 -3 -4 -4 -5 -5 -5 -6 -7 -7 -8 -9 -10 -11 -12 -12 -13
3 4 5 4 4 4 3 1 3 2 1 1 1 1 0 0 -1 -1 -1 -2 -2 -2 -3 -3 -3 -4 -4 -4 -4 -5 -5 -6 -6 -7 -8 -9 -10 -11 -12 -13 -14 -15 -16
3 3 3 3 3 3 2 2 1 2 1 1 1 -0 -1 -1 -1 -2 -2 -2 -2 -4 -4 -4 -4 -5 -5 -5 -5 -6 -6 -7 -8 -9 -10 -11 -13 -14 -15 -15 -16 -17 -18
3 3 3 3 3 2 1 1 1 1 1 0 -0 -1 -1 -2 -2 -3 -4 -4 -5 -6 -6 -5 -5 -5 -6 -7 -7 -8 -9 -10 -11 -11 -12 -14 -15 -16 -17 -17 -18 -19 -19
3 2 1 0 0 1 1 1 0 0 -1 -1 -2 -2 -2 -3 -4 -5 -5 -6 -6 -6 -6 -6 -7 -7 -8 -9 -9 -10 -11 -12 -13 -14 -15 -16 -17 -17 -18 -19 -20 -20 -21
0 1 1 1 1 0 -0 -0 -0 -1 -2 -2 -3 -4 -5 -5 -5 -7 -7 -6 -6 -7 -7 -7 -8 -9 -9 -10 -11 -12 -13 -14 -15 -16 -17 -18 -18 -19 -20 -21 -21 -22 -22
-1 -1 -1 -1 -0 -0 -1 -2 -3 -4 -4 -4 -5 -5 -6 -8 -8 -8 -7 -7 -7 -7 -8 -9 -9 -10 -11 -12 -13 -14 -15 -16 -17 -18 -18 -19 -20 -21 -21 -22 -23 -23 -23
-2 -2 -3 -3 -3 -4 -4 -4 -4 -4 -5 -5 -6 -8 -8 -7 -6 -6 -7 -8 -8 -9 -9 -10 -11 -12 -12 -14 -15 -16 -17 -18 -18 -19 -20 -21 -21 -22 -23 -23 -24 -24 -24
-5 -4 -4 -4 -4 -4 -4 -5 -5 -5 -6 -7 -8 -8 -7 -7 -7 -8 -9 -9 -10 -10 -11 -12 -13 -14 -15 -16 -17 -18 -18 -19 -20 -20 -21 -22 -23 -23 -24 -24 -24 -25 -25
-5 -5 -5 -5 -5 -5 -5 -6 -7 -7 -7 -7 -7 -7 -8 -9 -9 -9 -10 -10 -11 -12 -13 -13 -14 -15 -16 -17 -18 -19 -20 -20 -21 -22 -23 -23 -24 -24 -25 -25 -25 -25 -25
-6 -6 -5 -5 -5 -7 -8 -7 -7 -7 -7 -8 -8 -9 -9 -10 -10 -10 -11 -12 -13 -13 -14 -15 -16 -16 -18 -19 -19 -20 -21 -21 -22 -23 -24 -24 -25 -25 -26 -26 -25 -25 -25
-6 -6 -6 -7 -7 -8 -8 -8 -8 -8 -8 -9 -9 -10 -10 -11 -11 -12 -12 -13 -14 -14 -15 -16 -17 -18 -19 -20 -20 -21 -22 -22 -23 -24 -25 -25 -25 -26 -26 -26 -25 -25 -25
-8 -8 -8 -8 -8 -8 -8 -9 -9 -9 -9 -10 -10 -11 -11 -12 -13 -13 -14 -14 -15 -16 -17 -17 -18 -19 -20 -20 -21 -22 -22 -23 -24 -24 -25 -25 -25 -25 -26 -26 -25 -25 -25
-10 -10 -9 -9 -9 -9 -9 -9 -10 -10 -11 -11 -11 -12 -13 -13 -13 -14 -15 -15 -16 -17 -18 -19 -19 -20 -20 -21 -22 -23 -23 -23 -24 -24 -25 -25 -25 -25 -25 -25 -25 -25 -25
-10 -10 -10 -10 -10 -10 -10 -10 -11 -11 -12 -12 -13 -13 -14 -14 -15 -15 -16 -17 -18 -18 -19 -19 -20 -21 -21 -22 -23 -23 -23 -24 -24 -24 -25 -25 -25 -25 -25 -25 -25 -25 -25
-10 -10 -10 -11 -11 -11 -11 -12 -12 -13 -13 -13 -14 -14 -15 -15 -16 -17 -17 -18 -18 -19 -19 -20 -21 -21 -22 -23 -23 -23 -24 -24 -24 -24 -25 -25 -25 -25 -25 -25 -25 -24 -24

GFSGL_700_temp_108.txt.gz
Temp
6 6 6 6 5 3 3 3 2 2 2 1 1 2 1 1 0 -0 -1 -0 -0 -1 -1 -1 -1 -1 -1 -1 -1 -1 -1 -1 -1 1 0 0 0 -0 -0 -0 -0 -1 -1
6 6 6 6 6 5 4 3 2 2 2 1 1 2 1 1 0 -0 -0 -1 -1 -1 -1 -1 -1 -1 -1 -1 -1 -1 -1 -0 -1 -1 -1 -0 -0 -1 -1 -0 -1 -1 -2
6 6 5 6 6 6 5 4 3 2 2 2 1 1 1 1 0 0 -1 -1 -0 -1 -1 -1 -1 -2 -2 -1 -1 -0 -0 -0 -0 -1 -1 -1 -1 -2 -1 -2 -1 -1 -1
6 5 5 5 5 5 5 5 4 4 3 3 2 2 2 1 1 0 -1 -1 -1 -1 -1 -2 -2 -1 0 -0 0 -0 -0 -0 -0 0 -1 -1 -1 -1 -2 -2 -2 -3 -2
6 6 5 5 5 5 5 5 4 4 3 3 3 2 2 2 2 1 1 0 0 -0 0 0 0 0 -0 -1 -1 -1 -0 -1 -0 -1 -1 -1 -1 -2 -2 -2 -1 -3 -3
6 6 5 5 4 4 4 4 4 4 3 3 3 3 3 3 2 2 1 1 0 0 0 0 -0 -1 -1 0 -0 0 -1 -1 -1 -1 -1 -2 -2 -2 -0 -2 -2 -3 -2
6 6 6 5 5 4 4 4 4 4 3 3 3 3 3 3 2 2 1 1 0 -1 -1 -1 -1 -1 -1 -0 -1 -0 -1 -1 -1 -2 -1 -2 -2 -2 -3 -3 -3 -4 -3
6 6 5 5 5 4 4 4 4 4 3 3 3 3 3 3 3 2 1 0 0 -0 -0 0 -0 -1 -1 -1 -1 -1 -2 -2 -2 -3 -3 -3 -3 -4 -4 -4 -4 -4 -5
4 5 5 5 5 5 5 5 4 4 4 4 4 4 3 3 2 1 -1 -1 -0 -1 -0 -1 -1 -1 -1 -1 -2 -3 -3 -4 -3 -3 -4 -5 -5 -5 -5 -6 -6 -6 -7
3 4 5 5 5 5 5 5 5 4 4 4 3 3 1 0 0 0 -1 -1 -1 -0 -0 -0 -1 -1 -2 -3 -3 -4 -5 -4 -4 -5 -5 -6 -6 -7 -7 -8 -8 -8 -9
2 3 3 4 4 4 4 4 3 3 2 2 2 0 0 -0 -1 0 -0 -1 -0 -0 -0 -1 -2 -3 -3 -4 -6 -5 -5 -5 -5 -6 -6 -7 -8 -8 -9 -10 -11 -12 -12
2 2 2 2 2 3 3 3 3 2 1 1 1 1 1 -0 -0 -0 -0 -1 -1 -1 -1 -2 -3 -4 -4 -6 -5 -5 -5 -6 -6 -7 -8 -9 -10 -10 -11 -12 -13 -14 -15
2 2 1 1 1 1 1 1 0 0 0 0 -0 0 -0 0 0 -0 -1 -2 -2 -3 -3 -3 -4 -4 -5 -6 -5 -6 -6 -7 -8 -9 -10 -10 -11 -12 -13 -14 -15 -16 -17
2 2 2 2 2 1 1 1 1 1 1 0 -1 0 0 -0 -1 -2 -3 -3 -4 -5 -5 -5 -6 -7 -7 -6 -6 -7 -8 -9 -9 -10 -11 -13 -13 -15 -16 -16 -17 -18 -19
2 2 2 2 2 1 0 1 1 1 1 -0 -0 -2 -3 -4 -5 -5 -5 -5 -5 -5 -6 -7 -8 -8 -7 -7 -8 -9 -10 -11 -11 -12 -14 -15 -16 -17 -17 -18 -19 -19 -20
2 2 2 1 0 -0 1 0 0 0 -1 -4 -4 -4 -5 -5 -5 -5 -5 -6 -7 -8 -9 -8 -7 -8 -9 -9 -10 -11 -12 -12 -13 -15 -15 -17 -17 -18 -18 -19 -20 -21 -22
-2 -2 -1 -1 0 1 -1 -0 -0 -3 -3 -5 -5 -5 -5 -6 -6 -7 -9 -9 -9 -8 -8 -8 -9 -9 -10 -11 -11 -12 -13 -14 -15 -16 -17 -18 -18 -19 -20 -21 -22 -23 -23
-2 -2 -2 -2 -2 -1 -3 -4 -5 -5 -5 -6 -6 -6 -6 -7 -8 -8 -8 -7 -8 -8 -8 -9 -10 -10 -11 -12 -13 -14 -15 -16 -17 -18 -18 -19 -20 -21 -21 -22 -23 -23 -24
-4 -4 -4 -5 -5 -5 -5 -5 -5 -6 -6 -6 -6 -7 -9 -8 -7 -7 -7 -8 -8 -9 -10 -10 -11 -11 -12 -14 -15 -16 -17 -18 -18 -19 -20 -21 -21 -22 -23 -23 -24 -24 -24
-5 -5 -5 -5 -5 -5 -5 -6 -6 -7 -8 -9 -8 -7 -8 -8 -8 -8 -8 -9 -10 -11 -11 -11 -12 -13 -15 -16 -17 -17 -18 -19 -20 -20 -21 -22 -23 -24 -24 -24 -24 -24 -24
-6 -6 -6 -6 -7 -6 -7 -7 -8 -10 -10 -9 -9 -9 -8 -8 -8 -9 -10 -11 -12 -12 -12 -13 -14 -15 -16 -17 -17 -18 -19 -20 -21 -22 -22 -23 -23 -24 -24 -24 -24 -24 -24
-7 -7 -7 -6 -7 -8 -9 -10 -9 -9 -10 -9 -9 -8 -9 -9 -10 -11 -11 -12 -12 -13 -14 -15 -15 -16 -17 -18 -19 -19 -20 -21 -21 -22 -22 -23 -24 -24 -24 -25 -24 -24 -24
-8 -8 -9 -10 -10 -10 -9 -9 -9 -10 -10 -9 -9 -10 -10 -11 -11 -11 -12 -13 -14 -14 -15 -16 -17 -17 -18 -19 -19 -20 -21 -21 -22 -22 -23 -23 -24 -24 -24 -24 -24 -24 -24
-9 -12 -12 -11 -10 -9 -9 -10 -10 -10 -10 -10 -10 -11 -11 -12 -12 -13 -14 -14 -15 -16 -16 -17 -18 -19 -19 -19 -20 -21 -21 -21 -22 -23 -23 -24 -24 -24 -24 -24 -24 -24 -23
-11 -12 -12 -10 -10 -10 -10 -10 -10 -11 -11 -11 -11 -12 -13 -13 -14 -14 -15 -16 -16 -16 -17 -18 -19 -19 -19 -20 -20 -21 -21 -22 -23 -23 -23 -24 -24 -24 -24 -24 -24 -23 -23
-12 -11 -11 -11 -11 -11 -11 -11 -11 -12 -12 -12 -13 -13 -14 -14 -15 -15 -16 -16 -17 -18 -19 -19 -19 -19 -20 -20 -21 -22 -22 -23 -23 -23 -24 -24 -24 -24 -24 -24 -24 -23 -23

GFSGL_700_temp_111.txt.gz
Temp
6 6 6 6 5 4 3 2 1 2 1 1 1 1 2 1 1 1 1 -0 -0 -0 -0 -1 -1 -1 -1 -1 -1 -1 -1 -1 -1 -1 -1 -1 -0 0 -0 -0 -1 -1 -1
6 6 6 6 6 5 4 3 2 2 1 1 1 1 1 1 0 0 0 -0 1 -0 -0 -1 -1 -1 -1 -1 -1 -1 -1 -1 -2 -1 -0 -1 -1 -1 -1 -1 -1 -0 -1
6 6 6 6 6 6 5 4 3 2 2 2 1 1 1 1 1 -0 1 -0 -0 -0 -0 -0 -1 -1 -1 -1 -1 -1 -2 -2 -1 -1 -1 -0 -1 -1 -1 -1 -1 -2 -1
6 6 5 5 5 5 5 5 4 3 2 2 1 1 1 1 1 0 -0 0 -0 -0 -0 -1 -1 -1 -1 -1 -1 -1 -1 -1 -1 -1 -1 -0 -1 -1 -1 -2 -1 -2 -2
5 5 5 5 5 5 5 4 4 3 3 2 2 1 1 1 1 1 -1 -1 -1 -0 -1 -1 -1 -1 -1 -1 -1 -1 -1 -1 -1 -1 -1 -2 -1 -1 -1 -1 -1 -2 -2
5 5 5 5 5 5 5 4 4 4 3 3 3 3 3 2 2 1 1 1 1 0 0 -1 -1 -2 -1 -0 -1 -1 -2 -1 -1 -0 -1 -1 -1 -2 -2 -2 -1 -2 -2
5 5 5 5 5 4 4 4 4 4 4 4 4 3 3 3 2 2 2 1 1 0 -1 -1 -1 -1 -1 -0 -0 -0 -1 -1 -1 -1 -2 -2 -3 -3 -2 -3 -3 -3 -3
4 5 5 4 4 4 4 4 4 4 4 4 3 3 3 3 2 2 1 1 1 -0 -1 -1 -1 -1 -1 -0 -1 -1 -1 -2 -1 -2 -3 -2 -3 -3 -3 -3 -3 -4 -4
2 3 4 4 4 4 4 4 4 3 3 3 3 3 3 3 3 2 1 1 -1 -1 -1 -2 -2 -1 -1 -0 -1 -1 -1 -2 -3 -3 -3 -4 -3 -4 -4 -4 -5 -5 -6
2 1 2 3 4 3 3 3 3 3 3 3 3 3 3 3 2 0 -1 -1 -2 -1 -1 -1 -1 -1 -1 -1 -1 -2 -3 -3 -4 -5 -5 -4 -4 -5 -5 -6 -6 -7 -7
3 2 1 1 1 2 2 2 2 3 3 2 2 2 1 1 1 -0 -1 -1 -1 -1 -1 -1 -1 -1 -1 -2 -2 -3 -4 -5 -6 -6 -7 -6 -5 -6 -7 -8 -9 -10 -10
2 1 1 0 0 0 1 1 2 2 2 1 1 0 0 -0 -1 -1 -1 -0 -1 -1 -1 -2 -3 -3 -3 -4 -4 -5 -6 -6 -7 -7 -6 -7 -7 -8 -9 -10 -11 -12 -13
2 1 -0 0 0 0 0 0 1 0 -0 1 -0 -0 -0 1 -0 -0 -0 -0 -1 -1 -3 -5 -5 -5 -5 -5 -5 -6 -7 -7 -7 -7 -8 -8 -9 -10 -11 -12 -12 -13 -15
2 2 1 1 1 1 1 1 0 0 1 -1 -0 0 -0 -0 -0 -1 -0 -3 -4 -6 -5 -5 -5 -5 -7 -7 -8 -7 -7 -7 -8 -8 -9 -10 -11 -12 -13 -13 -14 -15 -16
2 2 2 2 2 1 1 0 0 0 -0 0 0 0 -1 -1 -2 -4 -5 -6 -5 -5 -5 -5 -6 -7 -8 -7 -7 -7 -8 -8 -9 -10 -11 -12 -13 -14 -14 -15 -16 -17 -18
2 2 2 2 1 0 1 0 1 1 0 -0 -3 -4 -4 -6 -5 -5 -5 -5 -5 -6 -6 -8 -8 -8 -8 -8 -9 -8 -9 -10 -11 -12 -13 -14 -14 -15 -16 -17 -18 -19 -20
0 1 0 -0 -0 -1 -0 -1 0 -1 -2 -3 -6 -6 -6 -6 -6 -6 -6 -6 -7 -9 -8 -7 -8 -9 -9 -9 -10 -10 -11 -11 -12 -14 -14 -15 -16 -17 -18 -19 -20 -21 -22
-3 -2 -2 -2 -1 -1 -2 -2 -2 -4 -5 -6 -6 -5 -6 -6 -6 -7 -9 -9 -9 -8 -8 -9 -9 -10 -10 -10 -11 -11 -12 -13 -14 -15 -16 -17 -18 -19 -20 -21 -22 -22 -22
-3 -3 -3 -2 -3 -3 -4 -5 -6 -6 -6 -6 -6 -6 -6 -6 -8 -9 -8 -8 -8 -9 -10 -10 -11 -11 -12 -12 -12 -13 -14 -15 -16 -17 -18 -19 -20 -21 -22 -22 -22 -22 -22
-5 -5 -5 -5 -5 -6 -6 -6 -6 -7 -7 -7 -6 -7 -9 -8 -8 -8 -9 -9 -10 -10 -11 -11 -12 -12 -12 -13 -14 -15 -15 -16 -17 -18 -19 -20 -21 -22 -22 -22 -22 -22 -22
-7 -7 -7 -7 -7 -7 -7 -7 -7 -7 -7 -9 -9 -9 -9 -9 -9 -9 -9 -10 -11 -11 -12 -12 -12 -13 -14 -15 -15 -16 -17 -18 -18 -19 -21 -22 -22 -22 -22 -22 -22 -22 -22
-8 -8 -8 -7 -7 -7 -7 -8 -8 -10 -10 -9 -9 -9 -9 -9 -9 -10 -10 -11 -12 -12 -12 -13 -14 -15 -15 -16 -17 -17 -18 -19 -20 -21 -22 -22 -22 -22 -23 -23 -23 -23 -22
-9 -8 -8 -8 -8 -9 -10 -11 -11 -10 -9 -10 -10 -10 -10 -10 -11 -11 -12 -12 -13 -13 -14 -15 -15 -16 -17 -17 -18 -18 -19 -20 -21 -21 -22 -22 -22 -22 -23 -23 -23 -22 -22
-9 -8 -8 -9 -11 -12 -12 -11 -10 -10 -10 -11 -11 -11 -11 -11 -12 -12 -13 -13 -14 -15 -15 -16 -17 -17 -17 -18 -18 -19 -20 -21 -21 -22 -22 -22 -22 -23 -23 -23 -23 -23 -22
-9 -9 -10 -12 -13 -12 -11 -11 -11 -11 -11 -11 -11 -11 -12 -13 -13 -13 -14 -14 -15 -16 -16 -17 -17 -18 -18 -19 -19 -20 -20 -21 -21 -22 -22 -22 -23 -23 -23 -23 -23 -23 -23
-11 -12 -12 -12 -12 -11 -11 -11 -12 -12 -12 -12 -12 -13 -13 -13 -14 -15 -15 -16 -16 -17 -17 -18 -18 -19 -19 -20 -20 -20 -21 -21 -22 -22 -23 -23 -23 -23 -23 -23 -23 -23 -23

GFSGL_700_temp_114.txt.gz
Temp
6 6 6 6 5 4 2 2 2 2 2 2 2 2 1 1 2 2 1 1 0 -0 -0 -1 -1 -1 -0 -1 -1 -1 -1 -1 -1 -1 -1 -1 -1 -1 -1 -1 -1 -1 -1
5 5 6 6 5 4 3 3 3 2 2 1 1 1 1 2 2 1 1 1 0 0 -0 -0 -0 -1 -1 -1 -1 -1 -1 -1 -1 -1 -1 -1 -2 -1 -1 -1 -1 -0 -1
5 5 5 5 5 4 3 3 3 2 2 2 1 1 1 1 0 1 1 1 -0 -0 -0 -0 -1 -0 -0 -1 -1 -1 -1 -1 -1 -1 -1 -1 -1 -1 -1 -1 -1 -1 -2
5 5 5 5 5 4 4 3 3 3 2 2 2 2 1 1 0 0 1 0 1 0 -0 -0 -0 -1 -1 -1 -1 -1 -1 -2 -2 -2 -1 -1 -1 -1 -1 -2 -1 -2 -2
5 5 5 5 4 4 4 3 3 3 2 2 1 1 1 1 1 1 0 0 1 0 -0 0 -0 -1 -0 -1 -1 -2 -2 -2 -2 -1 -1 -2 -1 -1 -2 -2 -2 -2 -2
5 5 5 5 4 4 4 4 4 3 3 3 3 1 1 1 1 1 0 -0 -0 0 -0 -1 -1 -1 -1 -1 -2 -2 -2 -1 -1 -1 -1 -1 -1 -1 -2 -2 -2 -3 -3
5 5 5 5 4 4 4 4 4 4 3 3 3 3 2 1 0 0 0 0 -0 -1 -1 -1 -0 -0 -1 -1 -1 -2 -2 -1 -1 -1 -1 -1 -2 -2 -2 -2 -3 -3 -3
5 5 5 4 4 4 4 4 4 3 3 3 3 3 2 1 1 0 0 0 0 0 -0 -1 -1 -1 -1 -1 -1 -1 -1 -1 -0 -2 -2 -2 -2 -3 -4 -4 -4 -4 -4
3 3 4 4 4 4 4 4 4 3 3 3 3 2 2 1 1 1 1 0 0 0 -1 -1 -1 -1 -2 -1 -1 -1 -1 -2 -2 -2 -2 -4 -4 -4 -5 -5 -5 -5 -6
2 2 2 2 3 3 4 3 3 3 3 3 2 2 2 2 1 0 -0 -0 -0 -1 -1 -1 -1 -1 -1 -1 -2 -2 -2 -2 -3 -4 -4 -5 -6 -5 -6 -6 -6 -7 -7
1 1 2 2 2 2 3 3 3 2 2 2 2 2 2 1 1 -1 -1 -2 -2 -2 -2 -2 -2 -2 -1 -2 -2 -2 -3 -5 -5 -5 -6 -6 -8 -7 -7 -7 -8 -8 -8
1 0 1 1 2 1 1 1 1 1 1 1 1 1 0 0 -1 -1 -1 -2 -1 -1 -1 -1 -1 -1 -1 -2 -4 -6 -5 -5 -6 -7 -8 -8 -7 -7 -9 -9 -10 -10 -10
-0 -0 0 0 0 0 0 1 1 1 1 1 -0 -0 0 -0 -0 -0 -1 -1 -1 -1 -1 -2 -2 -4 -6 -6 -5 -5 -6 -8 -10 -8 -8 -9 -9 -9 -10 -11 -11 -12 -13
1 0 0 1 -0 -0 -0 -0 -0 -0 -0 0 -0 0 -0 -1 -1 -1 -1 -1 -1 -2 -3 -5 -6 -6 -5 -5 -6 -8 -9 -8 -8 -9 -9 -9 -9 -11 -12 -12 -13 -13 -14
1 1 1 -0 0 -0 -1 -1 0 1 -0 -1 1 -1 -0 -1 -1 -1 -2 -4 -5 -6 -6 -6 -5 -6 -6 -8 -9 -8 -8 -9 -9 -10 -10 -11 -12 -13 -13 -13 -14 -15 -15
1 1 1 1 1 -0 1 0 0 -0 -0 -0 -1 -1 -1 -3 -3 -4 -5 -5 -6 -6 -6 -7 -7 -8 -9 -9 -9 -9 -9 -10 -10 -11 -12 -13 -13 -14 -15 -15 -16 -16 -17
-0 -0 -0 -0 0 0 0 -0 -1 -1 0 -1 -2 -3 -4 -6 -5 -6 -6 -6 -6 -6 -7 -9 -10 -8 -9 -9 -9 -10 -10 -11 -12 -13 -13 -14 -15 -15 -16 -16 -17 -18 -19
-1 -2 -1 -1 -1 -2 -2 -1 -1 -1 -2 -2 -3 -5 -6 -6 -6 -7 -7 -7 -7 -9 -9 -8 -8 -9 -9 -10 -10 -11 -12 -12 -13 -14 -15 -15 -16 -17 -17 -18 -19 -19 -20
-3 -3 -3 -3 -2 -2 -2 -2 -2 -3 -5 -5 -6 -7 -7 -7 -7 -7 -8 -10 -10 -9 -9 -9 -9 -10 -10 -11 -12 -13 -13 -14 -15 -15 -16 -16 -17 -18 -18 -19 -20 -20 -20
-3 -3 -3 -3 -3 -4 -5 -5 -6 -7 -7 -7 -7 -7 -7 -7 -9 -10 -10 -9 -9 -9 -10 -11 -11 -11 -12 -13 -13 -14 -15 -15 -16 -16 -17 -17 -18 -19 -20 -21 -21 -21 -21
-5 -6 -6 -7 -7 -7 -8 -8 -7 -8 -8 -8 -7 -8 -10 -11 -10 -9 -9 -10 -10 -11 -11 -12 -12 -13 -13 -14 -14 -15 -15 -16 -17 -17 -18 -18 -20 -20 -21 -21 -21 -21 -21
-7 -7 -8 -8 -8 -8 -8 -8 -8 -8 -8 -9 -10 -11 -10 -10 -10 -10 -10 -11 -11 -12 -12 -13 -13 -14 -14 -15 -15 -16 -16 -17 -17 -18 -19 -19 -20 -21 -22 -22 -22 -22 -21
-9 -9 -9 -9 -9 -9 -9 -8 -9 -11 -12 -12 -10 -10 -10 -10 -11 -11 -11 -12 -12 -13 -13 -14 -14 -14 -15 -16 -16 -16 -17 -18 -19 -19 -20 -21 -21 -22 -22 -22 -22 -22 -22
-9 -9 -9 -9 -9 -9 -9 -11 -12 -12 -11 -11 -11 -11 -11 -11 -11 -12 -12 -13 -13 -13 -14 -14 -15 -16 -16 -16 -17 -17 -18 -19 -19 -20 -21 -21 -22 -22 -22 -22 -22 -22 -22
-10 -9 -9 -10 -11 -13 -13 -12 -11 -11 -11 -11 -11 -12 -12 -12 -12 -13 -13 -13 -14 -15 -15 -15 -16 -16 -17 -17 -18 -18 -19 -19 -20 -21 -21 -21 -22 -22 -22 -22 -22 -23 -22
-11 -11 -12 -13 -13 -13 -13 -12 -12 -12 -12 -12 -12 -12 -13 -13 -13 -13 -14 -14 -15 -15 -16 -16 -17 -17 -18 -18 -19 -19 -20 -20 -21 -21 -21 -22 -22 -23 -23 -23 -23 -23 -23

GFSGL_700_temp_117.txt.gz
Temp
7 6 5 5 5 5 4 3 3 3 3 2 2 2 2 0 1 1 1 1 -0 -1 -1 -1 -1 -2 -1 -2 -1 -1 -1 -1 -1 -1 -1 -2 -1 -1 -1 -1 -1 -1 -1
7 6 5 5 5 5 4 3 2 2 2 2 2 2 2 1 1 2 1 1 1 1 0 0 -0 -1 -1 -1 -1 -1 -1 -1 -1 -1 -1 -1 -1 -1 -1 -1 -1 -1 -1
6 6 5 5 5 5 4 3 2 2 2 1 1 1 1 2 1 2 2 1 1 1 0 -0 0 -0 -1 -0 -1 -1 -1 -1 -1 -1 -1 -2 -1 -1 -1 -1 -1 -1 -1
6 5 5 5 5 5 4 3 3 2 2 1 1 1 0 1 1 1 1 1 1 1 0 0 0 -0 -0 -1 -1 -1 -1 -1 -1 -1 -1 -2 -2 -1 -1 -1 -1 -2 -2
5 5 5 5 5 5 4 4 4 3 2 2 2 1 1 1 1 0 0 1 1 0 -0 0 0 -0 -1 -1 -1 -1 -1 -1 -1 -1 -1 -1 -2 -1 -2 -1 -2 -2 -2
4 5 5 5 5 5 4 4 4 4 3 3 2 1 1 1 1 1 0 0 -0 -0 1 0 -0 -0 -1 -1 -1 -1 -1 -1 -1 -2 -1 -2 -1 -2 -2 -2 -2 -3 -2
4 5 5 4 4 4 4 4 4 4 3 3 2 2 2 0 1 0 0 0 -0 -0 -0 -0 -0 -0 -1 -1 -1 -1 -2 -2 -2 -2 -2 -2 -1 -2 -2 -2 -2 -3 -3
4 4 5 4 4 4 4 4 4 3 3 3 3 2 1 1 0 0 0 -0 -0 -0 -0 -0 -0 -1 -1 -1 -2 -2 -1 -1 -2 -1 -1 -2 -2 -2 -2 -3 -4 -5 -5
3 4 4 4 4 4 4 4 3 3 3 3 2 2 1 1 1 0 -0 -1 -1 -0 -0 -1 -1 -1 -1 -1 -1 -1 -1 -1 -1 -1 -2 -2 -2 -3 -4 -5 -6 -6 -8
2 2 3 3 3 3 3 3 3 3 2 3 2 2 1 1 0 -0 -1 -1 -0 -1 -1 -1 -2 -2 -2 -2 -2 -1 -1 -2 -2 -2 -2 -4 -5 -5 -5 -6 -7 -8 -6
2 2 2 2 2 3 3 3 3 2 2 2 2 2 0 0 0 -0 -0 -1 -2 -2 -1 -2 -2 -2 -2 -1 -2 -2 -2 -2 -3 -5 -6 -5 -5 -6 -8 -8 -7 -7 -7
1 1 1 1 2 2 2 2 2 2 2 2 1 1 0 -0 -1 -1 -1 -1 -1 -1 -1 -2 -1 -1 -1 -1 -2 -3 -5 -6 -6 -5 -5 -6 -8 -8 -8 -8 -8 -8 -9
-0 0 0 0 1 2 1 1 1 2 2 2 1 1 1 1 -0 -1 -1 -1 -1 -1 -1 -1 -1 -2 -2 -3 -5 -6 -6 -6 -6 -7 -8 -8 -8 -9 -9 -9 -10 -10 -11
-0 -0 -0 -0 1 1 1 0 1 1 1 1 1 0 0 1 0 -0 -0 -0 -1 -1 -1 -2 -3 -5 -6 -6 -6 -6 -7 -9 -8 -8 -8 -9 -9 -10 -11 -11 -11 -12 -13
0 -1 -0 -0 0 -0 -0 -0 -1 -0 -1 -1 -1 -1 -0 -0 -1 -1 -1 -1 -2 -2 -3 -5 -5 -6 -6 -7 -7 -8 -10 -8 -9 -9 -9 -10 -10 -11 -12 -12 -13 -13 -13
0 -0 0 0 -0 -1 -0 -1 -0 -1 -1 -1 -1 -1 -0 -1 -1 -1 -1 -3 -4 -5 -5 -6 -6 -7 -7 -8 -8 -8 -9 -9 -10 -10 -11 -11 -12 -12 -13 -13 -14 -14 -15
-1 -0 0 -0 -1 -1 -0 -1 -0 -0 -1 -1 -1 -1 -1 -2 -2 -4 -4 -4 -5 -6 -7 -7 -7 -8 -8 -8 -8 -9 -10 -10 -11 -11 -12 -12 -13 -14 -14 -15 -16 -16 -17
-3 -1 -1 -1 -1 -1 -1 -1 -1 -1 -1 -1 -1 -3 -3 -4 -5 -6 -7 -7 -7 -7 -8 -8 -9 -9 -9 -9 -10 -10 -11 -11 -12 -12 -13 -13 -14 -15 -16 -16 -17 -17 -18
-3 -3 -3 -2 -2 -1 -2 -1 -2 -2 -2 -3 -3 -5 -6 -6 -7 -7 -8 -8 -8 -9 -9 -9 -9 -9 -10 -10 -11 -11 -12 -12 -13 -14 -14 -15 -16 -16 -17 -18 -18 -19 -19
-3 -3 -4 -4 -3 -3 -3 -3 -4 -5 -5 -6 -6 -7 -7 -8 -8 -8 -8 -9 -9 -9 -9 -10 -10 -10 -10 -11 -12 -12 -13 -13 -14 -15 -15 -16 -17 -17 -18 -18 -19 -20 -20
-4 -4 -4 -5 -5 -5 -6 -7 -7 -8 -8 -8 -8 -8 -8 -8 -9 -10 -10 -10 -9 -10 -10 -10 -11 -11 -12 -12 -13 -14 -14 -15 -15 -16 -16 -17 -18 -18 -19 -20 -20 -20 -20
-7 -6 -7 -7 -7 -8 -9 -9 -9 -9 -9 -9 -9 -9 -10 -11 -11 -10 -10 -10 -10 -11 -11 -11 -12 -12 -13 -14 -14 -15 -15 -16 -16 -17 -17 -18 -19 -19 -20 -20 -21 -21 -21
-8 -8 -8 -9 -9 -9 -9 -9 -9 -9 -9 -10 -11 -12 -12 -11 -11 -11 -11 -11 -11 -12 -12 -12 -13 -14 -14 -15 -15 -15 -16 -17 -17 -18 -18 -19 -19 -20 -20 -21 -21 -21 -21
-9 -9 -9 -9 -9 -10 -10 -9 -10 -11 -12 -13 -12 -11 -11 -11 -11 -12 -12 -12 -13 -13 -13 -14 -14 -14 -15 -16 -16 -17 -17 -17 -18 -18 -19 -19 -20 -21 -21 -21 -22 -22 -22
-10 -10 -10 -10 -10 -10 -10 -11 -13 -14 -13 -12 -12 -12 -12 -12 -12 -12 -13 -13 -13 -14 -14 -15 -15 -16 -16 -16 -17 -17 -18 -18 -19 -19 -20 -20 -21 -21 -21 -22 -22 -22 -22
-10 -10 -10 -10 -11 -12 -13 -14 -14 -13 -12 -12 -13 -13 -13 -13 -13 -13 -14 -14 -14 -15 -15 -16 -16 -16 -17 -17 -18 -18 -18 -19 -19 -20 -20 -21 -21 -21 -22 -22 -22 -22 -22

GFSGL_700_temp_120.txt.gz
Temp
6 6 7 6 6 6 6 6 5 4 3 2 2 2 3 2 1 1 1 1 1 2 1 1 1 1 0 -0 -1 -2 -2 -2 -2 -3 -2 -2 -2 -1 -1 -1 -1 -1 -1
6 6 6 6 6 6 6 6 5 4 3 3 2 2 3 2 1 1 1 1 1 0 1 1 1 1 1 1 -1 -2 -2 -2 -2 -2 -2 -1 -2 -2 -2 -1 -1 -1 -1
6 6 6 5 6 6 6 6 5 4 3 3 2 2 2 2 1 0 0 1 1 1 1 0 0 -0 -1 0 -0 -1 -2 -1 -1 -1 -1 -1 -2 -1 -1 -1 -1 -2 -1
5 5 5 5 5 6 6 6 5 5 3 3 2 2 2 2 1 1 1 1 1 1 1 1 0 -0 -0 -0 -0 -1 -1 -1 -1 -1 -1 -1 -1 -1 -2 -1 -1 -1 -2
4 4 5 5 5 5 5 5 5 5 4 3 2 1 1 1 1 1 1 1 1 1 1 0 0 0 -0 0 -0 -0 -1 -1 -1 -1 -1 -2 -2 -1 -1 -2 -1 -1 -1
2 4 4 5 5 5 5 5 5 5 4 3 2 2 2 1 1 0 0 1 1 1 1 0 1 -0 -0 -0 -0 -1 -1 -1 -1 -1 -1 -1 -1 -1 -1 -2 -1 -1 -2
2 3 4 4 5 5 5 5 5 5 4 3 3 2 2 2 1 1 0 -0 0 0 -0 -0 0 -0 -0 -0 -1 -1 -1 -1 -1 -1 -1 -2 -1 -1 -1 -1 -2 -2 -2
2 2 3 4 4 4 4 5 5 4 4 4 3 3 3 3 2 1 1 1 1 -0 -0 -0 -0 -0 -1 -1 -1 -1 -1 -1 -1 -1 -1 -1 -2 -2 -2 -2 -2 -2 -3
2 2 2 3 4 4 4 4 4 4 4 4 3 3 3 3 3 2 2 0 -0 -0 -0 -0 -1 -1 -1 -1 -1 -1 -1 -1 -1 -2 -1 -2 -1 -2 -2 -2 -4 -5 -5
1 2 2 3 3 4 4 4 4 4 3 3 3 3 3 2 2 1 -0 0 0 -0 -0 -0 -0 -0 -1 -1 -1 -1 -1 -1 -1 -1 -1 -2 -2 -3 -5 -5 -5 -6 -7
0 2 1 2 3 3 3 3 3 3 3 3 3 2 2 2 2 1 0 -0 -0 -1 -1 -1 -1 -1 -1 -1 -2 -1 -2 -2 -1 -2 -2 -3 -5 -5 -6 -6 -7 -7 -7
-1 0 1 1 2 3 3 3 3 3 2 2 2 2 2 2 1 1 1 1 1 0 -0 -0 -1 -2 -2 -1 -1 -2 -2 -2 -2 -4 -5 -6 -6 -6 -7 -7 -8 -8 -8
-1 0 1 1 2 2 2 2 2 2 2 2 1 1 1 1 1 1 0 -1 -1 -0 -1 -1 -1 -1 -1 -1 -1 -2 -4 -5 -5 -6 -6 -7 -8 -7 -7 -8 -8 -9 -9
-2 -1 -1 0 1 1 1 1 1 1 1 1 1 1 1 1 0 -0 -0 -0 -0 -1 -1 -1 -1 -2 -3 -3 -4 -4 -5 -6 -6 -7 -8 -8 -8 -8 -9 -9 -10 -10 -11
-1 -1 -1 -1 -0 0 1 0 1 -0 0 0 0 0 -0 -0 -1 -1 -1 -1 -1 -1 -1 -2 -3 -3 -4 -5 -6 -6 -7 -6 -7 -8 -8 -9 -9 -10 -10 -11 -11 -12 -12
-1 -2 -1 -1 -1 -1 -0 0 0 -1 -1 -1 -1 -2 -1 -1 -1 -1 -1 -1 -1 -2 -3 -3 -4 -6 -6 -6 -7 -7 -7 -8 -8 -9 -9 -10 -10 -11 -11 -12 -12 -12 -13
-1 -3 -1 -2 -1 -1 -1 -1 -1 -1 -1 -2 -2 -3 -2 -2 -2 -3 -2 -2 -3 -4 -5 -6 -7 -7 -7 -8 -8 -8 -9 -9 -10 -10 -10 -11 -11 -12 -13 -13 -13 -14 -14
-2 -2 -1 -1 -2 -2 -1 -1 -1 -1 -1 -2 -2 -3 -3 -3 -4 -4 -5 -5 -6 -6 -7 -7 -7 -8 -8 -8 -9 -9 -10 -10 -10 -11 -11 -12 -12 -13 -14 -14 -15 -15 -16
-4 -2 -2 -3 -2 -2 -2 -2 -2 -2 -2 -2 -2 -3 -3 -4 -5 -5 -6 -7 -8 -8 -8 -8 -9 -8 -9 -9 -10 -10 -11 -11 -11 -12 -12 -13 -14 -14 -15 -15 -16 -17 -17
-4 -3 -4 -3 -3 -3 -3 -3 -3 -4 -4 -5 -5 -5 -6 -7 -7 -8 -8 -8 -8 -8 -9 -9 -9 -9 -10 -10 -11 -11 -12 -12 -13 -13 -14 -14 -15 -15 -16 -17 -17 -17 -18
-5 -4 -4 -4 -4 -4 -5 -5 -6 -7 -7 -7 -7 -8 -8 -9 -9 -9 -9 -10 -10 -10 -10 -10 -10 -10 -11 -11 -12 -12 -13 -13 -14 -14 -15 -15 -16 -17 -17 -17 -18 -18 -19
-6 -6 -6 -6 -7 -7 -8 -8 -9 -9 -9 -9 -9 -9 -9 -9 -9 -11 -11 -11 -10 -10 -10 -10 -11 -11 -11 -12 -13 -13 -14 -14 -15 -15 -16 -16 -17 -17 -18 -18 -19 -19 -19
-8 -8 -8 -8 -9 -9 -9 -9 -9 -10 -10 -10 -10 -10 -10 -10 -11 -12 -11 -11 -11 -11 -11 -11 -11 -12 -13 -13 -14 -14 -15 -15 -16 -16 -17 -17 -18 -18 -18 -19 -19 -20 -20
-9 -10 -10 -10 -10 -10 -10 -10 -10 -10 -10 -10 -10 -11 -13 -12 -12 -11 -11 -11 -11 -11 -12 -12 -13 -13 -14 -14 -15 -15 -16 -16 -17 -17 -17 -18 -18 -19 -19 -19 -20 -20 -21
-10 -11 -11 -11 -11 -11 -11 -11 -11 -10 -11 -12 -14 -13 -12 -12 -12 -12 -12 -12 -12 -12 -13 -14 -14 -14 -15 -15 -16 -16 -17 -17 -17 -18 -18 -19 -19 -19 -20 -20 -21 -21 -21
-11 -11 -11 -11 -11 -11 -11 -11 -12 -13 -14 -14 -13 -12 -12 -12 -12 -12 -12 -13 -13 -14 -14 -15 -15 -15 -16 -16 -16 -17 -17 -18 -18 -18 -19 -19 -20 -20 -20 -21 -21 -22 -22

GFSGL_700_temp_123.txt.gz
Temp
5 6 6 6 6 6 6 6 6 6 6 5 4 3 3 3 3 2 2 1 1 1 1 -1 0 1 1 1 1 1 0 -0 -0 -1 -2 -2 -2 -2 -2 -1 -1 -2 -1
5 5 6 6 6 5 6 5 6 6 6 4 4 4 3 3 2 2 1 1 1 1 0 -1 1 1 1 1 1 0 -0 -0 -1 -1 -2 -2 -2 -2 -1 -1 -2 -2 -2
5 5 5 6 6 6 6 5 6 6 6 4 4 4 4 3 2 2 2 1 0 1 -0 -1 -1 0 1 1 0 0 -0 -2 -2 -2 -2 -2 -2 -2 -2 -2 -2 -2 -1
4 4 4 5 5 5 5 5 6 6 5 4 4 3 3 3 3 2 2 1 0 0 -0 -0 -0 -0 0 0 -0 -1 -2 -2 -1 -2 -2 -2 -2 -2 -2 -2 -2 -1 -1
1 2 3 5 5 5 5 5 6 6 5 4 3 3 3 3 2 2 2 1 1 0 0 0 -0 -0 0 -0 0 -1 -1 -1 -1 -1 -2 -2 -2 -1 -1 -2 -2 -1 -1
1 2 2 2 3 3 4 5 6 5 5 4 4 4 3 3 2 2 1 1 1 1 1 0 0 0 -0 -0 -0 -0 -0 -1 -0 -1 -1 -1 -2 -2 -2 -2 -1 -1 -2
0 1 1 2 2 2 4 5 5 5 4 4 4 4 3 3 2 2 1 0 0 1 1 0 0 0 0 0 -1 -0 -1 -1 -1 -1 -1 -1 -1 -1 -1 -2 -2 -1 -2
0 1 1 2 2 2 4 4 5 4 4 4 4 4 3 3 3 2 1 0 0 0 0 -0 -0 -0 -0 -0 -1 -1 -1 -1 -1 -1 -1 -1 -1 -1 -2 -2 -2 -1 -2
0 1 2 1 1 3 3 4 4 4 4 4 4 3 3 3 2 2 2 2 1 0 -0 -0 -0 -0 -0 -1 -0 -1 -1 -1 -1 -1 -1 -1 -2 -2 -2 -2 -2 -2 -3
-1 -0 1 1 1 2 3 3 4 4 3 4 4 3 3 3 2 1 2 2 1 1 0 -0 -0 -0 -0 -1 -1 -1 -1 -1 -1 -1 -1 -1 -1 -1 -2 -2 -3 -4 -5
-1 -1 0 0 0 2 2 3 3 3 3 3 3 3 3 3 3 3 2 0 0 1 1 0 0 -0 -1 -1 -1 -1 -1 -1 -1 -1 -2 -2 -2 -3 -4 -4 -5 -6 -6
-1 -1 -1 -0 0 1 2 2 3 3 3 3 3 3 3 3 3 2 1 0 -0 -0 -0 -1 -1 -1 -1 -1 -1 -1 -2 -2 -2 -2 -2 -3 -3 -4 -5 -6 -6 -7 -7
-0 -2 -1 0 1 0 1 1 1 3 2 2 2 2 3 2 2 2 2 1 -1 -1 -1 -1 -1 -1 -2 -2 -2 -2 -2 -2 -2 -3 -3 -4 -5 -6 -6 -7 -7 -7 -8
-1 -2 -2 -1 -0 1 0 1 1 2 2 2 2 2 2 2 2 1 0 0 0 -0 0 -1 -1 -1 -1 -1 -1 -2 -3 -3 -4 -5 -6 -6 -6 -7 -7 -8 -8 -8 -9
-2 -2 -2 -2 -2 -0 -0 0 -0 -0 -0 1 1 2 2 1 1 1 0 0 -1 -1 -1 -1 -1 -1 -2 -2 -3 -3 -5 -5 -6 -6 -7 -7 -7 -8 -8 -8 -9 -9 -10
-3 -2 -3 -2 -2 -1 -1 -0 0 0 -0 1 0 0 0 -0 -1 -1 -1 -1 -1 -1 -2 -2 -2 -2 -3 -4 -5 -5 -6 -7 -7 -7 -8 -8 -8 -9 -9 -10 -10 -11 -12
-4 -3 -3 -3 -3 -2 -1 -0 0 0 -0 -0 -0 -1 -1 -1 -1 -2 -2 -2 -2 -3 -3 -4 -5 -5 -5 -6 -6 -6 -7 -8 -8 -8 -9 -9 -10 -10 -11 -11 -11 -12 -13
-4 -3 -3 -2 -3 -2 -2 -2 -2 -1 -1 -1 -2 -2 -2 -2 -2 -3 -3 -3 -3 -4 -4 -5 -6 -7 -7 -7 -8 -8 -8 -8 -9 -9 -10 -10 -10 -11 -11 -12 -13 -13 -14
-4 -3 -3 -3 -3 -3 -2 -3 -3 -2 -2 -2 -2 -2 -3 -3 -4 -4 -4 -4 -5 -6 -7 -7 -7 -8 -8 -8 -8 -8 -9 -9 -10 -10 -10 -11 -11 -12 -13 -13 -14 -15 -15
-4 -4 -4 -4 -4 -4 -4 -4 -3 -3 -3 -3 -3 -3 -3 -4 -4 -5 -6 -7 -8 -8 -8 -8 -9 -9 -9 -9 -9 -10 -10 -10 -11 -11 -11 -12 -13 -13 -14 -14 -15 -16 -16
-5 -5 -4 -5 -5 -5 -5 -5 -5 -5 -5 -5 -4 -5 -6 -6 -7 -8 -8 -8 -9 -9 -9 -10 -9 -9 -10 -10 -10 -10 -11 -11 -11 -12 -13 -13 -14 -14 -15 -15 -16 -17 -17
-7 -6 -6 -6 -6 -7 -8 -8 -7 -7 -7 -7 -7 -8 -8 -8 -9 -9 -9 -10 -11 -11 -10 -10 -10 -10 -10 -11 -11 -11 -12 -12 -13 -13 -14 -14 -15 -15 -16 -16 -17 -18 -18
-8 -8 -8 -8 -8 -9 -9 -9 -9 -9 -9 -9 -9 -9 -9 -9 -9 -10 -11 -12 -12 -11 -11 -11 -11 -11 -11 -12 -12 -12 -13 -13 -14 -14 -15 -15 -16 -16 -17 -17 -18 -18 -19
-9 -9 -9 -9 -10 -10 -10 -10 -10 -10 -10 -10 -10 -11 -10 -10 -11 -12 -12 -12 -11 -11 -12 -12 -12 -12 -12 -12 -13 -13 -13 -14 -15 -15 -15 -16 -17 -17 -17 -18 -19 -19 -19
-10 -10 -10 -10 -10 -10 -10 -10 -11 -11 -11 -11 -11 -11 -11 -12 -13 -13 -12 -12 -13 -12 -12 -12 -13 -13 -13 -13 -14 -14 -15 -15 -15 -16 -16 -17 -17 -18 -18 -19 -19 -20 -20
-11 -11 -11 -11 -11 -11 -12 -12 -12 -12 -11 -11 -12 -13 -14 -14 -13 -13 -14 -13 -13 -13 -13 -13 -13 -13 -14 -14 -15 -15 -15 -16 -16 -17 -17 -18 -18 -19 -19 -20 -20 -20 -21

GFSGL_700_temp_126.txt.gz
Temp
4 4 4 5 5 5 5 6 6 6 6 6 6 5 4 3 3 3 3 2 1 1 1 1 1 0 1 -0 -1 -1 0 0 1 0 -0 -0 -1 -1 -1 -2 -2 -2 -2
3 4 4 5 5 5 5 5 6 5 6 6 6 5 4 3 2 3 3 2 2 1 0 1 1 -0 -0 -0 -1 -1 -0 0 0 -0 -0 -0 -0 -1 -1 -2 -2 -2 -2
3 3 3 4 5 5 5 5 5 5 5 6 6 5 4 3 3 2 2 2 1 1 0 0 1 0 -0 -1 -1 -1 -2 -2 -1 -1 -1 -1 -1 -1 -2 -2 -2 -3 -2
2 2 2 4 4 5 5 5 5 5 5 5 6 5 5 4 3 2 2 2 2 1 1 0 0 0 -0 -0 -1 -1 -2 -2 -1 -1 -1 -1 -2 -2 -2 -2 -2 -2 -2
0 1 1 1 3 4 4 4 5 5 4 5 5 5 5 4 3 3 2 2 2 2 1 1 0 -0 -0 -0 -2 -1 -2 -2 -1 -0 -1 -2 -2 -2 -2 -1 -1 -2 -2
-0 0 1 0 2 2 3 2 4 4 4 5 5 4 4 4 3 2 2 2 2 1 1 1 1 -0 -0 0 -0 -1 -1 -2 -1 -2 -1 -1 -1 -1 -1 -1 -2 -2 -2
-1 -0 1 1 1 2 2 2 2 2 4 5 4 4 4 3 3 2 2 2 1 0 1 1 0 -0 -0 -0 0 -1 -2 -1 -1 -1 -1 -1 -1 -1 -1 -1 -2 -2 -2
-1 -1 -0 1 0 1 2 2 2 3 4 4 4 4 4 3 3 2 2 2 1 1 0 1 0 -0 -0 0 -0 -1 -1 -0 -1 -1 -1 -1 -1 -1 -1 -1 -1 -2 -2
-1 -1 -1 0 0 1 1 2 2 2 3 4 3 3 3 3 3 2 2 2 1 0 -0 -0 -0 -0 0 0 0 -0 -1 -1 -1 -1 -1 -1 -1 -1 -2 -2 -2 -2 -2
-1 -1 -1 -1 -0 1 1 2 1 1 2 3 3 3 3 3 3 3 2 2 2 1 0 0 -0 -1 -1 -1 -1 -1 -1 -1 -1 -1 -1 -1 -1 -1 -2 -2 -2 -2 -3
-1 -1 -1 -0 -0 0 1 1 2 1 1 1 2 3 3 3 3 3 2 2 2 2 1 1 0 -0 -0 -1 -1 -1 -1 -1 -1 -1 -1 -2 -2 -1 -2 -2 -3 -3 -4
-0 -0 -0 -0 -1 -0 0 1 1 1 1 0 2 2 2 2 2 2 2 2 1 1 1 1 -0 -0 -1 -1 -1 -1 -1 -2 -1 -1 -2 -2 -2 -2 -2 -3 -4 -5 -5
-1 -1 -1 -1 -1 -1 -0 -0 -1 0 0 0 1 2 2 2 2 2 2 1 -0 -1 -1 -1 -1 -2 -2 -1 -1 -1 -1 -1 -1 -2 -2 -2 -3 -4 -4 -5 -6 -6 -6
-2 -2 -2 -1 -2 -1 -1 0 -2 -0 -1 0 0 0 1 2 2 2 2 0 -0 -0 -1 -1 -2 -2 -1 -1 -1 -1 -2 -2 -2 -2 -3 -4 -5 -6 -6 -6 -6 -6 -7
-4 -3 -2 -3 -2 -2 -0 -1 -0 -1 -1 -1 -1 -1 0 0 1 1 1 1 -1 -2 -1 -1 -2 -2 -3 -2 -2 -2 -2 -3 -3 -4 -5 -6 -7 -7 -7 -7 -7 -8 -8
-4 -4 -3 -2 -3 -3 -1 -1 -0 -1 -2 -1 -1 0 -1 -0 0 -0 -1 -1 -1 -1 -1 -1 -1 -2 -2 -2 -3 -3 -4 -4 -5 -6 -6 -8 -8 -7 -7 -8 -8 -9 -9
-4 -4 -3 -3 -3 -3 -3 -2 -1 -1 -1 -1 -0 -0 -0 -1 -1 -1 -1 -1 -1 -1 -2 -2 -3 -4 -4 -4 -5 -5 -5 -6 -7 -7 -7 -7 -8 -8 -8 -9 -9 -10 -10
-4 -4 -4 -4 -3 -4 -4 -3 -2 -2 -0 -1 -1 -0 -1 -1 -1 -1 -1 -1 -1 -3 -4 -4 -4 -4 -5 -5 -6 -6 -7 -8 -8 -8 -8 -8 -9 -9 -10 -10 -11 -11 -12
-5 -4 -4 -4 -3 -4 -5 -5 -3 -3 -2 -1 -1 -1 -2 -2 -3 -3 -3 -4 -4 -4 -4 -4 -6 -6 -7 -7 -7 -8 -8 -8 -8 -9 -9 -9 -10 -10 -11 -11 -12 -12 -13
-6 -5 -5 -4 -4 -6 -6 -5 -5 -5 -4 -4 -3 -2 -2 -3 -3 -4 -4 -5 -6 -6 -6 -7 -7 -7 -8 -9 -9 -8 -9 -9 -9 -10 -10 -10 -11 -11 -11 -12 -13 -13 -14
-7 -7 -6 -6 -6 -7 -6 -6 -6 -5 -5 -5 -5 -4 -5 -6 -5 -6 -6 -7 -8 -9 -8 -8 -9 -10 -10 -9 -9 -10 -10 -10 -10 -11 -11 -11 -11 -12 -12 -13 -14 -14 -15
-8 -8 -8 -8 -8 -8 -8 -8 -8 -7 -7 -7 -6 -6 -7 -7 -8 -8 -8 -9 -9 -9 -10 -11 -11 -11 -10 -10 -10 -10 -11 -11 -11 -12 -12 -12 -13 -13 -14 -14 -15 -15 -16
-9 -9 -9 -9 -9 -9 -9 -9 -9 -10 -9 -9 -9 -9 -9 -9 -9 -9 -9 -9 -10 -11 -12 -12 -11 -11 -11 -11 -11 -11 -12 -12 -12 -12 -13 -13 -14 -14 -15 -15 -16 -16 -17
-10 -10 -10 -10 -10 -10 -10 -10 -10 -10 -10 -10 -10 -10 -10 -10 -10 -10 -11 -12 -13 -12 -11 -11 -12 -12 -11 -12 -12 -12 -13 -13 -13 -13 -14 -14 -15 -15 -16 -16 -17 -17 -18
-11 -11 -11 -11 -11 -11 -11 -11 -11 -11 -11 -11 -11 -11 -11 -11 -11 -12 -13 -13 -13 -13 -13 -13 -13 -12 -12 -13 -13 -13 -13 -14 -14 -14 -15 -15 -16 -16 -17 -17 -17 -18 -19
-11 -11 -11 -11 -11 -11 -11 -11 -11 -11 -11 -12 -12 -12 -12 -12 -13 -14 -15 -14 -14 -14 -13 -13 -13 -13 -13 -14 -14 -14 -14 -14 -15 -15 -16 -16 -16 -17 -17 -18 -18 -19 -19